<?xml version="1.0" encoding="UTF-8" standalone="no" ?>
<gpx xmlns="http://www.topografix.com/GPX/1/1" xmlns:xsi="http://www.w3.org/2001/XMLSchema-instance" xsi:schemaLocation="http://www.topografix.com/GPX/1/1 http://www.topografix.com/GPX/1/1/gpx.xsd" version="1.1" creator="VisuGPX - https://www.visugpx.com">
  <metadata>
    <name>Capu di muru</name>
    <desc><![CDATA[Capu di muru]]></desc>
  </metadata>
  <trk>
    <name><![CDATA[14042901]]></name>
    <trkseg>
      <trkpt lat="41.74642" lon="8.69736">
        <ele>123.8</ele>
        <time>2014-04-29T09:27:58Z</time>
      </trkpt>
      <trkpt lat="41.74626" lon="8.69715">
        <ele>121.3</ele>
        <time>2014-04-29T09:28:08Z</time>
      </trkpt>
      <trkpt lat="41.74593" lon="8.69686">
        <ele>113.1</ele>
        <time>2014-04-29T09:28:18Z</time>
      </trkpt>
      <trkpt lat="41.74593" lon="8.69685">
        <ele>113.1</ele>
        <time>2014-04-29T09:28:28Z</time>
      </trkpt>
      <trkpt lat="41.74593" lon="8.69684">
        <ele>113.1</ele>
        <time>2014-04-29T09:28:39Z</time>
      </trkpt>
      <trkpt lat="41.74593" lon="8.69683">
        <ele>113.1</ele>
        <time>2014-04-29T09:28:49Z</time>
      </trkpt>
      <trkpt lat="41.74586" lon="8.69674">
        <ele>110.9</ele>
        <time>2014-04-29T09:28:59Z</time>
      </trkpt>
      <trkpt lat="41.74589" lon="8.69678">
        <ele>111.7</ele>
        <time>2014-04-29T09:29:09Z</time>
      </trkpt>
      <trkpt lat="41.74589" lon="8.6968">
        <ele>111.9</ele>
        <time>2014-04-29T09:29:19Z</time>
      </trkpt>
      <trkpt lat="41.7459" lon="8.69681">
        <ele>112.1</ele>
        <time>2014-04-29T09:29:30Z</time>
      </trkpt>
      <trkpt lat="41.74589" lon="8.69682">
        <ele>112</ele>
        <time>2014-04-29T09:29:40Z</time>
      </trkpt>
      <trkpt lat="41.74589" lon="8.69682">
        <ele>112</ele>
        <time>2014-04-29T09:29:50Z</time>
      </trkpt>
      <trkpt lat="41.74589" lon="8.69682">
        <ele>112</ele>
        <time>2014-04-29T09:30:01Z</time>
      </trkpt>
      <trkpt lat="41.74589" lon="8.69682">
        <ele>112</ele>
        <time>2014-04-29T09:30:11Z</time>
      </trkpt>
      <trkpt lat="41.74589" lon="8.69682">
        <ele>112</ele>
        <time>2014-04-29T09:30:21Z</time>
      </trkpt>
      <trkpt lat="41.74589" lon="8.69682">
        <ele>112</ele>
        <time>2014-04-29T09:30:31Z</time>
      </trkpt>
      <trkpt lat="41.74589" lon="8.69682">
        <ele>112</ele>
        <time>2014-04-29T09:30:41Z</time>
      </trkpt>
      <trkpt lat="41.74589" lon="8.69683">
        <ele>112</ele>
        <time>2014-04-29T09:30:52Z</time>
      </trkpt>
      <trkpt lat="41.74589" lon="8.69683">
        <ele>112</ele>
        <time>2014-04-29T09:31:02Z</time>
      </trkpt>
      <trkpt lat="41.74589" lon="8.69683">
        <ele>112</ele>
        <time>2014-04-29T09:31:12Z</time>
      </trkpt>
      <trkpt lat="41.74589" lon="8.69683">
        <ele>112</ele>
        <time>2014-04-29T09:31:22Z</time>
      </trkpt>
      <trkpt lat="41.74589" lon="8.69683">
        <ele>112</ele>
        <time>2014-04-29T09:31:32Z</time>
      </trkpt>
      <trkpt lat="41.74589" lon="8.69683">
        <ele>112</ele>
        <time>2014-04-29T09:31:43Z</time>
      </trkpt>
      <trkpt lat="41.74589" lon="8.69683">
        <ele>112.1</ele>
        <time>2014-04-29T09:31:53Z</time>
      </trkpt>
      <trkpt lat="41.74589" lon="8.69683">
        <ele>112.1</ele>
        <time>2014-04-29T09:32:03Z</time>
      </trkpt>
      <trkpt lat="41.74589" lon="8.69683">
        <ele>112.1</ele>
        <time>2014-04-29T09:32:13Z</time>
      </trkpt>
      <trkpt lat="41.74589" lon="8.69683">
        <ele>112.1</ele>
        <time>2014-04-29T09:32:23Z</time>
      </trkpt>
      <trkpt lat="41.74589" lon="8.69683">
        <ele>112.1</ele>
        <time>2014-04-29T09:32:33Z</time>
      </trkpt>
      <trkpt lat="41.74589" lon="8.69683">
        <ele>112.1</ele>
        <time>2014-04-29T09:32:44Z</time>
      </trkpt>
      <trkpt lat="41.74589" lon="8.69683">
        <ele>112.1</ele>
        <time>2014-04-29T09:32:54Z</time>
      </trkpt>
      <trkpt lat="41.74589" lon="8.69683">
        <ele>112.1</ele>
        <time>2014-04-29T09:33:04Z</time>
      </trkpt>
      <trkpt lat="41.74589" lon="8.69683">
        <ele>112.1</ele>
        <time>2014-04-29T09:33:14Z</time>
      </trkpt>
      <trkpt lat="41.74589" lon="8.69684">
        <ele>112.1</ele>
        <time>2014-04-29T09:33:25Z</time>
      </trkpt>
      <trkpt lat="41.74589" lon="8.69684">
        <ele>112.1</ele>
        <time>2014-04-29T09:33:35Z</time>
      </trkpt>
      <trkpt lat="41.74589" lon="8.69684">
        <ele>112.1</ele>
        <time>2014-04-29T09:33:45Z</time>
      </trkpt>
      <trkpt lat="41.74589" lon="8.69684">
        <ele>112.1</ele>
        <time>2014-04-29T09:33:56Z</time>
      </trkpt>
      <trkpt lat="41.74589" lon="8.69684">
        <ele>112.1</ele>
        <time>2014-04-29T09:34:06Z</time>
      </trkpt>
      <trkpt lat="41.74589" lon="8.69684">
        <ele>112.1</ele>
        <time>2014-04-29T09:34:15Z</time>
      </trkpt>
      <trkpt lat="41.74589" lon="8.69684">
        <ele>112.1</ele>
        <time>2014-04-29T09:34:26Z</time>
      </trkpt>
      <trkpt lat="41.74589" lon="8.69684">
        <ele>112.1</ele>
        <time>2014-04-29T09:34:36Z</time>
      </trkpt>
      <trkpt lat="41.74589" lon="8.69684">
        <ele>112.1</ele>
        <time>2014-04-29T09:34:46Z</time>
      </trkpt>
      <trkpt lat="41.74589" lon="8.69684">
        <ele>112.1</ele>
        <time>2014-04-29T09:34:56Z</time>
      </trkpt>
      <trkpt lat="41.74583" lon="8.69686">
        <ele>110.7</ele>
        <time>2014-04-29T09:36:27Z</time>
      </trkpt>
      <trkpt lat="41.74583" lon="8.69688">
        <ele>110.8</ele>
        <time>2014-04-29T09:36:38Z</time>
      </trkpt>
      <trkpt lat="41.74583" lon="8.69688">
        <ele>110.8</ele>
        <time>2014-04-29T09:36:48Z</time>
      </trkpt>
      <trkpt lat="41.74586" lon="8.6969">
        <ele>111.4</ele>
        <time>2014-04-29T09:36:58Z</time>
      </trkpt>
      <trkpt lat="41.74582" lon="8.69692">
        <ele>110.7</ele>
        <time>2014-04-29T09:37:08Z</time>
      </trkpt>
      <trkpt lat="41.74582" lon="8.69692">
        <ele>110.6</ele>
        <time>2014-04-29T09:37:18Z</time>
      </trkpt>
      <trkpt lat="41.74582" lon="8.69692">
        <ele>110.7</ele>
        <time>2014-04-29T09:37:29Z</time>
      </trkpt>
      <trkpt lat="41.74582" lon="8.69692">
        <ele>110.7</ele>
        <time>2014-04-29T09:37:39Z</time>
      </trkpt>
      <trkpt lat="41.74582" lon="8.69692">
        <ele>110.7</ele>
        <time>2014-04-29T09:37:49Z</time>
      </trkpt>
      <trkpt lat="41.74582" lon="8.69692">
        <ele>110.7</ele>
        <time>2014-04-29T09:38:00Z</time>
      </trkpt>
      <trkpt lat="41.74582" lon="8.69692">
        <ele>110.7</ele>
        <time>2014-04-29T09:38:10Z</time>
      </trkpt>
      <trkpt lat="41.74582" lon="8.69692">
        <ele>110.7</ele>
        <time>2014-04-29T09:38:20Z</time>
      </trkpt>
      <trkpt lat="41.74582" lon="8.69692">
        <ele>110.7</ele>
        <time>2014-04-29T09:38:30Z</time>
      </trkpt>
      <trkpt lat="41.74582" lon="8.69692">
        <ele>110.7</ele>
        <time>2014-04-29T09:38:41Z</time>
      </trkpt>
      <trkpt lat="41.74582" lon="8.69692">
        <ele>110.7</ele>
        <time>2014-04-29T09:38:51Z</time>
      </trkpt>
      <trkpt lat="41.74582" lon="8.69692">
        <ele>110.7</ele>
        <time>2014-04-29T09:39:01Z</time>
      </trkpt>
      <trkpt lat="41.74582" lon="8.69692">
        <ele>110.7</ele>
        <time>2014-04-29T09:39:11Z</time>
      </trkpt>
      <trkpt lat="41.74582" lon="8.69692">
        <ele>110.7</ele>
        <time>2014-04-29T09:39:21Z</time>
      </trkpt>
      <trkpt lat="41.74582" lon="8.69692">
        <ele>110.7</ele>
        <time>2014-04-29T09:39:31Z</time>
      </trkpt>
      <trkpt lat="41.74582" lon="8.69692">
        <ele>110.7</ele>
        <time>2014-04-29T09:39:41Z</time>
      </trkpt>
      <trkpt lat="41.74582" lon="8.69692">
        <ele>110.7</ele>
        <time>2014-04-29T09:39:52Z</time>
      </trkpt>
      <trkpt lat="41.74582" lon="8.69692">
        <ele>110.7</ele>
        <time>2014-04-29T09:40:02Z</time>
      </trkpt>
      <trkpt lat="41.74582" lon="8.69692">
        <ele>110.7</ele>
        <time>2014-04-29T09:40:12Z</time>
      </trkpt>
      <trkpt lat="41.74582" lon="8.69692">
        <ele>110.7</ele>
        <time>2014-04-29T09:40:22Z</time>
      </trkpt>
      <trkpt lat="41.74582" lon="8.69684">
        <ele>110.3</ele>
        <time>2014-04-29T09:40:32Z</time>
      </trkpt>
      <trkpt lat="41.74585" lon="8.69638">
        <ele>109.4</ele>
        <time>2014-04-29T09:41:57Z</time>
      </trkpt>
      <trkpt lat="41.7459" lon="8.6964">
        <ele>110.5</ele>
        <time>2014-04-29T09:42:07Z</time>
      </trkpt>
      <trkpt lat="41.74591" lon="8.69633">
        <ele>110.4</ele>
        <time>2014-04-29T09:42:17Z</time>
      </trkpt>
      <trkpt lat="41.74591" lon="8.69632">
        <ele>110.4</ele>
        <time>2014-04-29T09:42:28Z</time>
      </trkpt>
      <trkpt lat="41.74589" lon="8.69624">
        <ele>109.9</ele>
        <time>2014-04-29T09:42:38Z</time>
      </trkpt>
      <trkpt lat="41.74585" lon="8.69609">
        <ele>109.4</ele>
        <time>2014-04-29T09:42:48Z</time>
      </trkpt>
      <trkpt lat="41.74579" lon="8.69599">
        <ele>109.8</ele>
        <time>2014-04-29T09:42:58Z</time>
      </trkpt>
      <trkpt lat="41.74567" lon="8.69584">
        <ele>111.3</ele>
        <time>2014-04-29T09:43:08Z</time>
      </trkpt>
      <trkpt lat="41.74559" lon="8.69578">
        <ele>112.6</ele>
        <time>2014-04-29T09:43:18Z</time>
      </trkpt>
      <trkpt lat="41.74549" lon="8.69569">
        <ele>113.9</ele>
        <time>2014-04-29T09:43:29Z</time>
      </trkpt>
      <trkpt lat="41.74515" lon="8.69494">
        <ele>115.4</ele>
        <time>2014-04-29T09:45:03Z</time>
      </trkpt>
      <trkpt lat="41.74576" lon="8.69308">
        <ele>116.5</ele>
        <time>2014-04-29T09:48:33Z</time>
      </trkpt>
      <trkpt lat="41.74586" lon="8.69301">
        <ele>116.5</ele>
        <time>2014-04-29T09:48:44Z</time>
      </trkpt>
      <trkpt lat="41.74597" lon="8.69288">
        <ele>115.5</ele>
        <time>2014-04-29T09:48:54Z</time>
      </trkpt>
      <trkpt lat="41.74599" lon="8.69278">
        <ele>113.8</ele>
        <time>2014-04-29T09:49:04Z</time>
      </trkpt>
      <trkpt lat="41.74599" lon="8.69271">
        <ele>113.6</ele>
        <time>2014-04-29T09:49:15Z</time>
      </trkpt>
      <trkpt lat="41.746" lon="8.69272">
        <ele>113.7</ele>
        <time>2014-04-29T09:49:25Z</time>
      </trkpt>
      <trkpt lat="41.746" lon="8.69272">
        <ele>113.7</ele>
        <time>2014-04-29T09:49:35Z</time>
      </trkpt>
      <trkpt lat="41.746" lon="8.69272">
        <ele>113.7</ele>
        <time>2014-04-29T09:49:45Z</time>
      </trkpt>
      <trkpt lat="41.746" lon="8.69272">
        <ele>113.7</ele>
        <time>2014-04-29T09:49:55Z</time>
      </trkpt>
      <trkpt lat="41.746" lon="8.69271">
        <ele>113.7</ele>
        <time>2014-04-29T09:50:06Z</time>
      </trkpt>
      <trkpt lat="41.74592" lon="8.69269">
        <ele>112.4</ele>
        <time>2014-04-29T09:50:16Z</time>
      </trkpt>
      <trkpt lat="41.74586" lon="8.69271">
        <ele>111.4</ele>
        <time>2014-04-29T09:50:26Z</time>
      </trkpt>
      <trkpt lat="41.74586" lon="8.69271">
        <ele>111.4</ele>
        <time>2014-04-29T09:50:37Z</time>
      </trkpt>
      <trkpt lat="41.74586" lon="8.69271">
        <ele>111.4</ele>
        <time>2014-04-29T09:50:47Z</time>
      </trkpt>
      <trkpt lat="41.74586" lon="8.69271">
        <ele>111.4</ele>
        <time>2014-04-29T09:50:57Z</time>
      </trkpt>
      <trkpt lat="41.74586" lon="8.69271">
        <ele>111.4</ele>
        <time>2014-04-29T09:51:07Z</time>
      </trkpt>
      <trkpt lat="41.74586" lon="8.69271">
        <ele>111.4</ele>
        <time>2014-04-29T09:51:17Z</time>
      </trkpt>
      <trkpt lat="41.74586" lon="8.69271">
        <ele>111.4</ele>
        <time>2014-04-29T09:51:28Z</time>
      </trkpt>
      <trkpt lat="41.7458" lon="8.69264">
        <ele>110.8</ele>
        <time>2014-04-29T09:51:38Z</time>
      </trkpt>
      <trkpt lat="41.74577" lon="8.69262">
        <ele>110.7</ele>
        <time>2014-04-29T09:51:48Z</time>
      </trkpt>
      <trkpt lat="41.74577" lon="8.69261">
        <ele>110.8</ele>
        <time>2014-04-29T09:51:58Z</time>
      </trkpt>
      <trkpt lat="41.74575" lon="8.69257">
        <ele>110.9</ele>
        <time>2014-04-29T09:52:09Z</time>
      </trkpt>
      <trkpt lat="41.74524" lon="8.69193">
        <ele>114.9</ele>
        <time>2014-04-29T09:54:21Z</time>
      </trkpt>
      <trkpt lat="41.7452" lon="8.69188">
        <ele>114.2</ele>
        <time>2014-04-29T09:54:31Z</time>
      </trkpt>
      <trkpt lat="41.7452" lon="8.69134">
        <ele>120.5</ele>
        <time>2014-04-29T09:54:41Z</time>
      </trkpt>
      <trkpt lat="41.7452" lon="8.69131">
        <ele>120.9</ele>
        <time>2014-04-29T09:54:51Z</time>
      </trkpt>
      <trkpt lat="41.74524" lon="8.6912">
        <ele>122.3</ele>
        <time>2014-04-29T09:55:01Z</time>
      </trkpt>
      <trkpt lat="41.74524" lon="8.69096">
        <ele>122.9</ele>
        <time>2014-04-29T09:55:12Z</time>
      </trkpt>
      <trkpt lat="41.74526" lon="8.6907">
        <ele>123.5</ele>
        <time>2014-04-29T09:55:22Z</time>
      </trkpt>
      <trkpt lat="41.74525" lon="8.69057">
        <ele>123.2</ele>
        <time>2014-04-29T09:55:32Z</time>
      </trkpt>
      <trkpt lat="41.74528" lon="8.69043">
        <ele>123.9</ele>
        <time>2014-04-29T09:55:42Z</time>
      </trkpt>
      <trkpt lat="41.74526" lon="8.69026">
        <ele>123.5</ele>
        <time>2014-04-29T09:55:52Z</time>
      </trkpt>
      <trkpt lat="41.74526" lon="8.6901">
        <ele>122.1</ele>
        <time>2014-04-29T09:56:02Z</time>
      </trkpt>
      <trkpt lat="41.74527" lon="8.68994">
        <ele>121.2</ele>
        <time>2014-04-29T09:56:12Z</time>
      </trkpt>
      <trkpt lat="41.74529" lon="8.6898">
        <ele>120.2</ele>
        <time>2014-04-29T09:56:22Z</time>
      </trkpt>
      <trkpt lat="41.74532" lon="8.68965">
        <ele>119.7</ele>
        <time>2014-04-29T09:56:33Z</time>
      </trkpt>
      <trkpt lat="41.74531" lon="8.68948">
        <ele>118.2</ele>
        <time>2014-04-29T09:56:43Z</time>
      </trkpt>
      <trkpt lat="41.74534" lon="8.6893">
        <ele>117.6</ele>
        <time>2014-04-29T09:56:53Z</time>
      </trkpt>
      <trkpt lat="41.74533" lon="8.68913">
        <ele>115.5</ele>
        <time>2014-04-29T09:57:03Z</time>
      </trkpt>
      <trkpt lat="41.74536" lon="8.68894">
        <ele>114.8</ele>
        <time>2014-04-29T09:57:14Z</time>
      </trkpt>
      <trkpt lat="41.74542" lon="8.6888">
        <ele>115.7</ele>
        <time>2014-04-29T09:57:24Z</time>
      </trkpt>
      <trkpt lat="41.74546" lon="8.68865">
        <ele>115.8</ele>
        <time>2014-04-29T09:57:34Z</time>
      </trkpt>
      <trkpt lat="41.74552" lon="8.68847">
        <ele>115</ele>
        <time>2014-04-29T09:57:44Z</time>
      </trkpt>
      <trkpt lat="41.74558" lon="8.68833">
        <ele>114.3</ele>
        <time>2014-04-29T09:57:55Z</time>
      </trkpt>
      <trkpt lat="41.7456" lon="8.68821">
        <ele>114.2</ele>
        <time>2014-04-29T09:58:05Z</time>
      </trkpt>
      <trkpt lat="41.74565" lon="8.68806">
        <ele>114.4</ele>
        <time>2014-04-29T09:58:15Z</time>
      </trkpt>
      <trkpt lat="41.74569" lon="8.68792">
        <ele>115.4</ele>
        <time>2014-04-29T09:58:25Z</time>
      </trkpt>
      <trkpt lat="41.74566" lon="8.68776">
        <ele>115.8</ele>
        <time>2014-04-29T09:58:35Z</time>
      </trkpt>
      <trkpt lat="41.74561" lon="8.68771">
        <ele>115.7</ele>
        <time>2014-04-29T09:58:45Z</time>
      </trkpt>
      <trkpt lat="41.74555" lon="8.68761">
        <ele>115.6</ele>
        <time>2014-04-29T09:58:56Z</time>
      </trkpt>
      <trkpt lat="41.74549" lon="8.68749">
        <ele>115.4</ele>
        <time>2014-04-29T09:59:06Z</time>
      </trkpt>
      <trkpt lat="41.74546" lon="8.6874">
        <ele>115.7</ele>
        <time>2014-04-29T09:59:16Z</time>
      </trkpt>
      <trkpt lat="41.7454" lon="8.68721">
        <ele>116.3</ele>
        <time>2014-04-29T09:59:26Z</time>
      </trkpt>
      <trkpt lat="41.74537" lon="8.68707">
        <ele>115.7</ele>
        <time>2014-04-29T09:59:36Z</time>
      </trkpt>
      <trkpt lat="41.74537" lon="8.68691">
        <ele>115.1</ele>
        <time>2014-04-29T09:59:47Z</time>
      </trkpt>
      <trkpt lat="41.74534" lon="8.68673">
        <ele>113.5</ele>
        <time>2014-04-29T09:59:57Z</time>
      </trkpt>
      <trkpt lat="41.7453" lon="8.6866">
        <ele>112.2</ele>
        <time>2014-04-29T10:00:07Z</time>
      </trkpt>
      <trkpt lat="41.7453" lon="8.68643">
        <ele>111.4</ele>
        <time>2014-04-29T10:00:17Z</time>
      </trkpt>
      <trkpt lat="41.7453" lon="8.68627">
        <ele>111.2</ele>
        <time>2014-04-29T10:00:28Z</time>
      </trkpt>
      <trkpt lat="41.74525" lon="8.68611">
        <ele>110.8</ele>
        <time>2014-04-29T10:00:38Z</time>
      </trkpt>
      <trkpt lat="41.74519" lon="8.68597">
        <ele>110</ele>
        <time>2014-04-29T10:00:48Z</time>
      </trkpt>
      <trkpt lat="41.74512" lon="8.68586">
        <ele>109.5</ele>
        <time>2014-04-29T10:00:58Z</time>
      </trkpt>
      <trkpt lat="41.74507" lon="8.68572">
        <ele>109.7</ele>
        <time>2014-04-29T10:01:08Z</time>
      </trkpt>
      <trkpt lat="41.74504" lon="8.68558">
        <ele>110.2</ele>
        <time>2014-04-29T10:01:18Z</time>
      </trkpt>
      <trkpt lat="41.74504" lon="8.68548">
        <ele>110.3</ele>
        <time>2014-04-29T10:01:28Z</time>
      </trkpt>
      <trkpt lat="41.74504" lon="8.68547">
        <ele>110.3</ele>
        <time>2014-04-29T10:01:38Z</time>
      </trkpt>
      <trkpt lat="41.74504" lon="8.68547">
        <ele>110.3</ele>
        <time>2014-04-29T10:01:48Z</time>
      </trkpt>
      <trkpt lat="41.74504" lon="8.68547">
        <ele>110.3</ele>
        <time>2014-04-29T10:01:58Z</time>
      </trkpt>
      <trkpt lat="41.74504" lon="8.68547">
        <ele>110.3</ele>
        <time>2014-04-29T10:02:08Z</time>
      </trkpt>
      <trkpt lat="41.74504" lon="8.68547">
        <ele>110.3</ele>
        <time>2014-04-29T10:02:19Z</time>
      </trkpt>
      <trkpt lat="41.74504" lon="8.68547">
        <ele>110.3</ele>
        <time>2014-04-29T10:02:29Z</time>
      </trkpt>
      <trkpt lat="41.74504" lon="8.68547">
        <ele>110.3</ele>
        <time>2014-04-29T10:02:39Z</time>
      </trkpt>
      <trkpt lat="41.74502" lon="8.68537">
        <ele>110.2</ele>
        <time>2014-04-29T10:02:49Z</time>
      </trkpt>
      <trkpt lat="41.74491" lon="8.68532">
        <ele>108.6</ele>
        <time>2014-04-29T10:02:59Z</time>
      </trkpt>
      <trkpt lat="41.74488" lon="8.68529">
        <ele>108.2</ele>
        <time>2014-04-29T10:03:10Z</time>
      </trkpt>
      <trkpt lat="41.74463" lon="8.68492">
        <ele>104</ele>
        <time>2014-04-29T10:04:04Z</time>
      </trkpt>
      <trkpt lat="41.74456" lon="8.68468">
        <ele>101</ele>
        <time>2014-04-29T10:04:14Z</time>
      </trkpt>
      <trkpt lat="41.7442" lon="8.68383">
        <ele>86.9</ele>
        <time>2014-04-29T10:04:24Z</time>
      </trkpt>
      <trkpt lat="41.7446" lon="8.68457">
        <ele>100.9</ele>
        <time>2014-04-29T10:04:34Z</time>
      </trkpt>
      <trkpt lat="41.74462" lon="8.68471">
        <ele>102.6</ele>
        <time>2014-04-29T10:04:45Z</time>
      </trkpt>
      <trkpt lat="41.74454" lon="8.68406">
        <ele>96</ele>
        <time>2014-04-29T10:04:55Z</time>
      </trkpt>
      <trkpt lat="41.74456" lon="8.68383">
        <ele>93.2</ele>
        <time>2014-04-29T10:05:05Z</time>
      </trkpt>
      <trkpt lat="41.74465" lon="8.68387">
        <ele>94.5</ele>
        <time>2014-04-29T10:05:15Z</time>
      </trkpt>
      <trkpt lat="41.7454" lon="8.68414">
        <ele>95.3</ele>
        <time>2014-04-29T10:06:51Z</time>
      </trkpt>
      <trkpt lat="41.74517" lon="8.68405">
        <ele>95.2</ele>
        <time>2014-04-29T10:07:01Z</time>
      </trkpt>
      <trkpt lat="41.74515" lon="8.68401">
        <ele>94.3</ele>
        <time>2014-04-29T10:07:11Z</time>
      </trkpt>
      <trkpt lat="41.74515" lon="8.68401">
        <ele>94.3</ele>
        <time>2014-04-29T10:07:22Z</time>
      </trkpt>
      <trkpt lat="41.74515" lon="8.68398">
        <ele>93.6</ele>
        <time>2014-04-29T10:07:32Z</time>
      </trkpt>
      <trkpt lat="41.74514" lon="8.68396">
        <ele>93.3</ele>
        <time>2014-04-29T10:07:42Z</time>
      </trkpt>
      <trkpt lat="41.74523" lon="8.68391">
        <ele>91.7</ele>
        <time>2014-04-29T10:07:52Z</time>
      </trkpt>
      <trkpt lat="41.74529" lon="8.68379">
        <ele>90.5</ele>
        <time>2014-04-29T10:08:02Z</time>
      </trkpt>
      <trkpt lat="41.74536" lon="8.6836">
        <ele>89.8</ele>
        <time>2014-04-29T10:08:12Z</time>
      </trkpt>
      <trkpt lat="41.74537" lon="8.68345">
        <ele>90.5</ele>
        <time>2014-04-29T10:08:22Z</time>
      </trkpt>
      <trkpt lat="41.74536" lon="8.6833">
        <ele>90.9</ele>
        <time>2014-04-29T10:08:32Z</time>
      </trkpt>
      <trkpt lat="41.74539" lon="8.68317">
        <ele>91.6</ele>
        <time>2014-04-29T10:08:42Z</time>
      </trkpt>
      <trkpt lat="41.74543" lon="8.68304">
        <ele>92.2</ele>
        <time>2014-04-29T10:08:52Z</time>
      </trkpt>
      <trkpt lat="41.74545" lon="8.68297">
        <ele>92.5</ele>
        <time>2014-04-29T10:09:03Z</time>
      </trkpt>
      <trkpt lat="41.74545" lon="8.68297">
        <ele>92.6</ele>
        <time>2014-04-29T10:09:13Z</time>
      </trkpt>
      <trkpt lat="41.74545" lon="8.68297">
        <ele>92.6</ele>
        <time>2014-04-29T10:09:23Z</time>
      </trkpt>
      <trkpt lat="41.74545" lon="8.68297">
        <ele>92.6</ele>
        <time>2014-04-29T10:09:33Z</time>
      </trkpt>
      <trkpt lat="41.74547" lon="8.68295">
        <ele>92.8</ele>
        <time>2014-04-29T10:09:43Z</time>
      </trkpt>
      <trkpt lat="41.74549" lon="8.68281">
        <ele>92.8</ele>
        <time>2014-04-29T10:09:53Z</time>
      </trkpt>
      <trkpt lat="41.74548" lon="8.68272">
        <ele>92.9</ele>
        <time>2014-04-29T10:10:03Z</time>
      </trkpt>
      <trkpt lat="41.74548" lon="8.68272">
        <ele>92.9</ele>
        <time>2014-04-29T10:10:13Z</time>
      </trkpt>
      <trkpt lat="41.74549" lon="8.68263">
        <ele>93.3</ele>
        <time>2014-04-29T10:10:23Z</time>
      </trkpt>
      <trkpt lat="41.74552" lon="8.68249">
        <ele>94</ele>
        <time>2014-04-29T10:10:33Z</time>
      </trkpt>
      <trkpt lat="41.74553" lon="8.68238">
        <ele>95.6</ele>
        <time>2014-04-29T10:10:43Z</time>
      </trkpt>
      <trkpt lat="41.74554" lon="8.68228">
        <ele>97.1</ele>
        <time>2014-04-29T10:10:53Z</time>
      </trkpt>
      <trkpt lat="41.74557" lon="8.68218">
        <ele>98.7</ele>
        <time>2014-04-29T10:11:04Z</time>
      </trkpt>
      <trkpt lat="41.74559" lon="8.68208">
        <ele>100.3</ele>
        <time>2014-04-29T10:11:14Z</time>
      </trkpt>
      <trkpt lat="41.74562" lon="8.68199">
        <ele>101.9</ele>
        <time>2014-04-29T10:11:24Z</time>
      </trkpt>
      <trkpt lat="41.74561" lon="8.68188">
        <ele>103.7</ele>
        <time>2014-04-29T10:11:34Z</time>
      </trkpt>
      <trkpt lat="41.74564" lon="8.68176">
        <ele>105.4</ele>
        <time>2014-04-29T10:11:44Z</time>
      </trkpt>
      <trkpt lat="41.74565" lon="8.68162">
        <ele>107.5</ele>
        <time>2014-04-29T10:11:54Z</time>
      </trkpt>
      <trkpt lat="41.74567" lon="8.68149">
        <ele>109.2</ele>
        <time>2014-04-29T10:12:04Z</time>
      </trkpt>
      <trkpt lat="41.74567" lon="8.68137">
        <ele>110.8</ele>
        <time>2014-04-29T10:12:14Z</time>
      </trkpt>
      <trkpt lat="41.74567" lon="8.68124">
        <ele>112.3</ele>
        <time>2014-04-29T10:12:24Z</time>
      </trkpt>
      <trkpt lat="41.74568" lon="8.68114">
        <ele>113.9</ele>
        <time>2014-04-29T10:12:34Z</time>
      </trkpt>
      <trkpt lat="41.74564" lon="8.68102">
        <ele>114.3</ele>
        <time>2014-04-29T10:12:44Z</time>
      </trkpt>
      <trkpt lat="41.74561" lon="8.68088">
        <ele>114.8</ele>
        <time>2014-04-29T10:12:54Z</time>
      </trkpt>
      <trkpt lat="41.74562" lon="8.68077">
        <ele>115.1</ele>
        <time>2014-04-29T10:13:04Z</time>
      </trkpt>
      <trkpt lat="41.74562" lon="8.6807">
        <ele>115</ele>
        <time>2014-04-29T10:13:14Z</time>
      </trkpt>
      <trkpt lat="41.74563" lon="8.68055">
        <ele>114.5</ele>
        <time>2014-04-29T10:13:24Z</time>
      </trkpt>
      <trkpt lat="41.74564" lon="8.68051">
        <ele>114.5</ele>
        <time>2014-04-29T10:13:35Z</time>
      </trkpt>
      <trkpt lat="41.74563" lon="8.68045">
        <ele>114</ele>
        <time>2014-04-29T10:13:45Z</time>
      </trkpt>
      <trkpt lat="41.74558" lon="8.68036">
        <ele>112.7</ele>
        <time>2014-04-29T10:13:55Z</time>
      </trkpt>
      <trkpt lat="41.74553" lon="8.68043">
        <ele>112.2</ele>
        <time>2014-04-29T10:14:05Z</time>
      </trkpt>
      <trkpt lat="41.74551" lon="8.68043">
        <ele>111.8</ele>
        <time>2014-04-29T10:14:15Z</time>
      </trkpt>
      <trkpt lat="41.7455" lon="8.68043">
        <ele>111.7</ele>
        <time>2014-04-29T10:14:25Z</time>
      </trkpt>
      <trkpt lat="41.74549" lon="8.68049">
        <ele>111.4</ele>
        <time>2014-04-29T10:14:35Z</time>
      </trkpt>
      <trkpt lat="41.74541" lon="8.68054">
        <ele>109.5</ele>
        <time>2014-04-29T10:14:45Z</time>
      </trkpt>
      <trkpt lat="41.74537" lon="8.68054">
        <ele>108.6</ele>
        <time>2014-04-29T10:14:55Z</time>
      </trkpt>
      <trkpt lat="41.74533" lon="8.68057">
        <ele>107.3</ele>
        <time>2014-04-29T10:15:05Z</time>
      </trkpt>
      <trkpt lat="41.74532" lon="8.6806">
        <ele>106.8</ele>
        <time>2014-04-29T10:15:15Z</time>
      </trkpt>
      <trkpt lat="41.74527" lon="8.68064">
        <ele>105.4</ele>
        <time>2014-04-29T10:15:25Z</time>
      </trkpt>
      <trkpt lat="41.74527" lon="8.68064">
        <ele>105.3</ele>
        <time>2014-04-29T10:15:35Z</time>
      </trkpt>
      <trkpt lat="41.74527" lon="8.68064">
        <ele>105.3</ele>
        <time>2014-04-29T10:15:45Z</time>
      </trkpt>
      <trkpt lat="41.74526" lon="8.68064">
        <ele>104.9</ele>
        <time>2014-04-29T10:15:55Z</time>
      </trkpt>
      <trkpt lat="41.74523" lon="8.68061">
        <ele>104</ele>
        <time>2014-04-29T10:16:05Z</time>
      </trkpt>
      <trkpt lat="41.74523" lon="8.68061">
        <ele>104</ele>
        <time>2014-04-29T10:16:16Z</time>
      </trkpt>
      <trkpt lat="41.74434" lon="8.68045">
        <ele>83.4</ele>
        <time>2014-04-29T10:18:27Z</time>
      </trkpt>
      <trkpt lat="41.74426" lon="8.6804">
        <ele>81.1</ele>
        <time>2014-04-29T10:18:47Z</time>
      </trkpt>
      <trkpt lat="41.74423" lon="8.68037">
        <ele>80.1</ele>
        <time>2014-04-29T10:18:57Z</time>
      </trkpt>
      <trkpt lat="41.74416" lon="8.68034">
        <ele>77.6</ele>
        <time>2014-04-29T10:19:08Z</time>
      </trkpt>
      <trkpt lat="41.74411" lon="8.68032">
        <ele>76.4</ele>
        <time>2014-04-29T10:19:18Z</time>
      </trkpt>
      <trkpt lat="41.74406" lon="8.68033">
        <ele>74.7</ele>
        <time>2014-04-29T10:19:28Z</time>
      </trkpt>
      <trkpt lat="41.74396" lon="8.68032">
        <ele>72.1</ele>
        <time>2014-04-29T10:19:38Z</time>
      </trkpt>
      <trkpt lat="41.74388" lon="8.68032">
        <ele>69.8</ele>
        <time>2014-04-29T10:19:48Z</time>
      </trkpt>
      <trkpt lat="41.74381" lon="8.68031">
        <ele>67.8</ele>
        <time>2014-04-29T10:19:58Z</time>
      </trkpt>
      <trkpt lat="41.74378" lon="8.68033">
        <ele>66.3</ele>
        <time>2014-04-29T10:20:09Z</time>
      </trkpt>
      <trkpt lat="41.74373" lon="8.68032">
        <ele>64.9</ele>
        <time>2014-04-29T10:20:19Z</time>
      </trkpt>
      <trkpt lat="41.74367" lon="8.68033">
        <ele>63.1</ele>
        <time>2014-04-29T10:20:29Z</time>
      </trkpt>
      <trkpt lat="41.74364" lon="8.68038">
        <ele>61.2</ele>
        <time>2014-04-29T10:20:39Z</time>
      </trkpt>
      <trkpt lat="41.74361" lon="8.68045">
        <ele>59.3</ele>
        <time>2014-04-29T10:20:49Z</time>
      </trkpt>
      <trkpt lat="41.74355" lon="8.68048">
        <ele>57.9</ele>
        <time>2014-04-29T10:20:59Z</time>
      </trkpt>
      <trkpt lat="41.7435" lon="8.68055">
        <ele>56.1</ele>
        <time>2014-04-29T10:21:09Z</time>
      </trkpt>
      <trkpt lat="41.74342" lon="8.68052">
        <ele>55</ele>
        <time>2014-04-29T10:21:19Z</time>
      </trkpt>
      <trkpt lat="41.74332" lon="8.68045">
        <ele>53.8</ele>
        <time>2014-04-29T10:21:29Z</time>
      </trkpt>
      <trkpt lat="41.74327" lon="8.68027">
        <ele>54.8</ele>
        <time>2014-04-29T10:21:39Z</time>
      </trkpt>
      <trkpt lat="41.74316" lon="8.68031">
        <ele>54.4</ele>
        <time>2014-04-29T10:21:49Z</time>
      </trkpt>
      <trkpt lat="41.74303" lon="8.68025">
        <ele>53.4</ele>
        <time>2014-04-29T10:21:59Z</time>
      </trkpt>
      <trkpt lat="41.74301" lon="8.68026">
        <ele>53.7</ele>
        <time>2014-04-29T10:22:10Z</time>
      </trkpt>
      <trkpt lat="41.74297" lon="8.6801">
        <ele>50.8</ele>
        <time>2014-04-29T10:22:20Z</time>
      </trkpt>
      <trkpt lat="41.74294" lon="8.68002">
        <ele>49.5</ele>
        <time>2014-04-29T10:22:30Z</time>
      </trkpt>
      <trkpt lat="41.74292" lon="8.68004">
        <ele>50.2</ele>
        <time>2014-04-29T10:22:40Z</time>
      </trkpt>
      <trkpt lat="41.74288" lon="8.68001">
        <ele>50.1</ele>
        <time>2014-04-29T10:22:50Z</time>
      </trkpt>
      <trkpt lat="41.74281" lon="8.67986">
        <ele>45.3</ele>
        <time>2014-04-29T10:23:00Z</time>
      </trkpt>
      <trkpt lat="41.74275" lon="8.67977">
        <ele>40.3</ele>
        <time>2014-04-29T10:23:10Z</time>
      </trkpt>
      <trkpt lat="41.74274" lon="8.67969">
        <ele>37.3</ele>
        <time>2014-04-29T10:23:20Z</time>
      </trkpt>
      <trkpt lat="41.7427" lon="8.67967">
        <ele>35.7</ele>
        <time>2014-04-29T10:23:30Z</time>
      </trkpt>
      <trkpt lat="41.7427" lon="8.67961">
        <ele>33.8</ele>
        <time>2014-04-29T10:23:40Z</time>
      </trkpt>
      <trkpt lat="41.74269" lon="8.67954">
        <ele>31.2</ele>
        <time>2014-04-29T10:23:50Z</time>
      </trkpt>
      <trkpt lat="41.74264" lon="8.67948">
        <ele>28.5</ele>
        <time>2014-04-29T10:24:00Z</time>
      </trkpt>
      <trkpt lat="41.74258" lon="8.67944">
        <ele>26.8</ele>
        <time>2014-04-29T10:24:11Z</time>
      </trkpt>
      <trkpt lat="41.74254" lon="8.67942">
        <ele>25.6</ele>
        <time>2014-04-29T10:24:21Z</time>
      </trkpt>
      <trkpt lat="41.74249" lon="8.67937">
        <ele>23.2</ele>
        <time>2014-04-29T10:24:31Z</time>
      </trkpt>
      <trkpt lat="41.74249" lon="8.67936">
        <ele>22.7</ele>
        <time>2014-04-29T10:24:41Z</time>
      </trkpt>
      <trkpt lat="41.74245" lon="8.67925">
        <ele>18</ele>
        <time>2014-04-29T10:24:51Z</time>
      </trkpt>
      <trkpt lat="41.74243" lon="8.67921">
        <ele>16.2</ele>
        <time>2014-04-29T10:25:01Z</time>
      </trkpt>
      <trkpt lat="41.74235" lon="8.67916">
        <ele>13.8</ele>
        <time>2014-04-29T10:25:11Z</time>
      </trkpt>
      <trkpt lat="41.7423" lon="8.67905">
        <ele>12.3</ele>
        <time>2014-04-29T10:25:22Z</time>
      </trkpt>
      <trkpt lat="41.74222" lon="8.67905">
        <ele>11.1</ele>
        <time>2014-04-29T10:25:32Z</time>
      </trkpt>
      <trkpt lat="41.74223" lon="8.67895">
        <ele>10.6</ele>
        <time>2014-04-29T10:25:42Z</time>
      </trkpt>
      <trkpt lat="41.74223" lon="8.67894">
        <ele>10.5</ele>
        <time>2014-04-29T10:25:52Z</time>
      </trkpt>
      <trkpt lat="41.74487" lon="8.66905">
        <ele>77</ele>
        <time>2014-04-29T10:47:14Z</time>
      </trkpt>
      <trkpt lat="41.74455" lon="8.66881">
        <ele>55.5</ele>
        <time>2014-04-29T10:47:24Z</time>
      </trkpt>
      <trkpt lat="41.74462" lon="8.66878">
        <ele>60.3</ele>
        <time>2014-04-29T10:47:34Z</time>
      </trkpt>
      <trkpt lat="41.74466" lon="8.66869">
        <ele>63.6</ele>
        <time>2014-04-29T10:47:44Z</time>
      </trkpt>
      <trkpt lat="41.74473" lon="8.66856">
        <ele>67.1</ele>
        <time>2014-04-29T10:47:54Z</time>
      </trkpt>
      <trkpt lat="41.74468" lon="8.66843">
        <ele>59.6</ele>
        <time>2014-04-29T10:48:04Z</time>
      </trkpt>
      <trkpt lat="41.74464" lon="8.66831">
        <ele>53.8</ele>
        <time>2014-04-29T10:48:14Z</time>
      </trkpt>
      <trkpt lat="41.74357" lon="8.66842">
        <ele>8.3</ele>
        <time>2014-04-29T10:49:04Z</time>
      </trkpt>
      <trkpt lat="41.74363" lon="8.66835">
        <ele>8.6</ele>
        <time>2014-04-29T10:49:14Z</time>
      </trkpt>
      <trkpt lat="41.74364" lon="8.6683">
        <ele>8.9</ele>
        <time>2014-04-29T10:49:24Z</time>
      </trkpt>
      <trkpt lat="41.74362" lon="8.66824">
        <ele>9.1</ele>
        <time>2014-04-29T10:49:30Z</time>
      </trkpt>
      <trkpt lat="41.74365" lon="8.66822">
        <ele>10</ele>
        <time>2014-04-29T10:49:47Z</time>
      </trkpt>
      <trkpt lat="41.74333" lon="8.66806">
        <time>2014-04-29T10:49:58Z</time>
      </trkpt>
      <trkpt lat="41.74359" lon="8.66787">
        <ele>11.7</ele>
        <time>2014-04-29T10:50:08Z</time>
      </trkpt>
      <trkpt lat="41.74366" lon="8.66788">
        <ele>12.7</ele>
        <time>2014-04-29T10:50:18Z</time>
      </trkpt>
      <trkpt lat="41.74364" lon="8.66778">
        <ele>12.7</ele>
        <time>2014-04-29T10:50:29Z</time>
      </trkpt>
      <trkpt lat="41.74363" lon="8.66776">
        <ele>12.6</ele>
        <time>2014-04-29T10:50:36Z</time>
      </trkpt>
      <trkpt lat="41.7436" lon="8.66778">
        <ele>12</ele>
        <time>2014-04-29T10:50:48Z</time>
      </trkpt>
      <trkpt lat="41.74358" lon="8.66768">
        <ele>12.6</ele>
        <time>2014-04-29T10:50:59Z</time>
      </trkpt>
      <trkpt lat="41.74362" lon="8.66767">
        <ele>13.4</ele>
        <time>2014-04-29T10:51:09Z</time>
      </trkpt>
      <trkpt lat="41.74364" lon="8.66762">
        <ele>14.6</ele>
        <time>2014-04-29T10:51:19Z</time>
      </trkpt>
      <trkpt lat="41.74362" lon="8.66754">
        <ele>14.7</ele>
        <time>2014-04-29T10:51:24Z</time>
      </trkpt>
      <trkpt lat="41.7436" lon="8.66743">
        <ele>15.4</ele>
        <time>2014-04-29T10:51:35Z</time>
      </trkpt>
      <trkpt lat="41.74362" lon="8.66734">
        <ele>17.2</ele>
        <time>2014-04-29T10:51:45Z</time>
      </trkpt>
      <trkpt lat="41.74365" lon="8.66723">
        <ele>19.5</ele>
        <time>2014-04-29T10:51:55Z</time>
      </trkpt>
      <trkpt lat="41.74364" lon="8.66718">
        <ele>19.4</ele>
        <time>2014-04-29T10:52:07Z</time>
      </trkpt>
      <trkpt lat="41.74364" lon="8.66717">
        <ele>19.5</ele>
        <time>2014-04-29T10:52:18Z</time>
      </trkpt>
      <trkpt lat="41.74364" lon="8.66716">
        <ele>19.5</ele>
        <time>2014-04-29T10:52:28Z</time>
      </trkpt>
      <trkpt lat="41.74363" lon="8.66716">
        <ele>19.1</ele>
        <time>2014-04-29T10:52:38Z</time>
      </trkpt>
      <trkpt lat="41.74363" lon="8.66711">
        <ele>19.1</ele>
        <time>2014-04-29T10:52:48Z</time>
      </trkpt>
      <trkpt lat="41.74363" lon="8.66711">
        <ele>19.3</ele>
        <time>2014-04-29T10:52:52Z</time>
      </trkpt>
      <trkpt lat="41.74363" lon="8.66714">
        <ele>19</ele>
        <time>2014-04-29T10:52:57Z</time>
      </trkpt>
      <trkpt lat="41.74362" lon="8.66713">
        <ele>18.6</ele>
        <time>2014-04-29T10:53:08Z</time>
      </trkpt>
      <trkpt lat="41.74362" lon="8.66712">
        <ele>18.7</ele>
        <time>2014-04-29T10:53:18Z</time>
      </trkpt>
      <trkpt lat="41.74356" lon="8.6669">
        <ele>16.5</ele>
        <time>2014-04-29T10:53:28Z</time>
      </trkpt>
      <trkpt lat="41.74356" lon="8.66672">
        <ele>16.7</ele>
        <time>2014-04-29T10:53:38Z</time>
      </trkpt>
      <trkpt lat="41.74356" lon="8.66657">
        <ele>16.5</ele>
        <time>2014-04-29T10:53:47Z</time>
      </trkpt>
      <trkpt lat="41.74356" lon="8.66651">
        <ele>16.7</ele>
        <time>2014-04-29T10:53:52Z</time>
      </trkpt>
      <trkpt lat="41.74354" lon="8.66636">
        <ele>15.1</ele>
        <time>2014-04-29T10:54:01Z</time>
      </trkpt>
      <trkpt lat="41.74357" lon="8.6662">
        <ele>17.4</ele>
        <time>2014-04-29T10:54:12Z</time>
      </trkpt>
      <trkpt lat="41.74354" lon="8.66612">
        <ele>15.9</ele>
        <time>2014-04-29T10:54:23Z</time>
      </trkpt>
      <trkpt lat="41.74351" lon="8.66602">
        <ele>15.8</ele>
        <time>2014-04-29T10:54:33Z</time>
      </trkpt>
      <trkpt lat="41.74351" lon="8.66593">
        <ele>18.3</ele>
        <time>2014-04-29T10:54:43Z</time>
      </trkpt>
      <trkpt lat="41.74355" lon="8.66575">
        <ele>22.7</ele>
        <time>2014-04-29T10:54:53Z</time>
      </trkpt>
      <trkpt lat="41.74352" lon="8.66566">
        <ele>21.8</ele>
        <time>2014-04-29T10:55:03Z</time>
      </trkpt>
      <trkpt lat="41.74353" lon="8.66566">
        <ele>22.3</ele>
        <time>2014-04-29T10:55:13Z</time>
      </trkpt>
      <trkpt lat="41.74351" lon="8.66557">
        <ele>22.2</ele>
        <time>2014-04-29T10:55:23Z</time>
      </trkpt>
      <trkpt lat="41.74344" lon="8.66543">
        <ele>21.7</ele>
        <time>2014-04-29T10:55:33Z</time>
      </trkpt>
      <trkpt lat="41.74338" lon="8.6654">
        <ele>20.2</ele>
        <time>2014-04-29T10:55:43Z</time>
      </trkpt>
      <trkpt lat="41.7433" lon="8.66533">
        <ele>18.4</ele>
        <time>2014-04-29T10:55:53Z</time>
      </trkpt>
      <trkpt lat="41.74321" lon="8.66527">
        <ele>17.4</ele>
        <time>2014-04-29T10:56:03Z</time>
      </trkpt>
      <trkpt lat="41.74312" lon="8.66526">
        <ele>16.1</ele>
        <time>2014-04-29T10:56:13Z</time>
      </trkpt>
      <trkpt lat="41.74301" lon="8.66526">
        <ele>14.1</ele>
        <time>2014-04-29T10:56:24Z</time>
      </trkpt>
      <trkpt lat="41.74291" lon="8.66521">
        <ele>12.5</ele>
        <time>2014-04-29T10:56:34Z</time>
      </trkpt>
      <trkpt lat="41.74282" lon="8.66521">
        <ele>10.5</ele>
        <time>2014-04-29T10:56:44Z</time>
      </trkpt>
      <trkpt lat="41.74272" lon="8.6652">
        <ele>8.4</ele>
        <time>2014-04-29T10:56:54Z</time>
      </trkpt>
      <trkpt lat="41.74259" lon="8.6652">
        <ele>5.7</ele>
        <time>2014-04-29T10:57:04Z</time>
      </trkpt>
      <trkpt lat="41.74247" lon="8.66512">
        <ele>5.9</ele>
        <time>2014-04-29T10:57:14Z</time>
      </trkpt>
      <trkpt lat="41.74238" lon="8.66506">
        <ele>7.3</ele>
        <time>2014-04-29T10:57:24Z</time>
      </trkpt>
      <trkpt lat="41.74231" lon="8.66506">
        <ele>7</ele>
        <time>2014-04-29T10:57:34Z</time>
      </trkpt>
      <trkpt lat="41.74227" lon="8.66502">
        <ele>7.7</ele>
        <time>2014-04-29T10:57:44Z</time>
      </trkpt>
      <trkpt lat="41.74222" lon="8.66501">
        <ele>7.7</ele>
        <time>2014-04-29T10:57:54Z</time>
      </trkpt>
      <trkpt lat="41.74216" lon="8.66496">
        <ele>8</ele>
        <time>2014-04-29T10:58:04Z</time>
      </trkpt>
      <trkpt lat="41.74211" lon="8.66492">
        <ele>8.2</ele>
        <time>2014-04-29T10:58:14Z</time>
      </trkpt>
      <trkpt lat="41.74207" lon="8.66483">
        <ele>9.8</ele>
        <time>2014-04-29T10:58:24Z</time>
      </trkpt>
      <trkpt lat="41.74204" lon="8.66472">
        <ele>11.6</ele>
        <time>2014-04-29T10:58:34Z</time>
      </trkpt>
      <trkpt lat="41.74201" lon="8.66459">
        <ele>11.2</ele>
        <time>2014-04-29T10:58:45Z</time>
      </trkpt>
      <trkpt lat="41.74196" lon="8.6645">
        <ele>10.2</ele>
        <time>2014-04-29T10:58:55Z</time>
      </trkpt>
      <trkpt lat="41.74189" lon="8.66444">
        <ele>9.4</ele>
        <time>2014-04-29T10:59:05Z</time>
      </trkpt>
      <trkpt lat="41.74183" lon="8.66436">
        <ele>10.2</ele>
        <time>2014-04-29T10:59:15Z</time>
      </trkpt>
      <trkpt lat="41.74179" lon="8.66427">
        <ele>11.1</ele>
        <time>2014-04-29T10:59:25Z</time>
      </trkpt>
      <trkpt lat="41.74171" lon="8.66413">
        <ele>11.8</ele>
        <time>2014-04-29T10:59:35Z</time>
      </trkpt>
      <trkpt lat="41.74165" lon="8.66399">
        <ele>13.4</ele>
        <time>2014-04-29T10:59:45Z</time>
      </trkpt>
      <trkpt lat="41.74157" lon="8.66388">
        <ele>12.6</ele>
        <time>2014-04-29T10:59:55Z</time>
      </trkpt>
      <trkpt lat="41.74154" lon="8.66384">
        <ele>13</ele>
        <time>2014-04-29T11:00:05Z</time>
      </trkpt>
      <trkpt lat="41.74154" lon="8.66383">
        <ele>13.3</ele>
        <time>2014-04-29T11:00:16Z</time>
      </trkpt>
      <trkpt lat="41.74153" lon="8.66381">
        <ele>13.4</ele>
        <time>2014-04-29T11:00:26Z</time>
      </trkpt>
      <trkpt lat="41.74153" lon="8.6638">
        <ele>13.6</ele>
        <time>2014-04-29T11:00:36Z</time>
      </trkpt>
      <trkpt lat="41.74148" lon="8.66373">
        <ele>14.1</ele>
        <time>2014-04-29T11:00:46Z</time>
      </trkpt>
      <trkpt lat="41.74141" lon="8.66364">
        <ele>14.8</ele>
        <time>2014-04-29T11:00:56Z</time>
      </trkpt>
      <trkpt lat="41.74135" lon="8.66354">
        <ele>15.4</ele>
        <time>2014-04-29T11:01:06Z</time>
      </trkpt>
      <trkpt lat="41.74129" lon="8.66342">
        <ele>17.1</ele>
        <time>2014-04-29T11:01:16Z</time>
      </trkpt>
      <trkpt lat="41.74119" lon="8.66337">
        <ele>15.9</ele>
        <time>2014-04-29T11:01:26Z</time>
      </trkpt>
      <trkpt lat="41.74113" lon="8.6633">
        <ele>16.8</ele>
        <time>2014-04-29T11:01:36Z</time>
      </trkpt>
      <trkpt lat="41.74108" lon="8.66322">
        <ele>18.5</ele>
        <time>2014-04-29T11:01:46Z</time>
      </trkpt>
      <trkpt lat="41.74098" lon="8.66317">
        <ele>16.5</ele>
        <time>2014-04-29T11:01:56Z</time>
      </trkpt>
      <trkpt lat="41.74091" lon="8.66305">
        <ele>17.6</ele>
        <time>2014-04-29T11:02:06Z</time>
      </trkpt>
      <trkpt lat="41.74087" lon="8.6629">
        <ele>20.3</ele>
        <time>2014-04-29T11:02:17Z</time>
      </trkpt>
      <trkpt lat="41.74084" lon="8.66283">
        <ele>20.7</ele>
        <time>2014-04-29T11:02:24Z</time>
      </trkpt>
      <trkpt lat="41.74078" lon="8.66279">
        <ele>18.2</ele>
        <time>2014-04-29T11:02:42Z</time>
      </trkpt>
      <trkpt lat="41.7407" lon="8.66257">
        <ele>16.5</ele>
        <time>2014-04-29T11:02:52Z</time>
      </trkpt>
      <trkpt lat="41.74067" lon="8.6624">
        <ele>16.2</ele>
        <time>2014-04-29T11:03:02Z</time>
      </trkpt>
      <trkpt lat="41.74063" lon="8.66226">
        <ele>14.7</ele>
        <time>2014-04-29T11:03:12Z</time>
      </trkpt>
      <trkpt lat="41.74055" lon="8.66215">
        <ele>12.8</ele>
        <time>2014-04-29T11:03:22Z</time>
      </trkpt>
      <trkpt lat="41.74049" lon="8.66212">
        <ele>12.4</ele>
        <time>2014-04-29T11:03:32Z</time>
      </trkpt>
      <trkpt lat="41.74042" lon="8.66206">
        <ele>13.2</ele>
        <time>2014-04-29T11:03:43Z</time>
      </trkpt>
      <trkpt lat="41.74035" lon="8.66203">
        <ele>13.4</ele>
        <time>2014-04-29T11:03:49Z</time>
      </trkpt>
      <trkpt lat="41.74026" lon="8.66199">
        <ele>13.4</ele>
        <time>2014-04-29T11:03:58Z</time>
      </trkpt>
      <trkpt lat="41.74019" lon="8.66196">
        <ele>12.2</ele>
        <time>2014-04-29T11:04:09Z</time>
      </trkpt>
      <trkpt lat="41.73999" lon="8.66193">
        <ele>5.5</ele>
        <time>2014-04-29T11:04:33Z</time>
      </trkpt>
      <trkpt lat="41.73993" lon="8.66176">
        <ele>10</ele>
        <time>2014-04-29T11:04:44Z</time>
      </trkpt>
      <trkpt lat="41.73988" lon="8.66166">
        <ele>11</ele>
        <time>2014-04-29T11:04:53Z</time>
      </trkpt>
      <trkpt lat="41.73987" lon="8.66163">
        <ele>11.2</ele>
        <time>2014-04-29T11:05:01Z</time>
      </trkpt>
      <trkpt lat="41.73987" lon="8.66163">
        <ele>11.2</ele>
        <time>2014-04-29T11:05:21Z</time>
      </trkpt>
      <trkpt lat="41.73987" lon="8.66162">
        <ele>11.2</ele>
        <time>2014-04-29T11:05:31Z</time>
      </trkpt>
      <trkpt lat="41.73984" lon="8.66162">
        <ele>10</ele>
        <time>2014-04-29T11:05:37Z</time>
      </trkpt>
      <trkpt lat="41.73983" lon="8.66169">
        <ele>8</ele>
        <time>2014-04-29T11:05:47Z</time>
      </trkpt>
      <trkpt lat="41.73983" lon="8.66174">
        <ele>7.1</ele>
        <time>2014-04-29T11:05:57Z</time>
      </trkpt>
      <trkpt lat="41.73983" lon="8.66174">
        <ele>7.1</ele>
        <time>2014-04-29T11:06:07Z</time>
      </trkpt>
      <trkpt lat="41.73983" lon="8.66174">
        <ele>7.2</ele>
        <time>2014-04-29T11:06:12Z</time>
      </trkpt>
      <trkpt lat="41.73983" lon="8.66159">
        <ele>10.4</ele>
        <time>2014-04-29T11:06:27Z</time>
      </trkpt>
      <trkpt lat="41.73981" lon="8.66151">
        <ele>10.6</ele>
        <time>2014-04-29T11:06:37Z</time>
      </trkpt>
      <trkpt lat="41.73978" lon="8.66147">
        <ele>9.9</ele>
        <time>2014-04-29T11:06:47Z</time>
      </trkpt>
      <trkpt lat="41.73976" lon="8.6614">
        <ele>9.8</ele>
        <time>2014-04-29T11:06:57Z</time>
      </trkpt>
      <trkpt lat="41.73976" lon="8.66139">
        <ele>9.9</ele>
        <time>2014-04-29T11:07:18Z</time>
      </trkpt>
      <trkpt lat="41.73979" lon="8.66115">
        <ele>13.4</ele>
        <time>2014-04-29T11:07:28Z</time>
      </trkpt>
      <trkpt lat="41.73978" lon="8.66114">
        <ele>12.4</ele>
        <time>2014-04-29T11:07:33Z</time>
      </trkpt>
      <trkpt lat="41.73975" lon="8.66106">
        <ele>10.5</ele>
        <time>2014-04-29T11:07:47Z</time>
      </trkpt>
      <trkpt lat="41.73975" lon="8.66087">
        <ele>9</ele>
        <time>2014-04-29T11:08:00Z</time>
      </trkpt>
      <trkpt lat="41.7398" lon="8.66072">
        <ele>11.1</ele>
        <time>2014-04-29T11:08:10Z</time>
      </trkpt>
      <trkpt lat="41.73987" lon="8.6607">
        <ele>11.9</ele>
        <time>2014-04-29T11:08:20Z</time>
      </trkpt>
      <trkpt lat="41.73994" lon="8.66066">
        <ele>11.7</ele>
        <time>2014-04-29T11:08:30Z</time>
      </trkpt>
      <trkpt lat="41.73997" lon="8.66063">
        <ele>10.9</ele>
        <time>2014-04-29T11:08:36Z</time>
      </trkpt>
      <trkpt lat="41.74009" lon="8.66058">
        <ele>9.3</ele>
        <time>2014-04-29T11:08:49Z</time>
      </trkpt>
      <trkpt lat="41.74023" lon="8.66051">
        <ele>7.9</ele>
        <time>2014-04-29T11:09:03Z</time>
      </trkpt>
      <trkpt lat="41.74023" lon="8.6605">
        <ele>7.7</ele>
        <time>2014-04-29T11:09:14Z</time>
      </trkpt>
      <trkpt lat="41.74021" lon="8.6605">
        <ele>7.5</ele>
        <time>2014-04-29T11:09:24Z</time>
      </trkpt>
      <trkpt lat="41.74021" lon="8.66053">
        <ele>8.2</ele>
        <time>2014-04-29T11:09:34Z</time>
      </trkpt>
      <trkpt lat="41.74021" lon="8.66053">
        <ele>8.2</ele>
        <time>2014-04-29T11:09:44Z</time>
      </trkpt>
      <trkpt lat="41.74022" lon="8.6606">
        <ele>10.1</ele>
        <time>2014-04-29T11:09:54Z</time>
      </trkpt>
      <trkpt lat="41.74023" lon="8.66065">
        <ele>12</ele>
        <time>2014-04-29T11:10:04Z</time>
      </trkpt>
      <trkpt lat="41.74023" lon="8.66065">
        <ele>11.8</ele>
        <time>2014-04-29T11:10:14Z</time>
      </trkpt>
      <trkpt lat="41.74026" lon="8.66066">
        <ele>12.2</ele>
        <time>2014-04-29T11:10:24Z</time>
      </trkpt>
      <trkpt lat="41.74026" lon="8.66067">
        <ele>12.5</ele>
        <time>2014-04-29T11:10:35Z</time>
      </trkpt>
      <trkpt lat="41.74028" lon="8.66065">
        <ele>12.1</ele>
        <time>2014-04-29T11:10:45Z</time>
      </trkpt>
      <trkpt lat="41.74029" lon="8.66064">
        <ele>11.8</ele>
        <time>2014-04-29T11:10:55Z</time>
      </trkpt>
      <trkpt lat="41.74029" lon="8.66064">
        <ele>11.7</ele>
        <time>2014-04-29T11:11:05Z</time>
      </trkpt>
      <trkpt lat="41.74029" lon="8.66064">
        <ele>11.7</ele>
        <time>2014-04-29T11:11:16Z</time>
      </trkpt>
      <trkpt lat="41.74029" lon="8.66064">
        <ele>11.7</ele>
        <time>2014-04-29T11:11:26Z</time>
      </trkpt>
      <trkpt lat="41.74029" lon="8.66064">
        <ele>11.7</ele>
        <time>2014-04-29T11:11:36Z</time>
      </trkpt>
      <trkpt lat="41.7403" lon="8.66064">
        <ele>11.6</ele>
        <time>2014-04-29T11:11:46Z</time>
      </trkpt>
      <trkpt lat="41.7403" lon="8.66064">
        <ele>11.6</ele>
        <time>2014-04-29T11:11:56Z</time>
      </trkpt>
      <trkpt lat="41.7403" lon="8.66064">
        <ele>11.6</ele>
        <time>2014-04-29T11:12:06Z</time>
      </trkpt>
      <trkpt lat="41.7403" lon="8.66064">
        <ele>11.6</ele>
        <time>2014-04-29T11:12:17Z</time>
      </trkpt>
      <trkpt lat="41.7403" lon="8.66064">
        <ele>11.6</ele>
        <time>2014-04-29T11:12:27Z</time>
      </trkpt>
      <trkpt lat="41.7403" lon="8.66064">
        <ele>11.6</ele>
        <time>2014-04-29T11:12:37Z</time>
      </trkpt>
      <trkpt lat="41.7403" lon="8.66064">
        <ele>11.6</ele>
        <time>2014-04-29T11:12:47Z</time>
      </trkpt>
      <trkpt lat="41.7403" lon="8.66064">
        <ele>11.6</ele>
        <time>2014-04-29T11:12:57Z</time>
      </trkpt>
      <trkpt lat="41.7403" lon="8.66064">
        <ele>11.7</ele>
        <time>2014-04-29T11:13:07Z</time>
      </trkpt>
      <trkpt lat="41.7403" lon="8.66064">
        <ele>11.7</ele>
        <time>2014-04-29T11:13:17Z</time>
      </trkpt>
      <trkpt lat="41.7403" lon="8.66064">
        <ele>11.7</ele>
        <time>2014-04-29T11:13:28Z</time>
      </trkpt>
      <trkpt lat="41.7403" lon="8.66064">
        <ele>11.7</ele>
        <time>2014-04-29T11:13:38Z</time>
      </trkpt>
      <trkpt lat="41.7403" lon="8.66064">
        <ele>11.7</ele>
        <time>2014-04-29T11:13:48Z</time>
      </trkpt>
      <trkpt lat="41.7403" lon="8.66064">
        <ele>11.7</ele>
        <time>2014-04-29T11:13:58Z</time>
      </trkpt>
      <trkpt lat="41.7403" lon="8.66064">
        <ele>11.7</ele>
        <time>2014-04-29T11:14:08Z</time>
      </trkpt>
      <trkpt lat="41.7403" lon="8.66064">
        <ele>11.7</ele>
        <time>2014-04-29T11:14:18Z</time>
      </trkpt>
      <trkpt lat="41.7403" lon="8.66064">
        <ele>11.7</ele>
        <time>2014-04-29T11:14:28Z</time>
      </trkpt>
      <trkpt lat="41.74029" lon="8.66064">
        <ele>11.7</ele>
        <time>2014-04-29T11:14:38Z</time>
      </trkpt>
      <trkpt lat="41.74029" lon="8.66064">
        <ele>11.7</ele>
        <time>2014-04-29T11:14:49Z</time>
      </trkpt>
      <trkpt lat="41.74029" lon="8.66064">
        <ele>11.7</ele>
        <time>2014-04-29T11:14:59Z</time>
      </trkpt>
      <trkpt lat="41.74029" lon="8.66064">
        <ele>11.7</ele>
        <time>2014-04-29T11:15:09Z</time>
      </trkpt>
      <trkpt lat="41.74029" lon="8.66064">
        <ele>11.7</ele>
        <time>2014-04-29T11:15:19Z</time>
      </trkpt>
      <trkpt lat="41.74029" lon="8.66064">
        <ele>11.7</ele>
        <time>2014-04-29T11:15:29Z</time>
      </trkpt>
      <trkpt lat="41.74029" lon="8.66064">
        <ele>11.7</ele>
        <time>2014-04-29T11:15:39Z</time>
      </trkpt>
      <trkpt lat="41.74029" lon="8.66064">
        <ele>11.7</ele>
        <time>2014-04-29T11:15:50Z</time>
      </trkpt>
      <trkpt lat="41.74029" lon="8.66064">
        <ele>11.7</ele>
        <time>2014-04-29T11:16:00Z</time>
      </trkpt>
      <trkpt lat="41.74029" lon="8.66064">
        <ele>11.7</ele>
        <time>2014-04-29T11:16:10Z</time>
      </trkpt>
      <trkpt lat="41.74029" lon="8.66064">
        <ele>11.7</ele>
        <time>2014-04-29T11:16:20Z</time>
      </trkpt>
      <trkpt lat="41.74029" lon="8.66064">
        <ele>11.7</ele>
        <time>2014-04-29T11:16:31Z</time>
      </trkpt>
      <trkpt lat="41.74029" lon="8.66064">
        <ele>11.7</ele>
        <time>2014-04-29T11:16:41Z</time>
      </trkpt>
      <trkpt lat="41.74029" lon="8.66064">
        <ele>11.7</ele>
        <time>2014-04-29T11:16:51Z</time>
      </trkpt>
      <trkpt lat="41.74029" lon="8.66065">
        <ele>12</ele>
        <time>2014-04-29T11:17:01Z</time>
      </trkpt>
      <trkpt lat="41.74029" lon="8.66066">
        <ele>12.2</ele>
        <time>2014-04-29T11:17:11Z</time>
      </trkpt>
      <trkpt lat="41.74029" lon="8.66066">
        <ele>12.2</ele>
        <time>2014-04-29T11:17:21Z</time>
      </trkpt>
      <trkpt lat="41.74029" lon="8.66066">
        <ele>12.2</ele>
        <time>2014-04-29T11:17:31Z</time>
      </trkpt>
      <trkpt lat="41.74029" lon="8.66066">
        <ele>12.2</ele>
        <time>2014-04-29T11:17:41Z</time>
      </trkpt>
      <trkpt lat="41.74029" lon="8.66066">
        <ele>12.2</ele>
        <time>2014-04-29T11:17:52Z</time>
      </trkpt>
      <trkpt lat="41.74029" lon="8.66066">
        <ele>12.2</ele>
        <time>2014-04-29T11:18:02Z</time>
      </trkpt>
      <trkpt lat="41.74029" lon="8.66066">
        <ele>12.2</ele>
        <time>2014-04-29T11:18:12Z</time>
      </trkpt>
      <trkpt lat="41.74029" lon="8.66066">
        <ele>12.2</ele>
        <time>2014-04-29T11:18:22Z</time>
      </trkpt>
      <trkpt lat="41.74029" lon="8.66066">
        <ele>12.2</ele>
        <time>2014-04-29T11:18:33Z</time>
      </trkpt>
      <trkpt lat="41.74029" lon="8.66066">
        <ele>12.2</ele>
        <time>2014-04-29T11:18:43Z</time>
      </trkpt>
      <trkpt lat="41.74029" lon="8.66066">
        <ele>12.2</ele>
        <time>2014-04-29T11:18:53Z</time>
      </trkpt>
      <trkpt lat="41.74029" lon="8.66066">
        <ele>12.2</ele>
        <time>2014-04-29T11:19:03Z</time>
      </trkpt>
      <trkpt lat="41.74029" lon="8.66066">
        <ele>12.2</ele>
        <time>2014-04-29T11:19:13Z</time>
      </trkpt>
      <trkpt lat="41.74029" lon="8.66066">
        <ele>12.2</ele>
        <time>2014-04-29T11:19:23Z</time>
      </trkpt>
      <trkpt lat="41.74029" lon="8.66066">
        <ele>12.2</ele>
        <time>2014-04-29T11:19:33Z</time>
      </trkpt>
      <trkpt lat="41.74029" lon="8.66066">
        <ele>12.2</ele>
        <time>2014-04-29T11:19:43Z</time>
      </trkpt>
      <trkpt lat="41.74029" lon="8.66066">
        <ele>12.2</ele>
        <time>2014-04-29T11:19:53Z</time>
      </trkpt>
      <trkpt lat="41.74029" lon="8.66066">
        <ele>12.2</ele>
        <time>2014-04-29T11:20:04Z</time>
      </trkpt>
      <trkpt lat="41.74029" lon="8.66066">
        <ele>12.2</ele>
        <time>2014-04-29T11:20:14Z</time>
      </trkpt>
      <trkpt lat="41.74029" lon="8.66066">
        <ele>12.2</ele>
        <time>2014-04-29T11:20:24Z</time>
      </trkpt>
      <trkpt lat="41.74029" lon="8.66066">
        <ele>12.2</ele>
        <time>2014-04-29T11:20:35Z</time>
      </trkpt>
      <trkpt lat="41.74029" lon="8.66066">
        <ele>12.2</ele>
        <time>2014-04-29T11:20:45Z</time>
      </trkpt>
      <trkpt lat="41.74029" lon="8.66066">
        <ele>12.2</ele>
        <time>2014-04-29T11:20:55Z</time>
      </trkpt>
      <trkpt lat="41.74029" lon="8.66066">
        <ele>12.2</ele>
        <time>2014-04-29T11:21:05Z</time>
      </trkpt>
      <trkpt lat="41.74029" lon="8.66066">
        <ele>12.2</ele>
        <time>2014-04-29T11:21:15Z</time>
      </trkpt>
      <trkpt lat="41.74029" lon="8.66066">
        <ele>12.2</ele>
        <time>2014-04-29T11:21:26Z</time>
      </trkpt>
      <trkpt lat="41.74029" lon="8.66066">
        <ele>12.2</ele>
        <time>2014-04-29T11:21:36Z</time>
      </trkpt>
      <trkpt lat="41.74029" lon="8.66066">
        <ele>12.2</ele>
        <time>2014-04-29T11:21:46Z</time>
      </trkpt>
      <trkpt lat="41.74029" lon="8.66066">
        <ele>12.2</ele>
        <time>2014-04-29T11:21:56Z</time>
      </trkpt>
      <trkpt lat="41.74029" lon="8.66065">
        <ele>12</ele>
        <time>2014-04-29T11:22:04Z</time>
      </trkpt>
      <trkpt lat="41.74028" lon="8.66062">
        <ele>11</ele>
        <time>2014-04-29T11:22:21Z</time>
      </trkpt>
      <trkpt lat="41.74018" lon="8.66067">
        <ele>12.4</ele>
        <time>2014-04-29T11:22:32Z</time>
      </trkpt>
      <trkpt lat="41.74014" lon="8.66076">
        <ele>15.6</ele>
        <time>2014-04-29T11:22:43Z</time>
      </trkpt>
      <trkpt lat="41.74014" lon="8.66076">
        <ele>15.6</ele>
        <time>2014-04-29T11:22:53Z</time>
      </trkpt>
      <trkpt lat="41.74014" lon="8.66076">
        <ele>15.6</ele>
        <time>2014-04-29T11:23:03Z</time>
      </trkpt>
      <trkpt lat="41.74014" lon="8.66076">
        <ele>15.6</ele>
        <time>2014-04-29T11:23:13Z</time>
      </trkpt>
      <trkpt lat="41.74014" lon="8.66076">
        <ele>15.6</ele>
        <time>2014-04-29T11:23:24Z</time>
      </trkpt>
      <trkpt lat="41.74014" lon="8.66076">
        <ele>15.6</ele>
        <time>2014-04-29T11:23:34Z</time>
      </trkpt>
      <trkpt lat="41.74014" lon="8.66076">
        <ele>15.6</ele>
        <time>2014-04-29T11:23:44Z</time>
      </trkpt>
      <trkpt lat="41.74014" lon="8.66076">
        <ele>15.6</ele>
        <time>2014-04-29T11:23:54Z</time>
      </trkpt>
      <trkpt lat="41.74014" lon="8.66076">
        <ele>15.6</ele>
        <time>2014-04-29T11:24:04Z</time>
      </trkpt>
      <trkpt lat="41.74014" lon="8.66076">
        <ele>15.6</ele>
        <time>2014-04-29T11:24:14Z</time>
      </trkpt>
      <trkpt lat="41.74014" lon="8.66076">
        <ele>15.6</ele>
        <time>2014-04-29T11:24:25Z</time>
      </trkpt>
      <trkpt lat="41.74014" lon="8.66076">
        <ele>15.6</ele>
        <time>2014-04-29T11:24:35Z</time>
      </trkpt>
      <trkpt lat="41.74014" lon="8.66076">
        <ele>15.6</ele>
        <time>2014-04-29T11:24:45Z</time>
      </trkpt>
      <trkpt lat="41.74014" lon="8.66076">
        <ele>15.6</ele>
        <time>2014-04-29T11:24:55Z</time>
      </trkpt>
      <trkpt lat="41.74014" lon="8.66076">
        <ele>15.6</ele>
        <time>2014-04-29T11:25:05Z</time>
      </trkpt>
      <trkpt lat="41.74014" lon="8.66076">
        <ele>15.6</ele>
        <time>2014-04-29T11:25:15Z</time>
      </trkpt>
      <trkpt lat="41.74014" lon="8.66076">
        <ele>15.6</ele>
        <time>2014-04-29T11:25:26Z</time>
      </trkpt>
      <trkpt lat="41.74014" lon="8.66076">
        <ele>15.6</ele>
        <time>2014-04-29T11:25:36Z</time>
      </trkpt>
      <trkpt lat="41.74014" lon="8.66076">
        <ele>15.6</ele>
        <time>2014-04-29T11:25:46Z</time>
      </trkpt>
      <trkpt lat="41.74014" lon="8.66076">
        <ele>15.6</ele>
        <time>2014-04-29T11:25:56Z</time>
      </trkpt>
      <trkpt lat="41.74014" lon="8.66076">
        <ele>15.6</ele>
        <time>2014-04-29T11:26:06Z</time>
      </trkpt>
      <trkpt lat="41.74014" lon="8.66076">
        <ele>15.6</ele>
        <time>2014-04-29T11:26:16Z</time>
      </trkpt>
      <trkpt lat="41.74014" lon="8.66076">
        <ele>15.6</ele>
        <time>2014-04-29T11:26:26Z</time>
      </trkpt>
      <trkpt lat="41.74014" lon="8.66076">
        <ele>15.6</ele>
        <time>2014-04-29T11:26:37Z</time>
      </trkpt>
      <trkpt lat="41.74014" lon="8.66076">
        <ele>15.6</ele>
        <time>2014-04-29T11:26:47Z</time>
      </trkpt>
      <trkpt lat="41.74014" lon="8.66076">
        <ele>15.6</ele>
        <time>2014-04-29T11:26:57Z</time>
      </trkpt>
      <trkpt lat="41.74015" lon="8.66076">
        <ele>15.6</ele>
        <time>2014-04-29T11:27:07Z</time>
      </trkpt>
      <trkpt lat="41.74015" lon="8.66075">
        <ele>15.3</ele>
        <time>2014-04-29T11:27:17Z</time>
      </trkpt>
      <trkpt lat="41.74015" lon="8.66075">
        <ele>15.2</ele>
        <time>2014-04-29T11:27:27Z</time>
      </trkpt>
      <trkpt lat="41.74015" lon="8.66075">
        <ele>15.2</ele>
        <time>2014-04-29T11:27:38Z</time>
      </trkpt>
      <trkpt lat="41.74015" lon="8.66075">
        <ele>15.2</ele>
        <time>2014-04-29T11:27:48Z</time>
      </trkpt>
      <trkpt lat="41.74015" lon="8.66075">
        <ele>15.2</ele>
        <time>2014-04-29T11:27:58Z</time>
      </trkpt>
      <trkpt lat="41.74015" lon="8.66075">
        <ele>15.2</ele>
        <time>2014-04-29T11:28:08Z</time>
      </trkpt>
      <trkpt lat="41.74015" lon="8.66076">
        <ele>15.5</ele>
        <time>2014-04-29T11:28:18Z</time>
      </trkpt>
      <trkpt lat="41.74015" lon="8.66076">
        <ele>15.6</ele>
        <time>2014-04-29T11:28:28Z</time>
      </trkpt>
      <trkpt lat="41.74015" lon="8.66076">
        <ele>15.6</ele>
        <time>2014-04-29T11:28:39Z</time>
      </trkpt>
      <trkpt lat="41.74015" lon="8.66076">
        <ele>15.6</ele>
        <time>2014-04-29T11:28:49Z</time>
      </trkpt>
      <trkpt lat="41.74015" lon="8.66076">
        <ele>15.6</ele>
        <time>2014-04-29T11:28:59Z</time>
      </trkpt>
      <trkpt lat="41.74015" lon="8.66076">
        <ele>15.6</ele>
        <time>2014-04-29T11:29:09Z</time>
      </trkpt>
      <trkpt lat="41.74015" lon="8.66076">
        <ele>15.6</ele>
        <time>2014-04-29T11:29:20Z</time>
      </trkpt>
      <trkpt lat="41.74015" lon="8.66076">
        <ele>15.6</ele>
        <time>2014-04-29T11:29:30Z</time>
      </trkpt>
      <trkpt lat="41.74015" lon="8.66076">
        <ele>15.6</ele>
        <time>2014-04-29T11:29:40Z</time>
      </trkpt>
      <trkpt lat="41.74015" lon="8.66076">
        <ele>15.6</ele>
        <time>2014-04-29T11:29:50Z</time>
      </trkpt>
      <trkpt lat="41.74015" lon="8.66076">
        <ele>15.6</ele>
        <time>2014-04-29T11:30:00Z</time>
      </trkpt>
      <trkpt lat="41.74015" lon="8.66076">
        <ele>15.6</ele>
        <time>2014-04-29T11:30:10Z</time>
      </trkpt>
      <trkpt lat="41.74015" lon="8.66076">
        <ele>15.6</ele>
        <time>2014-04-29T11:30:20Z</time>
      </trkpt>
      <trkpt lat="41.74015" lon="8.66076">
        <ele>15.6</ele>
        <time>2014-04-29T11:30:31Z</time>
      </trkpt>
      <trkpt lat="41.74015" lon="8.66076">
        <ele>15.6</ele>
        <time>2014-04-29T11:30:41Z</time>
      </trkpt>
      <trkpt lat="41.74015" lon="8.66076">
        <ele>15.6</ele>
        <time>2014-04-29T11:30:51Z</time>
      </trkpt>
      <trkpt lat="41.74015" lon="8.66075">
        <ele>15.2</ele>
        <time>2014-04-29T11:31:01Z</time>
      </trkpt>
      <trkpt lat="41.74015" lon="8.66075">
        <ele>15.2</ele>
        <time>2014-04-29T11:31:11Z</time>
      </trkpt>
      <trkpt lat="41.74015" lon="8.66075">
        <ele>15.2</ele>
        <time>2014-04-29T11:31:21Z</time>
      </trkpt>
      <trkpt lat="41.74015" lon="8.66075">
        <ele>15.2</ele>
        <time>2014-04-29T11:31:31Z</time>
      </trkpt>
      <trkpt lat="41.74015" lon="8.66075">
        <ele>15.2</ele>
        <time>2014-04-29T11:31:41Z</time>
      </trkpt>
      <trkpt lat="41.74015" lon="8.66075">
        <ele>15.2</ele>
        <time>2014-04-29T11:31:51Z</time>
      </trkpt>
      <trkpt lat="41.74015" lon="8.66075">
        <ele>15.2</ele>
        <time>2014-04-29T11:32:02Z</time>
      </trkpt>
      <trkpt lat="41.74015" lon="8.66075">
        <ele>15.2</ele>
        <time>2014-04-29T11:32:12Z</time>
      </trkpt>
      <trkpt lat="41.74015" lon="8.66075">
        <ele>15.2</ele>
        <time>2014-04-29T11:32:18Z</time>
      </trkpt>
      <trkpt lat="41.74016" lon="8.66078">
        <ele>16</ele>
        <time>2014-04-29T11:32:32Z</time>
      </trkpt>
      <trkpt lat="41.74016" lon="8.66078">
        <ele>16</ele>
        <time>2014-04-29T11:32:42Z</time>
      </trkpt>
      <trkpt lat="41.74016" lon="8.66078">
        <ele>16</ele>
        <time>2014-04-29T11:32:52Z</time>
      </trkpt>
      <trkpt lat="41.74016" lon="8.66078">
        <ele>16</ele>
        <time>2014-04-29T11:33:02Z</time>
      </trkpt>
      <trkpt lat="41.74016" lon="8.66078">
        <ele>16</ele>
        <time>2014-04-29T11:33:12Z</time>
      </trkpt>
      <trkpt lat="41.74016" lon="8.66078">
        <ele>16</ele>
        <time>2014-04-29T11:33:22Z</time>
      </trkpt>
      <trkpt lat="41.74016" lon="8.66078">
        <ele>16</ele>
        <time>2014-04-29T11:33:32Z</time>
      </trkpt>
      <trkpt lat="41.74016" lon="8.66078">
        <ele>16.3</ele>
        <time>2014-04-29T11:33:47Z</time>
      </trkpt>
      <trkpt lat="41.74017" lon="8.6608">
        <ele>16.8</ele>
        <time>2014-04-29T11:33:57Z</time>
      </trkpt>
      <trkpt lat="41.74018" lon="8.6608">
        <ele>16.7</ele>
        <time>2014-04-29T11:34:07Z</time>
      </trkpt>
      <trkpt lat="41.74018" lon="8.66079">
        <ele>16.5</ele>
        <time>2014-04-29T11:34:17Z</time>
      </trkpt>
      <trkpt lat="41.74018" lon="8.66079">
        <ele>16.5</ele>
        <time>2014-04-29T11:34:28Z</time>
      </trkpt>
      <trkpt lat="41.74018" lon="8.66079">
        <ele>16.5</ele>
        <time>2014-04-29T11:34:38Z</time>
      </trkpt>
      <trkpt lat="41.74018" lon="8.66079">
        <ele>16.5</ele>
        <time>2014-04-29T11:34:48Z</time>
      </trkpt>
      <trkpt lat="41.74018" lon="8.66079">
        <ele>16.5</ele>
        <time>2014-04-29T11:34:58Z</time>
      </trkpt>
      <trkpt lat="41.74018" lon="8.66079">
        <ele>16.5</ele>
        <time>2014-04-29T11:35:08Z</time>
      </trkpt>
      <trkpt lat="41.74018" lon="8.66079">
        <ele>16.5</ele>
        <time>2014-04-29T11:35:18Z</time>
      </trkpt>
      <trkpt lat="41.74019" lon="8.66079">
        <ele>16.4</ele>
        <time>2014-04-29T11:35:28Z</time>
      </trkpt>
      <trkpt lat="41.74019" lon="8.66079">
        <ele>16.4</ele>
        <time>2014-04-29T11:35:39Z</time>
      </trkpt>
      <trkpt lat="41.74019" lon="8.66077">
        <ele>15.8</ele>
        <time>2014-04-29T11:35:49Z</time>
      </trkpt>
      <trkpt lat="41.74019" lon="8.66077">
        <ele>15.9</ele>
        <time>2014-04-29T11:35:59Z</time>
      </trkpt>
      <trkpt lat="41.7402" lon="8.66077">
        <ele>15.9</ele>
        <time>2014-04-29T11:36:09Z</time>
      </trkpt>
      <trkpt lat="41.7402" lon="8.66077">
        <ele>16</ele>
        <time>2014-04-29T11:36:20Z</time>
      </trkpt>
      <trkpt lat="41.7402" lon="8.66078">
        <ele>16</ele>
        <time>2014-04-29T11:36:30Z</time>
      </trkpt>
      <trkpt lat="41.74019" lon="8.66078">
        <ele>16</ele>
        <time>2014-04-29T11:36:40Z</time>
      </trkpt>
      <trkpt lat="41.74019" lon="8.66078">
        <ele>16.1</ele>
        <time>2014-04-29T11:36:50Z</time>
      </trkpt>
      <trkpt lat="41.74019" lon="8.66078">
        <ele>16.1</ele>
        <time>2014-04-29T11:37:00Z</time>
      </trkpt>
      <trkpt lat="41.7402" lon="8.66078">
        <ele>16.2</ele>
        <time>2014-04-29T11:37:10Z</time>
      </trkpt>
      <trkpt lat="41.74022" lon="8.66079">
        <ele>16.5</ele>
        <time>2014-04-29T11:37:21Z</time>
      </trkpt>
      <trkpt lat="41.74024" lon="8.66078">
        <ele>16.2</ele>
        <time>2014-04-29T11:37:31Z</time>
      </trkpt>
      <trkpt lat="41.74025" lon="8.66077">
        <ele>16</ele>
        <time>2014-04-29T11:37:41Z</time>
      </trkpt>
      <trkpt lat="41.74024" lon="8.66077">
        <ele>16</ele>
        <time>2014-04-29T11:37:51Z</time>
      </trkpt>
      <trkpt lat="41.74023" lon="8.66078">
        <ele>16.1</ele>
        <time>2014-04-29T11:38:01Z</time>
      </trkpt>
      <trkpt lat="41.74023" lon="8.66078">
        <ele>16.1</ele>
        <time>2014-04-29T11:38:11Z</time>
      </trkpt>
      <trkpt lat="41.74022" lon="8.66078">
        <ele>16.1</ele>
        <time>2014-04-29T11:38:21Z</time>
      </trkpt>
      <trkpt lat="41.74022" lon="8.66078">
        <ele>16.1</ele>
        <time>2014-04-29T11:38:32Z</time>
      </trkpt>
      <trkpt lat="41.74022" lon="8.66078">
        <ele>16.1</ele>
        <time>2014-04-29T11:38:42Z</time>
      </trkpt>
      <trkpt lat="41.74022" lon="8.66078">
        <ele>16.1</ele>
        <time>2014-04-29T11:38:52Z</time>
      </trkpt>
      <trkpt lat="41.74021" lon="8.66078">
        <ele>16.1</ele>
        <time>2014-04-29T11:39:02Z</time>
      </trkpt>
      <trkpt lat="41.74021" lon="8.66078">
        <ele>16.1</ele>
        <time>2014-04-29T11:39:12Z</time>
      </trkpt>
      <trkpt lat="41.74021" lon="8.66082">
        <ele>17.4</ele>
        <time>2014-04-29T11:39:22Z</time>
      </trkpt>
      <trkpt lat="41.74022" lon="8.66082">
        <ele>17.6</ele>
        <time>2014-04-29T11:39:32Z</time>
      </trkpt>
      <trkpt lat="41.74022" lon="8.66082">
        <ele>17.6</ele>
        <time>2014-04-29T11:39:43Z</time>
      </trkpt>
      <trkpt lat="41.74022" lon="8.66082">
        <ele>17.6</ele>
        <time>2014-04-29T11:39:53Z</time>
      </trkpt>
      <trkpt lat="41.74022" lon="8.66082">
        <ele>17.6</ele>
        <time>2014-04-29T11:40:03Z</time>
      </trkpt>
      <trkpt lat="41.74022" lon="8.66082">
        <ele>17.6</ele>
        <time>2014-04-29T11:40:13Z</time>
      </trkpt>
      <trkpt lat="41.74022" lon="8.66085">
        <ele>18.8</ele>
        <time>2014-04-29T11:40:23Z</time>
      </trkpt>
      <trkpt lat="41.74022" lon="8.66085">
        <ele>18.9</ele>
        <time>2014-04-29T11:40:34Z</time>
      </trkpt>
      <trkpt lat="41.74022" lon="8.66085">
        <ele>18.9</ele>
        <time>2014-04-29T11:40:44Z</time>
      </trkpt>
      <trkpt lat="41.74022" lon="8.66085">
        <ele>18.9</ele>
        <time>2014-04-29T11:40:54Z</time>
      </trkpt>
      <trkpt lat="41.74022" lon="8.66084">
        <ele>18.4</ele>
        <time>2014-04-29T11:41:04Z</time>
      </trkpt>
      <trkpt lat="41.74023" lon="8.66083">
        <ele>17.9</ele>
        <time>2014-04-29T11:41:14Z</time>
      </trkpt>
      <trkpt lat="41.74023" lon="8.66083">
        <ele>17.9</ele>
        <time>2014-04-29T11:41:25Z</time>
      </trkpt>
      <trkpt lat="41.74023" lon="8.66083">
        <ele>17.9</ele>
        <time>2014-04-29T11:41:35Z</time>
      </trkpt>
      <trkpt lat="41.74023" lon="8.66084">
        <ele>18.4</ele>
        <time>2014-04-29T11:41:45Z</time>
      </trkpt>
      <trkpt lat="41.74022" lon="8.66081">
        <ele>17.3</ele>
        <time>2014-04-29T11:41:55Z</time>
      </trkpt>
      <trkpt lat="41.74022" lon="8.66074">
        <ele>14.9</ele>
        <time>2014-04-29T11:42:05Z</time>
      </trkpt>
      <trkpt lat="41.74015" lon="8.66067">
        <ele>12.5</ele>
        <time>2014-04-29T11:42:15Z</time>
      </trkpt>
      <trkpt lat="41.74019" lon="8.66057">
        <ele>9.3</ele>
        <time>2014-04-29T11:42:26Z</time>
      </trkpt>
      <trkpt lat="41.74019" lon="8.66055">
        <ele>8.6</ele>
        <time>2014-04-29T11:42:36Z</time>
      </trkpt>
      <trkpt lat="41.74023" lon="8.66049">
        <ele>7.3</ele>
        <time>2014-04-29T11:42:46Z</time>
      </trkpt>
      <trkpt lat="41.74023" lon="8.66044">
        <ele>6.3</ele>
        <time>2014-04-29T11:42:56Z</time>
      </trkpt>
      <trkpt lat="41.74023" lon="8.66044">
        <ele>6.3</ele>
        <time>2014-04-29T11:43:05Z</time>
      </trkpt>
      <trkpt lat="41.74025" lon="8.66042">
        <ele>6</ele>
        <time>2014-04-29T11:43:18Z</time>
      </trkpt>
      <trkpt lat="41.74025" lon="8.66042">
        <ele>5.9</ele>
        <time>2014-04-29T11:43:27Z</time>
      </trkpt>
      <trkpt lat="41.74026" lon="8.6603">
        <ele>3.3</ele>
        <time>2014-04-29T11:43:37Z</time>
      </trkpt>
      <trkpt lat="41.74028" lon="8.66021">
        <ele>2.7</ele>
        <time>2014-04-29T11:43:47Z</time>
      </trkpt>
      <trkpt lat="41.74021" lon="8.6602">
        <ele>2.6</ele>
        <time>2014-04-29T11:43:59Z</time>
      </trkpt>
      <trkpt lat="41.74018" lon="8.6602">
        <ele>2.5</ele>
        <time>2014-04-29T11:44:10Z</time>
      </trkpt>
      <trkpt lat="41.7402" lon="8.66021">
        <ele>2.5</ele>
        <time>2014-04-29T11:44:20Z</time>
      </trkpt>
      <trkpt lat="41.74022" lon="8.66018">
        <ele>2.5</ele>
        <time>2014-04-29T11:44:30Z</time>
      </trkpt>
      <trkpt lat="41.74022" lon="8.66018">
        <ele>2.5</ele>
        <time>2014-04-29T11:44:44Z</time>
      </trkpt>
      <trkpt lat="41.74028" lon="8.6601">
        <ele>2.4</ele>
        <time>2014-04-29T11:44:55Z</time>
      </trkpt>
      <trkpt lat="41.74033" lon="8.66005">
        <ele>3.1</ele>
        <time>2014-04-29T11:45:05Z</time>
      </trkpt>
      <trkpt lat="41.74035" lon="8.66006">
        <ele>3.5</ele>
        <time>2014-04-29T11:45:15Z</time>
      </trkpt>
      <trkpt lat="41.74034" lon="8.66005">
        <ele>3.3</ele>
        <time>2014-04-29T11:45:25Z</time>
      </trkpt>
      <trkpt lat="41.74034" lon="8.66007">
        <ele>3.3</ele>
        <time>2014-04-29T11:45:33Z</time>
      </trkpt>
      <trkpt lat="41.74039" lon="8.66009">
        <ele>4.3</ele>
        <time>2014-04-29T11:45:57Z</time>
      </trkpt>
      <trkpt lat="41.74039" lon="8.66009">
        <ele>4.3</ele>
        <time>2014-04-29T11:46:07Z</time>
      </trkpt>
      <trkpt lat="41.74039" lon="8.66009">
        <ele>4.3</ele>
        <time>2014-04-29T11:46:17Z</time>
      </trkpt>
      <trkpt lat="41.74039" lon="8.66009">
        <ele>4.3</ele>
        <time>2014-04-29T11:46:27Z</time>
      </trkpt>
      <trkpt lat="41.74039" lon="8.66009">
        <ele>4.3</ele>
        <time>2014-04-29T11:46:38Z</time>
      </trkpt>
      <trkpt lat="41.74039" lon="8.66009">
        <ele>4.3</ele>
        <time>2014-04-29T11:46:48Z</time>
      </trkpt>
      <trkpt lat="41.74039" lon="8.66008">
        <ele>4.2</ele>
        <time>2014-04-29T11:46:58Z</time>
      </trkpt>
      <trkpt lat="41.74031" lon="8.66004">
        <ele>2.7</ele>
        <time>2014-04-29T11:47:08Z</time>
      </trkpt>
      <trkpt lat="41.74031" lon="8.66003">
        <ele>2.7</ele>
        <time>2014-04-29T11:47:19Z</time>
      </trkpt>
      <trkpt lat="41.74031" lon="8.66003">
        <ele>2.7</ele>
        <time>2014-04-29T11:47:29Z</time>
      </trkpt>
      <trkpt lat="41.74031" lon="8.66003">
        <ele>2.7</ele>
        <time>2014-04-29T11:47:39Z</time>
      </trkpt>
      <trkpt lat="41.74031" lon="8.66003">
        <ele>2.7</ele>
        <time>2014-04-29T11:47:49Z</time>
      </trkpt>
      <trkpt lat="41.74031" lon="8.66002">
        <ele>2.7</ele>
        <time>2014-04-29T11:47:59Z</time>
      </trkpt>
      <trkpt lat="41.74028" lon="8.65996">
        <ele>2.6</ele>
        <time>2014-04-29T11:48:10Z</time>
      </trkpt>
      <trkpt lat="41.74028" lon="8.65996">
        <ele>2.6</ele>
        <time>2014-04-29T11:48:20Z</time>
      </trkpt>
      <trkpt lat="41.74025" lon="8.65991">
        <ele>3.2</ele>
        <time>2014-04-29T11:48:30Z</time>
      </trkpt>
      <trkpt lat="41.74024" lon="8.6599">
        <ele>3.4</ele>
        <time>2014-04-29T11:48:40Z</time>
      </trkpt>
      <trkpt lat="41.74024" lon="8.6599">
        <ele>3.5</ele>
        <time>2014-04-29T11:48:50Z</time>
      </trkpt>
      <trkpt lat="41.74024" lon="8.6599">
        <ele>3.5</ele>
        <time>2014-04-29T11:49:01Z</time>
      </trkpt>
      <trkpt lat="41.74024" lon="8.6599">
        <ele>3.5</ele>
        <time>2014-04-29T11:49:11Z</time>
      </trkpt>
      <trkpt lat="41.74024" lon="8.6599">
        <ele>3.5</ele>
        <time>2014-04-29T11:49:12Z</time>
      </trkpt>
      <trkpt lat="41.74025" lon="8.65988">
        <ele>3.7</ele>
        <time>2014-04-29T11:49:22Z</time>
      </trkpt>
      <trkpt lat="41.74024" lon="8.65985">
        <ele>4.2</ele>
        <time>2014-04-29T11:49:36Z</time>
      </trkpt>
      <trkpt lat="41.74022" lon="8.65983">
        <ele>4.5</ele>
        <time>2014-04-29T11:49:47Z</time>
      </trkpt>
      <trkpt lat="41.74021" lon="8.65982">
        <ele>4.5</ele>
        <time>2014-04-29T11:49:54Z</time>
      </trkpt>
      <trkpt lat="41.74021" lon="8.65981">
        <ele>4.7</ele>
        <time>2014-04-29T11:50:11Z</time>
      </trkpt>
      <trkpt lat="41.74021" lon="8.6598">
        <ele>4.9</ele>
        <time>2014-04-29T11:50:21Z</time>
      </trkpt>
      <trkpt lat="41.74021" lon="8.6598">
        <ele>4.8</ele>
        <time>2014-04-29T11:50:31Z</time>
      </trkpt>
      <trkpt lat="41.7402" lon="8.6598">
        <ele>4.9</ele>
        <time>2014-04-29T11:50:39Z</time>
      </trkpt>
      <trkpt lat="41.7402" lon="8.6598">
        <ele>4.9</ele>
        <time>2014-04-29T11:50:43Z</time>
      </trkpt>
      <trkpt lat="41.74019" lon="8.6598">
        <ele>5</ele>
        <time>2014-04-29T11:50:54Z</time>
      </trkpt>
      <trkpt lat="41.74021" lon="8.65979">
        <ele>5</ele>
        <time>2014-04-29T11:51:07Z</time>
      </trkpt>
      <trkpt lat="41.74022" lon="8.65981">
        <ele>4.7</ele>
        <time>2014-04-29T11:51:17Z</time>
      </trkpt>
      <trkpt lat="41.74022" lon="8.65981">
        <ele>4.7</ele>
        <time>2014-04-29T11:51:27Z</time>
      </trkpt>
      <trkpt lat="41.74022" lon="8.65984">
        <ele>4.3</ele>
        <time>2014-04-29T11:51:38Z</time>
      </trkpt>
      <trkpt lat="41.74024" lon="8.65987">
        <ele>3.9</ele>
        <time>2014-04-29T11:51:48Z</time>
      </trkpt>
      <trkpt lat="41.74024" lon="8.65987">
        <ele>3.9</ele>
        <time>2014-04-29T11:51:58Z</time>
      </trkpt>
      <trkpt lat="41.74024" lon="8.65987">
        <ele>3.9</ele>
        <time>2014-04-29T11:52:08Z</time>
      </trkpt>
      <trkpt lat="41.74024" lon="8.65987">
        <ele>3.9</ele>
        <time>2014-04-29T11:52:19Z</time>
      </trkpt>
      <trkpt lat="41.74024" lon="8.65987">
        <ele>3.9</ele>
        <time>2014-04-29T11:52:29Z</time>
      </trkpt>
      <trkpt lat="41.74024" lon="8.65987">
        <ele>3.9</ele>
        <time>2014-04-29T11:52:39Z</time>
      </trkpt>
      <trkpt lat="41.74024" lon="8.65987">
        <ele>3.9</ele>
        <time>2014-04-29T11:52:49Z</time>
      </trkpt>
      <trkpt lat="41.74024" lon="8.65987">
        <ele>3.9</ele>
        <time>2014-04-29T11:53:00Z</time>
      </trkpt>
      <trkpt lat="41.74024" lon="8.65987">
        <ele>3.9</ele>
        <time>2014-04-29T11:53:10Z</time>
      </trkpt>
      <trkpt lat="41.74024" lon="8.65987">
        <ele>3.9</ele>
        <time>2014-04-29T11:53:20Z</time>
      </trkpt>
      <trkpt lat="41.74023" lon="8.65988">
        <ele>3.8</ele>
        <time>2014-04-29T11:53:30Z</time>
      </trkpt>
      <trkpt lat="41.74023" lon="8.65988">
        <ele>3.8</ele>
        <time>2014-04-29T11:53:40Z</time>
      </trkpt>
      <trkpt lat="41.74023" lon="8.65988">
        <ele>3.8</ele>
        <time>2014-04-29T11:53:51Z</time>
      </trkpt>
      <trkpt lat="41.74023" lon="8.65988">
        <ele>3.8</ele>
        <time>2014-04-29T11:54:01Z</time>
      </trkpt>
      <trkpt lat="41.74023" lon="8.65988">
        <ele>3.8</ele>
        <time>2014-04-29T11:54:11Z</time>
      </trkpt>
      <trkpt lat="41.74023" lon="8.65988">
        <ele>3.8</ele>
        <time>2014-04-29T11:54:21Z</time>
      </trkpt>
      <trkpt lat="41.74023" lon="8.65988">
        <ele>3.8</ele>
        <time>2014-04-29T11:54:32Z</time>
      </trkpt>
      <trkpt lat="41.74023" lon="8.65988">
        <ele>3.8</ele>
        <time>2014-04-29T11:54:42Z</time>
      </trkpt>
      <trkpt lat="41.74023" lon="8.65988">
        <ele>3.8</ele>
        <time>2014-04-29T11:54:52Z</time>
      </trkpt>
      <trkpt lat="41.74023" lon="8.65988">
        <ele>3.8</ele>
        <time>2014-04-29T11:55:02Z</time>
      </trkpt>
      <trkpt lat="41.74023" lon="8.65988">
        <ele>3.8</ele>
        <time>2014-04-29T11:55:12Z</time>
      </trkpt>
      <trkpt lat="41.74023" lon="8.65988">
        <ele>3.8</ele>
        <time>2014-04-29T11:55:22Z</time>
      </trkpt>
      <trkpt lat="41.74023" lon="8.65988">
        <ele>3.8</ele>
        <time>2014-04-29T11:55:32Z</time>
      </trkpt>
      <trkpt lat="41.74023" lon="8.65988">
        <ele>3.8</ele>
        <time>2014-04-29T11:55:43Z</time>
      </trkpt>
      <trkpt lat="41.74023" lon="8.65988">
        <ele>3.8</ele>
        <time>2014-04-29T11:55:53Z</time>
      </trkpt>
      <trkpt lat="41.74023" lon="8.65988">
        <ele>3.8</ele>
        <time>2014-04-29T11:56:03Z</time>
      </trkpt>
      <trkpt lat="41.74023" lon="8.65988">
        <ele>3.8</ele>
        <time>2014-04-29T11:56:13Z</time>
      </trkpt>
      <trkpt lat="41.74022" lon="8.65988">
        <ele>3.8</ele>
        <time>2014-04-29T11:56:24Z</time>
      </trkpt>
      <trkpt lat="41.74022" lon="8.65988">
        <ele>3.8</ele>
        <time>2014-04-29T11:56:33Z</time>
      </trkpt>
      <trkpt lat="41.74021" lon="8.65988">
        <ele>3.7</ele>
        <time>2014-04-29T11:56:48Z</time>
      </trkpt>
      <trkpt lat="41.74021" lon="8.65988">
        <ele>3.7</ele>
        <time>2014-04-29T11:56:58Z</time>
      </trkpt>
      <trkpt lat="41.74021" lon="8.65989">
        <ele>3.7</ele>
        <time>2014-04-29T11:57:14Z</time>
      </trkpt>
      <trkpt lat="41.7402" lon="8.65988">
        <ele>3.8</ele>
        <time>2014-04-29T11:57:24Z</time>
      </trkpt>
      <trkpt lat="41.7402" lon="8.65988">
        <ele>3.8</ele>
        <time>2014-04-29T11:57:35Z</time>
      </trkpt>
      <trkpt lat="41.7402" lon="8.65988">
        <ele>3.8</ele>
        <time>2014-04-29T11:57:45Z</time>
      </trkpt>
      <trkpt lat="41.7402" lon="8.65988">
        <ele>3.8</ele>
        <time>2014-04-29T11:57:55Z</time>
      </trkpt>
      <trkpt lat="41.7402" lon="8.65988">
        <ele>3.8</ele>
        <time>2014-04-29T11:58:05Z</time>
      </trkpt>
      <trkpt lat="41.7402" lon="8.65988">
        <ele>3.8</ele>
        <time>2014-04-29T11:58:16Z</time>
      </trkpt>
      <trkpt lat="41.7402" lon="8.65988">
        <ele>3.8</ele>
        <time>2014-04-29T11:58:26Z</time>
      </trkpt>
      <trkpt lat="41.7402" lon="8.65988">
        <ele>3.8</ele>
        <time>2014-04-29T11:58:36Z</time>
      </trkpt>
      <trkpt lat="41.7402" lon="8.65988">
        <ele>3.8</ele>
        <time>2014-04-29T11:58:46Z</time>
      </trkpt>
      <trkpt lat="41.7402" lon="8.65988">
        <ele>3.8</ele>
        <time>2014-04-29T11:58:56Z</time>
      </trkpt>
      <trkpt lat="41.7402" lon="8.65988">
        <ele>3.8</ele>
        <time>2014-04-29T11:59:07Z</time>
      </trkpt>
      <trkpt lat="41.7402" lon="8.65988">
        <ele>3.8</ele>
        <time>2014-04-29T11:59:17Z</time>
      </trkpt>
      <trkpt lat="41.7402" lon="8.65988">
        <ele>3.8</ele>
        <time>2014-04-29T11:59:27Z</time>
      </trkpt>
      <trkpt lat="41.7402" lon="8.65988">
        <ele>3.8</ele>
        <time>2014-04-29T11:59:37Z</time>
      </trkpt>
      <trkpt lat="41.74019" lon="8.65987">
        <ele>3.9</ele>
        <time>2014-04-29T11:59:47Z</time>
      </trkpt>
      <trkpt lat="41.74017" lon="8.65981">
        <ele>4.7</ele>
        <time>2014-04-29T11:59:57Z</time>
      </trkpt>
      <trkpt lat="41.74016" lon="8.65981">
        <ele>4.7</ele>
        <time>2014-04-29T12:00:09Z</time>
      </trkpt>
      <trkpt lat="41.74017" lon="8.65981">
        <ele>4.7</ele>
        <time>2014-04-29T12:00:21Z</time>
      </trkpt>
      <trkpt lat="41.74017" lon="8.65981">
        <ele>4.7</ele>
        <time>2014-04-29T12:00:31Z</time>
      </trkpt>
      <trkpt lat="41.74017" lon="8.65981">
        <ele>4.7</ele>
        <time>2014-04-29T12:00:41Z</time>
      </trkpt>
      <trkpt lat="41.74017" lon="8.65981">
        <ele>4.7</ele>
        <time>2014-04-29T12:00:52Z</time>
      </trkpt>
      <trkpt lat="41.74017" lon="8.65981">
        <ele>4.8</ele>
        <time>2014-04-29T12:01:02Z</time>
      </trkpt>
      <trkpt lat="41.74018" lon="8.65982">
        <ele>4.7</ele>
        <time>2014-04-29T12:01:12Z</time>
      </trkpt>
      <trkpt lat="41.74018" lon="8.65981">
        <ele>4.7</ele>
        <time>2014-04-29T12:01:22Z</time>
      </trkpt>
      <trkpt lat="41.74018" lon="8.65981">
        <ele>4.7</ele>
        <time>2014-04-29T12:01:32Z</time>
      </trkpt>
      <trkpt lat="41.74018" lon="8.65981">
        <ele>4.7</ele>
        <time>2014-04-29T12:01:43Z</time>
      </trkpt>
      <trkpt lat="41.74018" lon="8.65981">
        <ele>4.7</ele>
        <time>2014-04-29T12:01:53Z</time>
      </trkpt>
      <trkpt lat="41.74021" lon="8.65983">
        <ele>4.5</ele>
        <time>2014-04-29T12:02:03Z</time>
      </trkpt>
      <trkpt lat="41.74021" lon="8.65985">
        <ele>4.1</ele>
        <time>2014-04-29T12:02:13Z</time>
      </trkpt>
      <trkpt lat="41.74021" lon="8.65985">
        <ele>4.1</ele>
        <time>2014-04-29T12:02:23Z</time>
      </trkpt>
      <trkpt lat="41.74021" lon="8.65985">
        <ele>4.1</ele>
        <time>2014-04-29T12:02:33Z</time>
      </trkpt>
      <trkpt lat="41.74021" lon="8.65985">
        <ele>4.1</ele>
        <time>2014-04-29T12:02:43Z</time>
      </trkpt>
      <trkpt lat="41.74022" lon="8.65987">
        <ele>3.9</ele>
        <time>2014-04-29T12:02:54Z</time>
      </trkpt>
      <trkpt lat="41.74022" lon="8.65987">
        <ele>3.9</ele>
        <time>2014-04-29T12:03:04Z</time>
      </trkpt>
      <trkpt lat="41.74022" lon="8.65987">
        <ele>3.9</ele>
        <time>2014-04-29T12:03:14Z</time>
      </trkpt>
      <trkpt lat="41.74022" lon="8.65987">
        <ele>3.9</ele>
        <time>2014-04-29T12:03:24Z</time>
      </trkpt>
      <trkpt lat="41.74022" lon="8.65992">
        <ele>3.2</ele>
        <time>2014-04-29T12:03:34Z</time>
      </trkpt>
      <trkpt lat="41.74026" lon="8.65998">
        <ele>2.2</ele>
        <time>2014-04-29T12:03:44Z</time>
      </trkpt>
      <trkpt lat="41.74028" lon="8.66002">
        <ele>2.1</ele>
        <time>2014-04-29T12:03:55Z</time>
      </trkpt>
      <trkpt lat="41.7403" lon="8.66007">
        <ele>2.6</ele>
        <time>2014-04-29T12:04:05Z</time>
      </trkpt>
      <trkpt lat="41.7403" lon="8.66003">
        <ele>2.4</ele>
        <time>2014-04-29T12:04:15Z</time>
      </trkpt>
      <trkpt lat="41.74027" lon="8.66">
        <ele>2.1</ele>
        <time>2014-04-29T12:04:26Z</time>
      </trkpt>
      <trkpt lat="41.74027" lon="8.65999">
        <ele>2.1</ele>
        <time>2014-04-29T12:04:36Z</time>
      </trkpt>
      <trkpt lat="41.74027" lon="8.65999">
        <ele>2.1</ele>
        <time>2014-04-29T12:04:46Z</time>
      </trkpt>
      <trkpt lat="41.74027" lon="8.66">
        <ele>2.1</ele>
        <time>2014-04-29T12:04:56Z</time>
      </trkpt>
      <trkpt lat="41.74027" lon="8.65999">
        <ele>2.1</ele>
        <time>2014-04-29T12:05:06Z</time>
      </trkpt>
      <trkpt lat="41.74027" lon="8.65999">
        <ele>2.1</ele>
        <time>2014-04-29T12:05:17Z</time>
      </trkpt>
      <trkpt lat="41.74025" lon="8.65997">
        <ele>2.4</ele>
        <time>2014-04-29T12:05:27Z</time>
      </trkpt>
      <trkpt lat="41.74024" lon="8.66001">
        <ele>2</ele>
        <time>2014-04-29T12:05:37Z</time>
      </trkpt>
      <trkpt lat="41.74022" lon="8.66007">
        <ele>2.2</ele>
        <time>2014-04-29T12:05:47Z</time>
      </trkpt>
      <trkpt lat="41.74021" lon="8.66011">
        <ele>2.3</ele>
        <time>2014-04-29T12:05:58Z</time>
      </trkpt>
      <trkpt lat="41.7402" lon="8.66015">
        <ele>2.4</ele>
        <time>2014-04-29T12:06:08Z</time>
      </trkpt>
      <trkpt lat="41.74019" lon="8.66017">
        <ele>2.4</ele>
        <time>2014-04-29T12:06:18Z</time>
      </trkpt>
      <trkpt lat="41.74018" lon="8.66018">
        <ele>2.4</ele>
        <time>2014-04-29T12:06:28Z</time>
      </trkpt>
      <trkpt lat="41.74019" lon="8.6602">
        <ele>2.5</ele>
        <time>2014-04-29T12:06:38Z</time>
      </trkpt>
      <trkpt lat="41.74021" lon="8.66026">
        <ele>2.7</ele>
        <time>2014-04-29T12:06:49Z</time>
      </trkpt>
      <trkpt lat="41.74019" lon="8.66031">
        <ele>3.3</ele>
        <time>2014-04-29T12:06:59Z</time>
      </trkpt>
      <trkpt lat="41.74015" lon="8.6604">
        <ele>5.2</ele>
        <time>2014-04-29T12:07:09Z</time>
      </trkpt>
      <trkpt lat="41.74019" lon="8.66045">
        <ele>6.5</ele>
        <time>2014-04-29T12:07:19Z</time>
      </trkpt>
      <trkpt lat="41.74025" lon="8.66041">
        <ele>5.7</ele>
        <time>2014-04-29T12:07:33Z</time>
      </trkpt>
      <trkpt lat="41.74017" lon="8.66066">
        <ele>12</ele>
        <time>2014-04-29T12:07:44Z</time>
      </trkpt>
      <trkpt lat="41.74018" lon="8.66064">
        <ele>11.4</ele>
        <time>2014-04-29T12:07:54Z</time>
      </trkpt>
      <trkpt lat="41.74018" lon="8.66064">
        <ele>11.5</ele>
        <time>2014-04-29T12:08:03Z</time>
      </trkpt>
      <trkpt lat="41.74018" lon="8.66063">
        <ele>11.1</ele>
        <time>2014-04-29T12:08:13Z</time>
      </trkpt>
      <trkpt lat="41.74018" lon="8.66063">
        <ele>11.1</ele>
        <time>2014-04-29T12:08:23Z</time>
      </trkpt>
      <trkpt lat="41.74027" lon="8.66058">
        <ele>9.6</ele>
        <time>2014-04-29T12:08:33Z</time>
      </trkpt>
      <trkpt lat="41.74038" lon="8.6605">
        <ele>7.8</ele>
        <time>2014-04-29T12:08:44Z</time>
      </trkpt>
      <trkpt lat="41.74043" lon="8.66034">
        <ele>5.9</ele>
        <time>2014-04-29T12:08:54Z</time>
      </trkpt>
      <trkpt lat="41.74047" lon="8.66018">
        <ele>5.7</ele>
        <time>2014-04-29T12:09:04Z</time>
      </trkpt>
      <trkpt lat="41.74039" lon="8.66012">
        <ele>4.2</ele>
        <time>2014-04-29T12:09:14Z</time>
      </trkpt>
      <trkpt lat="41.74036" lon="8.66006">
        <ele>3.7</ele>
        <time>2014-04-29T12:09:24Z</time>
      </trkpt>
      <trkpt lat="41.74036" lon="8.66015">
        <ele>3.9</ele>
        <time>2014-04-29T12:09:34Z</time>
      </trkpt>
      <trkpt lat="41.74037" lon="8.66024">
        <ele>4.3</ele>
        <time>2014-04-29T12:09:45Z</time>
      </trkpt>
      <trkpt lat="41.74038" lon="8.66036">
        <ele>5.7</ele>
        <time>2014-04-29T12:09:55Z</time>
      </trkpt>
      <trkpt lat="41.74033" lon="8.66047">
        <ele>7.3</ele>
        <time>2014-04-29T12:10:05Z</time>
      </trkpt>
      <trkpt lat="41.74025" lon="8.66051">
        <ele>7.9</ele>
        <time>2014-04-29T12:10:16Z</time>
      </trkpt>
      <trkpt lat="41.7402" lon="8.66057">
        <ele>9</ele>
        <time>2014-04-29T12:10:26Z</time>
      </trkpt>
      <trkpt lat="41.74019" lon="8.6606">
        <ele>10.2</ele>
        <time>2014-04-29T12:10:36Z</time>
      </trkpt>
      <trkpt lat="41.74021" lon="8.66057">
        <ele>9.3</ele>
        <time>2014-04-29T12:10:46Z</time>
      </trkpt>
      <trkpt lat="41.74021" lon="8.66057">
        <ele>9.2</ele>
        <time>2014-04-29T12:10:57Z</time>
      </trkpt>
      <trkpt lat="41.7402" lon="8.66057">
        <ele>9.3</ele>
        <time>2014-04-29T12:11:07Z</time>
      </trkpt>
      <trkpt lat="41.74023" lon="8.66056">
        <ele>8.9</ele>
        <time>2014-04-29T12:11:17Z</time>
      </trkpt>
      <trkpt lat="41.74023" lon="8.66057">
        <ele>9.3</ele>
        <time>2014-04-29T12:11:27Z</time>
      </trkpt>
      <trkpt lat="41.74024" lon="8.66056">
        <ele>9.1</ele>
        <time>2014-04-29T12:11:38Z</time>
      </trkpt>
      <trkpt lat="41.74023" lon="8.66056">
        <ele>9.1</ele>
        <time>2014-04-29T12:11:48Z</time>
      </trkpt>
      <trkpt lat="41.74023" lon="8.66056">
        <ele>9.1</ele>
        <time>2014-04-29T12:11:58Z</time>
      </trkpt>
      <trkpt lat="41.74023" lon="8.66056">
        <ele>9.1</ele>
        <time>2014-04-29T12:12:08Z</time>
      </trkpt>
      <trkpt lat="41.74024" lon="8.66057">
        <ele>9.2</ele>
        <time>2014-04-29T12:12:18Z</time>
      </trkpt>
      <trkpt lat="41.74024" lon="8.66056">
        <ele>8.9</ele>
        <time>2014-04-29T12:12:29Z</time>
      </trkpt>
      <trkpt lat="41.74025" lon="8.66055">
        <ele>8.8</ele>
        <time>2014-04-29T12:12:39Z</time>
      </trkpt>
      <trkpt lat="41.74024" lon="8.66056">
        <ele>9</ele>
        <time>2014-04-29T12:12:49Z</time>
      </trkpt>
      <trkpt lat="41.74024" lon="8.66056">
        <ele>9</ele>
        <time>2014-04-29T12:12:59Z</time>
      </trkpt>
      <trkpt lat="41.74022" lon="8.66057">
        <ele>9.3</ele>
        <time>2014-04-29T12:13:10Z</time>
      </trkpt>
      <trkpt lat="41.74022" lon="8.66058">
        <ele>9.7</ele>
        <time>2014-04-29T12:13:20Z</time>
      </trkpt>
      <trkpt lat="41.74022" lon="8.66058">
        <ele>9.7</ele>
        <time>2014-04-29T12:13:30Z</time>
      </trkpt>
      <trkpt lat="41.74022" lon="8.66058">
        <ele>9.5</ele>
        <time>2014-04-29T12:13:41Z</time>
      </trkpt>
      <trkpt lat="41.74018" lon="8.66058">
        <ele>9.6</ele>
        <time>2014-04-29T12:13:51Z</time>
      </trkpt>
      <trkpt lat="41.74013" lon="8.66065">
        <ele>11.7</ele>
        <time>2014-04-29T12:13:58Z</time>
      </trkpt>
      <trkpt lat="41.74021" lon="8.66063">
        <ele>11.3</ele>
        <time>2014-04-29T12:14:11Z</time>
      </trkpt>
      <trkpt lat="41.74021" lon="8.66058">
        <ele>9.5</ele>
        <time>2014-04-29T12:14:21Z</time>
      </trkpt>
      <trkpt lat="41.74022" lon="8.66056">
        <ele>8.9</ele>
        <time>2014-04-29T12:14:31Z</time>
      </trkpt>
      <trkpt lat="41.74022" lon="8.66056">
        <ele>9</ele>
        <time>2014-04-29T12:14:42Z</time>
      </trkpt>
      <trkpt lat="41.74031" lon="8.66055">
        <ele>8.7</ele>
        <time>2014-04-29T12:14:58Z</time>
      </trkpt>
      <trkpt lat="41.74027" lon="8.66063">
        <ele>11.3</ele>
        <time>2014-04-29T12:15:08Z</time>
      </trkpt>
      <trkpt lat="41.74027" lon="8.66063">
        <ele>11.3</ele>
        <time>2014-04-29T12:15:18Z</time>
      </trkpt>
      <trkpt lat="41.74027" lon="8.66063">
        <ele>11.3</ele>
        <time>2014-04-29T12:15:28Z</time>
      </trkpt>
      <trkpt lat="41.74027" lon="8.66063">
        <ele>11.3</ele>
        <time>2014-04-29T12:15:38Z</time>
      </trkpt>
      <trkpt lat="41.74027" lon="8.66063">
        <ele>11.3</ele>
        <time>2014-04-29T12:15:49Z</time>
      </trkpt>
      <trkpt lat="41.74026" lon="8.66063">
        <ele>11.4</ele>
        <time>2014-04-29T12:15:59Z</time>
      </trkpt>
      <trkpt lat="41.74026" lon="8.66063">
        <ele>11.3</ele>
        <time>2014-04-29T12:16:09Z</time>
      </trkpt>
      <trkpt lat="41.74026" lon="8.66063">
        <ele>11.3</ele>
        <time>2014-04-29T12:16:19Z</time>
      </trkpt>
      <trkpt lat="41.74026" lon="8.66063">
        <ele>11.2</ele>
        <time>2014-04-29T12:16:29Z</time>
      </trkpt>
      <trkpt lat="41.74025" lon="8.66062">
        <ele>11.1</ele>
        <time>2014-04-29T12:16:39Z</time>
      </trkpt>
      <trkpt lat="41.74025" lon="8.66062">
        <ele>11.1</ele>
        <time>2014-04-29T12:16:49Z</time>
      </trkpt>
      <trkpt lat="41.74025" lon="8.66062">
        <ele>11</ele>
        <time>2014-04-29T12:16:59Z</time>
      </trkpt>
      <trkpt lat="41.74025" lon="8.66062">
        <ele>10.9</ele>
        <time>2014-04-29T12:17:10Z</time>
      </trkpt>
      <trkpt lat="41.74024" lon="8.6606">
        <ele>10.2</ele>
        <time>2014-04-29T12:17:20Z</time>
      </trkpt>
      <trkpt lat="41.74021" lon="8.66052">
        <ele>8</ele>
        <time>2014-04-29T12:17:30Z</time>
      </trkpt>
      <trkpt lat="41.74019" lon="8.66058">
        <ele>9.6</ele>
        <time>2014-04-29T12:17:40Z</time>
      </trkpt>
      <trkpt lat="41.74023" lon="8.66063">
        <ele>11.3</ele>
        <time>2014-04-29T12:17:50Z</time>
      </trkpt>
      <trkpt lat="41.74027" lon="8.66068">
        <ele>12.9</ele>
        <time>2014-04-29T12:18:00Z</time>
      </trkpt>
      <trkpt lat="41.74029" lon="8.66071">
        <ele>13.8</ele>
        <time>2014-04-29T12:18:11Z</time>
      </trkpt>
      <trkpt lat="41.74029" lon="8.66071">
        <ele>13.8</ele>
        <time>2014-04-29T12:18:21Z</time>
      </trkpt>
      <trkpt lat="41.74029" lon="8.66071">
        <ele>13.8</ele>
        <time>2014-04-29T12:18:32Z</time>
      </trkpt>
      <trkpt lat="41.74029" lon="8.66071">
        <ele>13.8</ele>
        <time>2014-04-29T12:18:42Z</time>
      </trkpt>
      <trkpt lat="41.74029" lon="8.66071">
        <ele>13.8</ele>
        <time>2014-04-29T12:18:52Z</time>
      </trkpt>
      <trkpt lat="41.74029" lon="8.66071">
        <ele>13.8</ele>
        <time>2014-04-29T12:19:02Z</time>
      </trkpt>
      <trkpt lat="41.74027" lon="8.66076">
        <ele>15.7</ele>
        <time>2014-04-29T12:19:13Z</time>
      </trkpt>
      <trkpt lat="41.74025" lon="8.66085">
        <ele>18.9</ele>
        <time>2014-04-29T12:19:23Z</time>
      </trkpt>
      <trkpt lat="41.74025" lon="8.66091">
        <ele>23.1</ele>
        <time>2014-04-29T12:19:28Z</time>
      </trkpt>
      <trkpt lat="41.74026" lon="8.66095">
        <ele>25.9</ele>
        <time>2014-04-29T12:19:46Z</time>
      </trkpt>
      <trkpt lat="41.74031" lon="8.66089">
        <ele>21.2</ele>
        <time>2014-04-29T12:19:56Z</time>
      </trkpt>
      <trkpt lat="41.7403" lon="8.66078">
        <ele>16</ele>
        <time>2014-04-29T12:20:06Z</time>
      </trkpt>
      <trkpt lat="41.74026" lon="8.66063">
        <ele>11.3</ele>
        <time>2014-04-29T12:20:16Z</time>
      </trkpt>
      <trkpt lat="41.74026" lon="8.6606">
        <ele>10.5</ele>
        <time>2014-04-29T12:20:26Z</time>
      </trkpt>
      <trkpt lat="41.74026" lon="8.6606">
        <ele>10.5</ele>
        <time>2014-04-29T12:20:37Z</time>
      </trkpt>
      <trkpt lat="41.74026" lon="8.6606">
        <ele>10.5</ele>
        <time>2014-04-29T12:20:47Z</time>
      </trkpt>
      <trkpt lat="41.74026" lon="8.6606">
        <ele>10.5</ele>
        <time>2014-04-29T12:20:57Z</time>
      </trkpt>
      <trkpt lat="41.74026" lon="8.6606">
        <ele>10.5</ele>
        <time>2014-04-29T12:21:08Z</time>
      </trkpt>
      <trkpt lat="41.74026" lon="8.6606">
        <ele>10.4</ele>
        <time>2014-04-29T12:21:18Z</time>
      </trkpt>
      <trkpt lat="41.74026" lon="8.6606">
        <ele>10.3</ele>
        <time>2014-04-29T12:21:29Z</time>
      </trkpt>
      <trkpt lat="41.74026" lon="8.6606">
        <ele>10.2</ele>
        <time>2014-04-29T12:21:39Z</time>
      </trkpt>
      <trkpt lat="41.74023" lon="8.66059">
        <ele>9.8</ele>
        <time>2014-04-29T12:21:49Z</time>
      </trkpt>
      <trkpt lat="41.74024" lon="8.66059">
        <ele>10</ele>
        <time>2014-04-29T12:21:59Z</time>
      </trkpt>
      <trkpt lat="41.74024" lon="8.66059">
        <ele>10</ele>
        <time>2014-04-29T12:22:09Z</time>
      </trkpt>
      <trkpt lat="41.74025" lon="8.6606">
        <ele>10.4</ele>
        <time>2014-04-29T12:22:19Z</time>
      </trkpt>
      <trkpt lat="41.74026" lon="8.6606">
        <ele>10.3</ele>
        <time>2014-04-29T12:22:30Z</time>
      </trkpt>
      <trkpt lat="41.74027" lon="8.66071">
        <ele>14</ele>
        <time>2014-04-29T12:22:40Z</time>
      </trkpt>
      <trkpt lat="41.74027" lon="8.66063">
        <ele>11.3</ele>
        <time>2014-04-29T12:22:50Z</time>
      </trkpt>
      <trkpt lat="41.74026" lon="8.66062">
        <ele>11.1</ele>
        <time>2014-04-29T12:23:00Z</time>
      </trkpt>
      <trkpt lat="41.74026" lon="8.66062">
        <ele>11.1</ele>
        <time>2014-04-29T12:23:11Z</time>
      </trkpt>
      <trkpt lat="41.74026" lon="8.66062">
        <ele>11.1</ele>
        <time>2014-04-29T12:23:21Z</time>
      </trkpt>
      <trkpt lat="41.74021" lon="8.66052">
        <ele>8</ele>
        <time>2014-04-29T12:23:31Z</time>
      </trkpt>
      <trkpt lat="41.74023" lon="8.66051">
        <ele>7.9</ele>
        <time>2014-04-29T12:23:41Z</time>
      </trkpt>
      <trkpt lat="41.74022" lon="8.66051">
        <ele>7.7</ele>
        <time>2014-04-29T12:23:51Z</time>
      </trkpt>
      <trkpt lat="41.74022" lon="8.66051">
        <ele>7.7</ele>
        <time>2014-04-29T12:24:02Z</time>
      </trkpt>
      <trkpt lat="41.74022" lon="8.66051">
        <ele>7.7</ele>
        <time>2014-04-29T12:24:12Z</time>
      </trkpt>
      <trkpt lat="41.74022" lon="8.66051">
        <ele>7.7</ele>
        <time>2014-04-29T12:24:22Z</time>
      </trkpt>
      <trkpt lat="41.74022" lon="8.66051">
        <ele>7.7</ele>
        <time>2014-04-29T12:24:33Z</time>
      </trkpt>
      <trkpt lat="41.74022" lon="8.66051">
        <ele>7.7</ele>
        <time>2014-04-29T12:24:43Z</time>
      </trkpt>
      <trkpt lat="41.74022" lon="8.66051">
        <ele>7.7</ele>
        <time>2014-04-29T12:24:53Z</time>
      </trkpt>
      <trkpt lat="41.74022" lon="8.66051">
        <ele>7.7</ele>
        <time>2014-04-29T12:25:03Z</time>
      </trkpt>
      <trkpt lat="41.74022" lon="8.66051">
        <ele>7.7</ele>
        <time>2014-04-29T12:25:13Z</time>
      </trkpt>
      <trkpt lat="41.74022" lon="8.66051">
        <ele>7.7</ele>
        <time>2014-04-29T12:25:24Z</time>
      </trkpt>
      <trkpt lat="41.74022" lon="8.66051">
        <ele>7.7</ele>
        <time>2014-04-29T12:25:34Z</time>
      </trkpt>
      <trkpt lat="41.74022" lon="8.66051">
        <ele>7.7</ele>
        <time>2014-04-29T12:25:44Z</time>
      </trkpt>
      <trkpt lat="41.74022" lon="8.66051">
        <ele>7.7</ele>
        <time>2014-04-29T12:25:54Z</time>
      </trkpt>
      <trkpt lat="41.74022" lon="8.66051">
        <ele>7.7</ele>
        <time>2014-04-29T12:26:05Z</time>
      </trkpt>
      <trkpt lat="41.74022" lon="8.66051">
        <ele>7.7</ele>
        <time>2014-04-29T12:26:15Z</time>
      </trkpt>
      <trkpt lat="41.74022" lon="8.66051">
        <ele>7.7</ele>
        <time>2014-04-29T12:26:25Z</time>
      </trkpt>
      <trkpt lat="41.74022" lon="8.66051">
        <ele>7.7</ele>
        <time>2014-04-29T12:26:35Z</time>
      </trkpt>
      <trkpt lat="41.74022" lon="8.66051">
        <ele>7.7</ele>
        <time>2014-04-29T12:26:46Z</time>
      </trkpt>
      <trkpt lat="41.74022" lon="8.66051">
        <ele>7.7</ele>
        <time>2014-04-29T12:26:56Z</time>
      </trkpt>
      <trkpt lat="41.74022" lon="8.66051">
        <ele>7.7</ele>
        <time>2014-04-29T12:27:06Z</time>
      </trkpt>
      <trkpt lat="41.74022" lon="8.66051">
        <ele>7.7</ele>
        <time>2014-04-29T12:27:16Z</time>
      </trkpt>
      <trkpt lat="41.74022" lon="8.66051">
        <ele>7.7</ele>
        <time>2014-04-29T12:27:27Z</time>
      </trkpt>
      <trkpt lat="41.74022" lon="8.66051">
        <ele>7.7</ele>
        <time>2014-04-29T12:27:37Z</time>
      </trkpt>
      <trkpt lat="41.74022" lon="8.66051">
        <ele>7.7</ele>
        <time>2014-04-29T12:27:48Z</time>
      </trkpt>
      <trkpt lat="41.74022" lon="8.66051">
        <ele>7.7</ele>
        <time>2014-04-29T12:27:58Z</time>
      </trkpt>
      <trkpt lat="41.74022" lon="8.66051">
        <ele>7.7</ele>
        <time>2014-04-29T12:28:08Z</time>
      </trkpt>
      <trkpt lat="41.74022" lon="8.66051">
        <ele>7.7</ele>
        <time>2014-04-29T12:28:18Z</time>
      </trkpt>
      <trkpt lat="41.74022" lon="8.66051">
        <ele>7.7</ele>
        <time>2014-04-29T12:28:28Z</time>
      </trkpt>
      <trkpt lat="41.74022" lon="8.66051">
        <ele>7.7</ele>
        <time>2014-04-29T12:28:38Z</time>
      </trkpt>
      <trkpt lat="41.74022" lon="8.66051">
        <ele>7.7</ele>
        <time>2014-04-29T12:28:48Z</time>
      </trkpt>
      <trkpt lat="41.74022" lon="8.66051">
        <ele>7.7</ele>
        <time>2014-04-29T12:28:59Z</time>
      </trkpt>
      <trkpt lat="41.74022" lon="8.66051">
        <ele>7.7</ele>
        <time>2014-04-29T12:29:09Z</time>
      </trkpt>
      <trkpt lat="41.74022" lon="8.66051">
        <ele>7.7</ele>
        <time>2014-04-29T12:29:19Z</time>
      </trkpt>
      <trkpt lat="41.74022" lon="8.66051">
        <ele>7.7</ele>
        <time>2014-04-29T12:29:29Z</time>
      </trkpt>
      <trkpt lat="41.74022" lon="8.66051">
        <ele>7.7</ele>
        <time>2014-04-29T12:29:39Z</time>
      </trkpt>
      <trkpt lat="41.74022" lon="8.66051">
        <ele>7.7</ele>
        <time>2014-04-29T12:29:50Z</time>
      </trkpt>
      <trkpt lat="41.74022" lon="8.66051">
        <ele>7.7</ele>
        <time>2014-04-29T12:30:00Z</time>
      </trkpt>
      <trkpt lat="41.74022" lon="8.66051">
        <ele>7.7</ele>
        <time>2014-04-29T12:30:10Z</time>
      </trkpt>
      <trkpt lat="41.74022" lon="8.66051">
        <ele>7.7</ele>
        <time>2014-04-29T12:30:20Z</time>
      </trkpt>
      <trkpt lat="41.74022" lon="8.66051">
        <ele>7.7</ele>
        <time>2014-04-29T12:30:30Z</time>
      </trkpt>
      <trkpt lat="41.74022" lon="8.66051">
        <ele>7.7</ele>
        <time>2014-04-29T12:30:40Z</time>
      </trkpt>
      <trkpt lat="41.74022" lon="8.66051">
        <ele>7.7</ele>
        <time>2014-04-29T12:30:51Z</time>
      </trkpt>
      <trkpt lat="41.74022" lon="8.66051">
        <ele>7.7</ele>
        <time>2014-04-29T12:31:01Z</time>
      </trkpt>
      <trkpt lat="41.74022" lon="8.66051">
        <ele>7.7</ele>
        <time>2014-04-29T12:31:11Z</time>
      </trkpt>
      <trkpt lat="41.74022" lon="8.66051">
        <ele>7.7</ele>
        <time>2014-04-29T12:31:21Z</time>
      </trkpt>
      <trkpt lat="41.74022" lon="8.66051">
        <ele>7.7</ele>
        <time>2014-04-29T12:31:31Z</time>
      </trkpt>
      <trkpt lat="41.74022" lon="8.66051">
        <ele>7.7</ele>
        <time>2014-04-29T12:31:42Z</time>
      </trkpt>
      <trkpt lat="41.74022" lon="8.66051">
        <ele>7.7</ele>
        <time>2014-04-29T12:31:52Z</time>
      </trkpt>
      <trkpt lat="41.74022" lon="8.66051">
        <ele>7.7</ele>
        <time>2014-04-29T12:32:02Z</time>
      </trkpt>
      <trkpt lat="41.74022" lon="8.66051">
        <ele>7.7</ele>
        <time>2014-04-29T12:32:12Z</time>
      </trkpt>
      <trkpt lat="41.74022" lon="8.66051">
        <ele>7.7</ele>
        <time>2014-04-29T12:32:23Z</time>
      </trkpt>
      <trkpt lat="41.74022" lon="8.66051">
        <ele>7.7</ele>
        <time>2014-04-29T12:32:33Z</time>
      </trkpt>
      <trkpt lat="41.74022" lon="8.66051">
        <ele>7.7</ele>
        <time>2014-04-29T12:32:43Z</time>
      </trkpt>
      <trkpt lat="41.74022" lon="8.66051">
        <ele>7.7</ele>
        <time>2014-04-29T12:32:53Z</time>
      </trkpt>
      <trkpt lat="41.74022" lon="8.66051">
        <ele>7.7</ele>
        <time>2014-04-29T12:33:03Z</time>
      </trkpt>
      <trkpt lat="41.74022" lon="8.66051">
        <ele>7.7</ele>
        <time>2014-04-29T12:33:14Z</time>
      </trkpt>
      <trkpt lat="41.74022" lon="8.66051">
        <ele>7.7</ele>
        <time>2014-04-29T12:33:24Z</time>
      </trkpt>
      <trkpt lat="41.74022" lon="8.66051">
        <ele>7.7</ele>
        <time>2014-04-29T12:33:34Z</time>
      </trkpt>
      <trkpt lat="41.74022" lon="8.66051">
        <ele>7.7</ele>
        <time>2014-04-29T12:33:44Z</time>
      </trkpt>
      <trkpt lat="41.74022" lon="8.66051">
        <ele>7.7</ele>
        <time>2014-04-29T12:33:54Z</time>
      </trkpt>
      <trkpt lat="41.74022" lon="8.66051">
        <ele>7.7</ele>
        <time>2014-04-29T12:34:05Z</time>
      </trkpt>
      <trkpt lat="41.74022" lon="8.66051">
        <ele>7.7</ele>
        <time>2014-04-29T12:34:15Z</time>
      </trkpt>
      <trkpt lat="41.74022" lon="8.66051">
        <ele>7.7</ele>
        <time>2014-04-29T12:34:25Z</time>
      </trkpt>
      <trkpt lat="41.74022" lon="8.66051">
        <ele>7.7</ele>
        <time>2014-04-29T12:34:35Z</time>
      </trkpt>
      <trkpt lat="41.74022" lon="8.66051">
        <ele>7.7</ele>
        <time>2014-04-29T12:34:45Z</time>
      </trkpt>
      <trkpt lat="41.74022" lon="8.66051">
        <ele>7.7</ele>
        <time>2014-04-29T12:34:56Z</time>
      </trkpt>
      <trkpt lat="41.74021" lon="8.6605">
        <ele>7.6</ele>
        <time>2014-04-29T12:35:06Z</time>
      </trkpt>
      <trkpt lat="41.74021" lon="8.6605">
        <ele>7.6</ele>
        <time>2014-04-29T12:35:16Z</time>
      </trkpt>
      <trkpt lat="41.74021" lon="8.6605">
        <ele>7.6</ele>
        <time>2014-04-29T12:35:26Z</time>
      </trkpt>
      <trkpt lat="41.74021" lon="8.6605">
        <ele>7.6</ele>
        <time>2014-04-29T12:35:36Z</time>
      </trkpt>
      <trkpt lat="41.74021" lon="8.6605">
        <ele>7.6</ele>
        <time>2014-04-29T12:35:46Z</time>
      </trkpt>
      <trkpt lat="41.74021" lon="8.6605">
        <ele>7.6</ele>
        <time>2014-04-29T12:35:56Z</time>
      </trkpt>
      <trkpt lat="41.74021" lon="8.6605">
        <ele>7.6</ele>
        <time>2014-04-29T12:36:07Z</time>
      </trkpt>
      <trkpt lat="41.74021" lon="8.6605">
        <ele>7.6</ele>
        <time>2014-04-29T12:36:17Z</time>
      </trkpt>
      <trkpt lat="41.74021" lon="8.6605">
        <ele>7.6</ele>
        <time>2014-04-29T12:36:28Z</time>
      </trkpt>
      <trkpt lat="41.74021" lon="8.6605">
        <ele>7.6</ele>
        <time>2014-04-29T12:36:38Z</time>
      </trkpt>
      <trkpt lat="41.74021" lon="8.6605">
        <ele>7.6</ele>
        <time>2014-04-29T12:36:48Z</time>
      </trkpt>
      <trkpt lat="41.74021" lon="8.6605">
        <ele>7.6</ele>
        <time>2014-04-29T12:36:58Z</time>
      </trkpt>
      <trkpt lat="41.74021" lon="8.6605">
        <ele>7.6</ele>
        <time>2014-04-29T12:37:08Z</time>
      </trkpt>
      <trkpt lat="41.74021" lon="8.6605">
        <ele>7.5</ele>
        <time>2014-04-29T12:37:18Z</time>
      </trkpt>
      <trkpt lat="41.74021" lon="8.6605">
        <ele>7.5</ele>
        <time>2014-04-29T12:37:29Z</time>
      </trkpt>
      <trkpt lat="41.74021" lon="8.6605">
        <ele>7.5</ele>
        <time>2014-04-29T12:37:39Z</time>
      </trkpt>
      <trkpt lat="41.74021" lon="8.6605">
        <ele>7.5</ele>
        <time>2014-04-29T12:37:49Z</time>
      </trkpt>
      <trkpt lat="41.74021" lon="8.6605">
        <ele>7.5</ele>
        <time>2014-04-29T12:38:00Z</time>
      </trkpt>
      <trkpt lat="41.74021" lon="8.6605">
        <ele>7.5</ele>
        <time>2014-04-29T12:38:10Z</time>
      </trkpt>
      <trkpt lat="41.74021" lon="8.6605">
        <ele>7.4</ele>
        <time>2014-04-29T12:38:21Z</time>
      </trkpt>
      <trkpt lat="41.74021" lon="8.6605">
        <ele>7.4</ele>
        <time>2014-04-29T12:38:31Z</time>
      </trkpt>
      <trkpt lat="41.74021" lon="8.6605">
        <ele>7.4</ele>
        <time>2014-04-29T12:38:41Z</time>
      </trkpt>
      <trkpt lat="41.7402" lon="8.66049">
        <ele>7.4</ele>
        <time>2014-04-29T12:38:51Z</time>
      </trkpt>
      <trkpt lat="41.7402" lon="8.66049">
        <ele>7.4</ele>
        <time>2014-04-29T12:39:02Z</time>
      </trkpt>
      <trkpt lat="41.74015" lon="8.66046">
        <ele>6.4</ele>
        <time>2014-04-29T12:39:14Z</time>
      </trkpt>
      <trkpt lat="41.74016" lon="8.66049">
        <ele>7.1</ele>
        <time>2014-04-29T12:39:24Z</time>
      </trkpt>
      <trkpt lat="41.74016" lon="8.66049">
        <ele>7.1</ele>
        <time>2014-04-29T12:39:35Z</time>
      </trkpt>
      <trkpt lat="41.74016" lon="8.66049">
        <ele>7.1</ele>
        <time>2014-04-29T12:39:45Z</time>
      </trkpt>
      <trkpt lat="41.74014" lon="8.66046">
        <ele>6.4</ele>
        <time>2014-04-29T12:39:55Z</time>
      </trkpt>
      <trkpt lat="41.74014" lon="8.66047">
        <ele>6.6</ele>
        <time>2014-04-29T12:40:05Z</time>
      </trkpt>
      <trkpt lat="41.74015" lon="8.66046">
        <ele>6.5</ele>
        <time>2014-04-29T12:40:15Z</time>
      </trkpt>
      <trkpt lat="41.74016" lon="8.66047">
        <ele>6.6</ele>
        <time>2014-04-29T12:40:28Z</time>
      </trkpt>
      <trkpt lat="41.74012" lon="8.6605">
        <ele>7.2</ele>
        <time>2014-04-29T12:40:34Z</time>
      </trkpt>
      <trkpt lat="41.74018" lon="8.66054">
        <ele>8.2</ele>
        <time>2014-04-29T12:40:47Z</time>
      </trkpt>
      <trkpt lat="41.74021" lon="8.66052">
        <ele>8</ele>
        <time>2014-04-29T12:40:57Z</time>
      </trkpt>
      <trkpt lat="41.74021" lon="8.66053">
        <ele>8.3</ele>
        <time>2014-04-29T12:41:07Z</time>
      </trkpt>
      <trkpt lat="41.74022" lon="8.66053">
        <ele>8.3</ele>
        <time>2014-04-29T12:41:17Z</time>
      </trkpt>
      <trkpt lat="41.74021" lon="8.66052">
        <ele>8</ele>
        <time>2014-04-29T12:41:28Z</time>
      </trkpt>
      <trkpt lat="41.74019" lon="8.6605">
        <ele>7.4</ele>
        <time>2014-04-29T12:41:38Z</time>
      </trkpt>
      <trkpt lat="41.74018" lon="8.66049">
        <ele>7.3</ele>
        <time>2014-04-29T12:41:48Z</time>
      </trkpt>
      <trkpt lat="41.74018" lon="8.66049">
        <ele>7.3</ele>
        <time>2014-04-29T12:41:58Z</time>
      </trkpt>
      <trkpt lat="41.74018" lon="8.66049">
        <ele>7.3</ele>
        <time>2014-04-29T12:42:08Z</time>
      </trkpt>
      <trkpt lat="41.74018" lon="8.66049">
        <ele>7.3</ele>
        <time>2014-04-29T12:42:19Z</time>
      </trkpt>
      <trkpt lat="41.74019" lon="8.66049">
        <ele>7.2</ele>
        <time>2014-04-29T12:42:29Z</time>
      </trkpt>
      <trkpt lat="41.74019" lon="8.66049">
        <ele>7.3</ele>
        <time>2014-04-29T12:42:39Z</time>
      </trkpt>
      <trkpt lat="41.74019" lon="8.66049">
        <ele>7.3</ele>
        <time>2014-04-29T12:42:49Z</time>
      </trkpt>
      <trkpt lat="41.74019" lon="8.66049">
        <ele>7.3</ele>
        <time>2014-04-29T12:43:00Z</time>
      </trkpt>
      <trkpt lat="41.74019" lon="8.66049">
        <ele>7.3</ele>
        <time>2014-04-29T12:43:10Z</time>
      </trkpt>
      <trkpt lat="41.74019" lon="8.66049">
        <ele>7.3</ele>
        <time>2014-04-29T12:43:20Z</time>
      </trkpt>
      <trkpt lat="41.74018" lon="8.66047">
        <ele>6.8</ele>
        <time>2014-04-29T12:43:30Z</time>
      </trkpt>
      <trkpt lat="41.74025" lon="8.66046">
        <ele>6.9</ele>
        <time>2014-04-29T12:43:40Z</time>
      </trkpt>
      <trkpt lat="41.74033" lon="8.66042">
        <ele>6.4</ele>
        <time>2014-04-29T12:43:50Z</time>
      </trkpt>
      <trkpt lat="41.74042" lon="8.66039">
        <ele>6.4</ele>
        <time>2014-04-29T12:44:01Z</time>
      </trkpt>
      <trkpt lat="41.74046" lon="8.66027">
        <ele>5.7</ele>
        <time>2014-04-29T12:44:11Z</time>
      </trkpt>
      <trkpt lat="41.74049" lon="8.66015">
        <ele>5.9</ele>
        <time>2014-04-29T12:44:21Z</time>
      </trkpt>
      <trkpt lat="41.74049" lon="8.66014">
        <ele>6</ele>
        <time>2014-04-29T12:44:31Z</time>
      </trkpt>
      <trkpt lat="41.7405" lon="8.66007">
        <ele>6.1</ele>
        <time>2014-04-29T12:44:42Z</time>
      </trkpt>
      <trkpt lat="41.74054" lon="8.66005">
        <ele>6.7</ele>
        <time>2014-04-29T12:44:52Z</time>
      </trkpt>
      <trkpt lat="41.74054" lon="8.66005">
        <ele>6.7</ele>
        <time>2014-04-29T12:44:53Z</time>
      </trkpt>
      <trkpt lat="41.74054" lon="8.66006">
        <ele>6.8</ele>
        <time>2014-04-29T12:45:04Z</time>
      </trkpt>
      <trkpt lat="41.74055" lon="8.66007">
        <ele>6.8</ele>
        <time>2014-04-29T12:45:18Z</time>
      </trkpt>
      <trkpt lat="41.74073" lon="8.65996">
        <ele>12.3</ele>
        <time>2014-04-29T12:45:29Z</time>
      </trkpt>
      <trkpt lat="41.7407" lon="8.65982">
        <ele>11</ele>
        <time>2014-04-29T12:45:39Z</time>
      </trkpt>
      <trkpt lat="41.74071" lon="8.65981">
        <ele>11.1</ele>
        <time>2014-04-29T12:45:43Z</time>
      </trkpt>
      <trkpt lat="41.74075" lon="8.65982">
        <ele>11.8</ele>
        <time>2014-04-29T12:45:54Z</time>
      </trkpt>
      <trkpt lat="41.74073" lon="8.65981">
        <ele>11.4</ele>
        <time>2014-04-29T12:46:04Z</time>
      </trkpt>
      <trkpt lat="41.74073" lon="8.65981">
        <ele>11.3</ele>
        <time>2014-04-29T12:46:14Z</time>
      </trkpt>
      <trkpt lat="41.74077" lon="8.65985">
        <ele>12.4</ele>
        <time>2014-04-29T12:46:24Z</time>
      </trkpt>
      <trkpt lat="41.74074" lon="8.65983">
        <ele>11.7</ele>
        <time>2014-04-29T12:46:34Z</time>
      </trkpt>
      <trkpt lat="41.74074" lon="8.65983">
        <ele>11.7</ele>
        <time>2014-04-29T12:46:45Z</time>
      </trkpt>
      <trkpt lat="41.74085" lon="8.65984">
        <ele>14</ele>
        <time>2014-04-29T12:47:29Z</time>
      </trkpt>
      <trkpt lat="41.74081" lon="8.65991">
        <ele>14</ele>
        <time>2014-04-29T12:47:44Z</time>
      </trkpt>
      <trkpt lat="41.74073" lon="8.65983">
        <ele>11.5</ele>
        <time>2014-04-29T12:47:54Z</time>
      </trkpt>
      <trkpt lat="41.74081" lon="8.6598">
        <ele>12.8</ele>
        <time>2014-04-29T12:48:12Z</time>
      </trkpt>
      <trkpt lat="41.74079" lon="8.65977">
        <ele>12.1</ele>
        <time>2014-04-29T12:48:22Z</time>
      </trkpt>
      <trkpt lat="41.7408" lon="8.65977">
        <ele>12.2</ele>
        <time>2014-04-29T12:48:29Z</time>
      </trkpt>
      <trkpt lat="41.74076" lon="8.65978">
        <ele>11.7</ele>
        <time>2014-04-29T12:48:40Z</time>
      </trkpt>
      <trkpt lat="41.74076" lon="8.65978">
        <ele>11.7</ele>
        <time>2014-04-29T12:48:50Z</time>
      </trkpt>
      <trkpt lat="41.74076" lon="8.65978">
        <ele>11.7</ele>
        <time>2014-04-29T12:49:00Z</time>
      </trkpt>
      <trkpt lat="41.74077" lon="8.65975">
        <ele>11.6</ele>
        <time>2014-04-29T12:49:10Z</time>
      </trkpt>
      <trkpt lat="41.74079" lon="8.65971">
        <ele>11.4</ele>
        <time>2014-04-29T12:49:20Z</time>
      </trkpt>
      <trkpt lat="41.74082" lon="8.65967">
        <ele>10.9</ele>
        <time>2014-04-29T12:49:30Z</time>
      </trkpt>
      <trkpt lat="41.74086" lon="8.65962">
        <ele>11.1</ele>
        <time>2014-04-29T12:49:41Z</time>
      </trkpt>
      <trkpt lat="41.74085" lon="8.65959">
        <ele>10</ele>
        <time>2014-04-29T12:49:51Z</time>
      </trkpt>
      <trkpt lat="41.74088" lon="8.65952">
        <ele>10</ele>
        <time>2014-04-29T12:50:01Z</time>
      </trkpt>
      <trkpt lat="41.74092" lon="8.6595">
        <ele>11.2</ele>
        <time>2014-04-29T12:50:11Z</time>
      </trkpt>
      <trkpt lat="41.74095" lon="8.65953">
        <ele>12.7</ele>
        <time>2014-04-29T12:50:21Z</time>
      </trkpt>
      <trkpt lat="41.74094" lon="8.65956">
        <ele>13.1</ele>
        <time>2014-04-29T12:50:31Z</time>
      </trkpt>
      <trkpt lat="41.74094" lon="8.65958">
        <ele>13.2</ele>
        <time>2014-04-29T12:50:41Z</time>
      </trkpt>
      <trkpt lat="41.74099" lon="8.65953">
        <ele>14.4</ele>
        <time>2014-04-29T12:50:51Z</time>
      </trkpt>
      <trkpt lat="41.741" lon="8.6595">
        <ele>14.4</ele>
        <time>2014-04-29T12:51:02Z</time>
      </trkpt>
      <trkpt lat="41.74102" lon="8.65951">
        <ele>15</ele>
        <time>2014-04-29T12:51:12Z</time>
      </trkpt>
      <trkpt lat="41.74102" lon="8.65951">
        <ele>15</ele>
        <time>2014-04-29T12:51:22Z</time>
      </trkpt>
      <trkpt lat="41.74106" lon="8.65951">
        <ele>16.7</ele>
        <time>2014-04-29T12:51:29Z</time>
      </trkpt>
      <trkpt lat="41.74112" lon="8.65946">
        <ele>18.3</ele>
        <time>2014-04-29T12:51:41Z</time>
      </trkpt>
      <trkpt lat="41.74115" lon="8.6594">
        <ele>16</ele>
        <time>2014-04-29T12:51:44Z</time>
      </trkpt>
      <trkpt lat="41.74119" lon="8.65936">
        <ele>14.3</ele>
        <time>2014-04-29T12:51:57Z</time>
      </trkpt>
      <trkpt lat="41.74115" lon="8.65927">
        <ele>9.4</ele>
        <time>2014-04-29T12:52:07Z</time>
      </trkpt>
      <trkpt lat="41.7409" lon="8.65927">
        <ele>5.2</ele>
        <time>2014-04-29T12:52:32Z</time>
      </trkpt>
      <trkpt lat="41.7413" lon="8.65917">
        <ele>3.6</ele>
        <time>2014-04-29T12:52:42Z</time>
      </trkpt>
      <trkpt lat="41.74132" lon="8.65917">
        <ele>3.4</ele>
        <time>2014-04-29T12:52:43Z</time>
      </trkpt>
      <trkpt lat="41.74121" lon="8.65883">
        <ele>1</ele>
        <time>2014-04-29T12:53:11Z</time>
      </trkpt>
      <trkpt lat="41.7415" lon="8.65916">
        <ele>4.5</ele>
        <time>2014-04-29T12:53:21Z</time>
      </trkpt>
      <trkpt lat="41.74163" lon="8.65929">
        <ele>11.2</ele>
        <time>2014-04-29T12:53:32Z</time>
      </trkpt>
      <trkpt lat="41.7417" lon="8.65931">
        <ele>11.7</ele>
        <time>2014-04-29T12:53:42Z</time>
      </trkpt>
      <trkpt lat="41.74174" lon="8.65928">
        <ele>9.9</ele>
        <time>2014-04-29T12:53:52Z</time>
      </trkpt>
      <trkpt lat="41.7418" lon="8.6593">
        <ele>9.8</ele>
        <time>2014-04-29T12:54:02Z</time>
      </trkpt>
      <trkpt lat="41.7418" lon="8.65924">
        <ele>7.5</ele>
        <time>2014-04-29T12:54:03Z</time>
      </trkpt>
      <trkpt lat="41.74184" lon="8.65932">
        <ele>9.5</ele>
        <time>2014-04-29T12:54:13Z</time>
      </trkpt>
      <trkpt lat="41.74182" lon="8.65936">
        <ele>11.3</ele>
        <time>2014-04-29T12:54:34Z</time>
      </trkpt>
      <trkpt lat="41.74175" lon="8.65933">
        <ele>11.4</ele>
        <time>2014-04-29T12:54:29Z</time>
      </trkpt>
      <trkpt lat="41.74173" lon="8.65926">
        <ele>9.4</ele>
        <time>2014-04-29T12:54:38Z</time>
      </trkpt>
      <trkpt lat="41.7418" lon="8.65937">
        <ele>12</ele>
        <time>2014-04-29T12:55:01Z</time>
      </trkpt>
      <trkpt lat="41.7418" lon="8.65938">
        <ele>12.3</ele>
        <time>2014-04-29T12:55:11Z</time>
      </trkpt>
      <trkpt lat="41.74181" lon="8.65939">
        <ele>12.5</ele>
        <time>2014-04-29T12:55:21Z</time>
      </trkpt>
      <trkpt lat="41.74186" lon="8.65946">
        <ele>14.3</ele>
        <time>2014-04-29T12:55:31Z</time>
      </trkpt>
      <trkpt lat="41.74191" lon="8.65955">
        <ele>16.5</ele>
        <time>2014-04-29T12:55:42Z</time>
      </trkpt>
      <trkpt lat="41.74195" lon="8.65959">
        <ele>16.5</ele>
        <time>2014-04-29T12:55:52Z</time>
      </trkpt>
      <trkpt lat="41.74196" lon="8.65959">
        <ele>16.4</ele>
        <time>2014-04-29T12:56:02Z</time>
      </trkpt>
      <trkpt lat="41.74206" lon="8.65959">
        <ele>13.2</ele>
        <time>2014-04-29T12:56:12Z</time>
      </trkpt>
      <trkpt lat="41.74212" lon="8.65962">
        <ele>12.5</ele>
        <time>2014-04-29T12:56:22Z</time>
      </trkpt>
      <trkpt lat="41.74213" lon="8.65964">
        <ele>12.4</ele>
        <time>2014-04-29T12:56:32Z</time>
      </trkpt>
      <trkpt lat="41.74217" lon="8.65967">
        <ele>12.4</ele>
        <time>2014-04-29T12:56:42Z</time>
      </trkpt>
      <trkpt lat="41.74222" lon="8.65967">
        <ele>10.7</ele>
        <time>2014-04-29T12:56:52Z</time>
      </trkpt>
      <trkpt lat="41.74234" lon="8.65971">
        <ele>9.9</ele>
        <time>2014-04-29T12:57:02Z</time>
      </trkpt>
      <trkpt lat="41.74243" lon="8.65977">
        <ele>10.4</ele>
        <time>2014-04-29T12:57:12Z</time>
      </trkpt>
      <trkpt lat="41.74255" lon="8.65981">
        <ele>9.4</ele>
        <time>2014-04-29T12:57:23Z</time>
      </trkpt>
      <trkpt lat="41.74264" lon="8.65988">
        <ele>10.6</ele>
        <time>2014-04-29T12:57:33Z</time>
      </trkpt>
      <trkpt lat="41.74271" lon="8.65989">
        <ele>10.6</ele>
        <time>2014-04-29T12:57:43Z</time>
      </trkpt>
      <trkpt lat="41.74273" lon="8.65985">
        <ele>9.9</ele>
        <time>2014-04-29T12:57:54Z</time>
      </trkpt>
      <trkpt lat="41.74284" lon="8.65986">
        <ele>9.9</ele>
        <time>2014-04-29T12:58:04Z</time>
      </trkpt>
      <trkpt lat="41.74293" lon="8.65986">
        <ele>10.1</ele>
        <time>2014-04-29T12:58:14Z</time>
      </trkpt>
      <trkpt lat="41.74297" lon="8.65992">
        <ele>11.6</ele>
        <time>2014-04-29T12:58:24Z</time>
      </trkpt>
      <trkpt lat="41.74298" lon="8.65992">
        <ele>11.6</ele>
        <time>2014-04-29T12:58:34Z</time>
      </trkpt>
      <trkpt lat="41.74298" lon="8.65992">
        <ele>11.6</ele>
        <time>2014-04-29T12:58:44Z</time>
      </trkpt>
      <trkpt lat="41.74298" lon="8.65992">
        <ele>11.6</ele>
        <time>2014-04-29T12:58:54Z</time>
      </trkpt>
      <trkpt lat="41.743" lon="8.65992">
        <ele>11.8</ele>
        <time>2014-04-29T12:59:04Z</time>
      </trkpt>
      <trkpt lat="41.74306" lon="8.65994">
        <ele>12.9</ele>
        <time>2014-04-29T12:59:14Z</time>
      </trkpt>
      <trkpt lat="41.74314" lon="8.65999">
        <ele>13.6</ele>
        <time>2014-04-29T12:59:24Z</time>
      </trkpt>
      <trkpt lat="41.74321" lon="8.65998">
        <ele>12.1</ele>
        <time>2014-04-29T12:59:35Z</time>
      </trkpt>
      <trkpt lat="41.74329" lon="8.65997">
        <ele>10.7</ele>
        <time>2014-04-29T12:59:45Z</time>
      </trkpt>
      <trkpt lat="41.74335" lon="8.65994">
        <ele>9</ele>
        <time>2014-04-29T12:59:55Z</time>
      </trkpt>
      <trkpt lat="41.74342" lon="8.65985">
        <ele>6.7</ele>
        <time>2014-04-29T13:00:05Z</time>
      </trkpt>
      <trkpt lat="41.74343" lon="8.65982">
        <ele>6</ele>
        <time>2014-04-29T13:00:00Z</time>
      </trkpt>
      <trkpt lat="41.74345" lon="8.65979">
        <ele>5.5</ele>
        <time>2014-04-29T13:00:10Z</time>
      </trkpt>
      <trkpt lat="41.74349" lon="8.65985">
        <ele>6.6</ele>
        <time>2014-04-29T13:00:36Z</time>
      </trkpt>
      <trkpt lat="41.74348" lon="8.65984">
        <ele>6.5</ele>
        <time>2014-04-29T13:00:46Z</time>
      </trkpt>
      <trkpt lat="41.74348" lon="8.65985">
        <ele>6.5</ele>
        <time>2014-04-29T13:00:59Z</time>
      </trkpt>
      <trkpt lat="41.74349" lon="8.65986">
        <ele>6.7</ele>
        <time>2014-04-29T13:01:09Z</time>
      </trkpt>
      <trkpt lat="41.74349" lon="8.65986">
        <ele>6.7</ele>
        <time>2014-04-29T13:01:19Z</time>
      </trkpt>
      <trkpt lat="41.7435" lon="8.65982">
        <ele>6.1</ele>
        <time>2014-04-29T13:01:37Z</time>
      </trkpt>
      <trkpt lat="41.74348" lon="8.65981">
        <ele>6</ele>
        <time>2014-04-29T13:01:47Z</time>
      </trkpt>
      <trkpt lat="41.74348" lon="8.65981">
        <ele>6</ele>
        <time>2014-04-29T13:01:57Z</time>
      </trkpt>
      <trkpt lat="41.74352" lon="8.65985">
        <ele>6.6</ele>
        <time>2014-04-29T13:02:07Z</time>
      </trkpt>
      <trkpt lat="41.74358" lon="8.65994">
        <ele>7.1</ele>
        <time>2014-04-29T13:02:17Z</time>
      </trkpt>
      <trkpt lat="41.74363" lon="8.66003">
        <ele>7.7</ele>
        <time>2014-04-29T13:02:27Z</time>
      </trkpt>
      <trkpt lat="41.74367" lon="8.66017">
        <ele>9.6</ele>
        <time>2014-04-29T13:02:37Z</time>
      </trkpt>
      <trkpt lat="41.74367" lon="8.66031">
        <ele>10.9</ele>
        <time>2014-04-29T13:02:47Z</time>
      </trkpt>
      <trkpt lat="41.74376" lon="8.66036">
        <ele>13</ele>
        <time>2014-04-29T13:02:57Z</time>
      </trkpt>
      <trkpt lat="41.74382" lon="8.66045">
        <ele>13.3</ele>
        <time>2014-04-29T13:03:07Z</time>
      </trkpt>
      <trkpt lat="41.7439" lon="8.66053">
        <ele>12.6</ele>
        <time>2014-04-29T13:03:17Z</time>
      </trkpt>
      <trkpt lat="41.74396" lon="8.66061">
        <ele>15</ele>
        <time>2014-04-29T13:03:27Z</time>
      </trkpt>
      <trkpt lat="41.74403" lon="8.66068">
        <ele>17.2</ele>
        <time>2014-04-29T13:03:38Z</time>
      </trkpt>
      <trkpt lat="41.74405" lon="8.66078">
        <ele>18.1</ele>
        <time>2014-04-29T13:03:48Z</time>
      </trkpt>
      <trkpt lat="41.74409" lon="8.66086">
        <ele>19</ele>
        <time>2014-04-29T13:03:58Z</time>
      </trkpt>
      <trkpt lat="41.74411" lon="8.66093">
        <ele>20.4</ele>
        <time>2014-04-29T13:04:08Z</time>
      </trkpt>
      <trkpt lat="41.74405" lon="8.66098">
        <ele>21.8</ele>
        <time>2014-04-29T13:04:18Z</time>
      </trkpt>
      <trkpt lat="41.74408" lon="8.66102">
        <ele>22.5</ele>
        <time>2014-04-29T13:04:28Z</time>
      </trkpt>
      <trkpt lat="41.74407" lon="8.66108">
        <ele>24.1</ele>
        <time>2014-04-29T13:04:38Z</time>
      </trkpt>
      <trkpt lat="41.7441" lon="8.66111">
        <ele>24.3</ele>
        <time>2014-04-29T13:04:48Z</time>
      </trkpt>
      <trkpt lat="41.74411" lon="8.66116">
        <ele>26.6</ele>
        <time>2014-04-29T13:04:58Z</time>
      </trkpt>
      <trkpt lat="41.74414" lon="8.66122">
        <ele>28.8</ele>
        <time>2014-04-29T13:05:08Z</time>
      </trkpt>
      <trkpt lat="41.74419" lon="8.66125">
        <ele>30.7</ele>
        <time>2014-04-29T13:05:18Z</time>
      </trkpt>
      <trkpt lat="41.7442" lon="8.66125">
        <ele>31.2</ele>
        <time>2014-04-29T13:05:28Z</time>
      </trkpt>
      <trkpt lat="41.7442" lon="8.66125">
        <ele>31.2</ele>
        <time>2014-04-29T13:05:38Z</time>
      </trkpt>
      <trkpt lat="41.7442" lon="8.66125">
        <ele>31.2</ele>
        <time>2014-04-29T13:05:48Z</time>
      </trkpt>
      <trkpt lat="41.7442" lon="8.66125">
        <ele>31.2</ele>
        <time>2014-04-29T13:05:58Z</time>
      </trkpt>
      <trkpt lat="41.74419" lon="8.66125">
        <ele>31.2</ele>
        <time>2014-04-29T13:06:08Z</time>
      </trkpt>
      <trkpt lat="41.74423" lon="8.66127">
        <ele>32.8</ele>
        <time>2014-04-29T13:06:18Z</time>
      </trkpt>
      <trkpt lat="41.7443" lon="8.66129">
        <ele>34.4</ele>
        <time>2014-04-29T13:06:28Z</time>
      </trkpt>
      <trkpt lat="41.74432" lon="8.66134">
        <ele>35.6</ele>
        <time>2014-04-29T13:06:38Z</time>
      </trkpt>
      <trkpt lat="41.74433" lon="8.66141">
        <ele>36.9</ele>
        <time>2014-04-29T13:06:48Z</time>
      </trkpt>
      <trkpt lat="41.74427" lon="8.66142">
        <ele>37.5</ele>
        <time>2014-04-29T13:06:59Z</time>
      </trkpt>
      <trkpt lat="41.74425" lon="8.66141">
        <ele>37.2</ele>
        <time>2014-04-29T13:07:09Z</time>
      </trkpt>
      <trkpt lat="41.74425" lon="8.66141">
        <ele>37.2</ele>
        <time>2014-04-29T13:07:19Z</time>
      </trkpt>
      <trkpt lat="41.74424" lon="8.66143">
        <ele>37.7</ele>
        <time>2014-04-29T13:07:29Z</time>
      </trkpt>
      <trkpt lat="41.74424" lon="8.66151">
        <ele>39.6</ele>
        <time>2014-04-29T13:07:39Z</time>
      </trkpt>
      <trkpt lat="41.74426" lon="8.66157">
        <ele>41.2</ele>
        <time>2014-04-29T13:07:49Z</time>
      </trkpt>
      <trkpt lat="41.74425" lon="8.66165">
        <ele>43.1</ele>
        <time>2014-04-29T13:07:59Z</time>
      </trkpt>
      <trkpt lat="41.74425" lon="8.6617">
        <ele>44</ele>
        <time>2014-04-29T13:08:09Z</time>
      </trkpt>
      <trkpt lat="41.74421" lon="8.6618">
        <ele>44.8</ele>
        <time>2014-04-29T13:08:19Z</time>
      </trkpt>
      <trkpt lat="41.74422" lon="8.66188">
        <ele>45.6</ele>
        <time>2014-04-29T13:08:29Z</time>
      </trkpt>
      <trkpt lat="41.7443" lon="8.66197">
        <ele>47.3</ele>
        <time>2014-04-29T13:08:39Z</time>
      </trkpt>
      <trkpt lat="41.74432" lon="8.66199">
        <ele>47.8</ele>
        <time>2014-04-29T13:08:49Z</time>
      </trkpt>
      <trkpt lat="41.74433" lon="8.66201">
        <ele>48.1</ele>
        <time>2014-04-29T13:08:59Z</time>
      </trkpt>
      <trkpt lat="41.74436" lon="8.662">
        <ele>48.2</ele>
        <time>2014-04-29T13:09:09Z</time>
      </trkpt>
      <trkpt lat="41.74439" lon="8.66198">
        <ele>48.1</ele>
        <time>2014-04-29T13:09:19Z</time>
      </trkpt>
      <trkpt lat="41.74439" lon="8.66197">
        <ele>48</ele>
        <time>2014-04-29T13:09:30Z</time>
      </trkpt>
      <trkpt lat="41.74439" lon="8.66197">
        <ele>48</ele>
        <time>2014-04-29T13:09:40Z</time>
      </trkpt>
      <trkpt lat="41.74439" lon="8.66197">
        <ele>48</ele>
        <time>2014-04-29T13:09:50Z</time>
      </trkpt>
      <trkpt lat="41.74439" lon="8.66197">
        <ele>48</ele>
        <time>2014-04-29T13:10:00Z</time>
      </trkpt>
      <trkpt lat="41.74439" lon="8.66197">
        <ele>48</ele>
        <time>2014-04-29T13:10:10Z</time>
      </trkpt>
      <trkpt lat="41.74439" lon="8.66197">
        <ele>48</ele>
        <time>2014-04-29T13:10:20Z</time>
      </trkpt>
      <trkpt lat="41.74441" lon="8.66196">
        <ele>48</ele>
        <time>2014-04-29T13:10:30Z</time>
      </trkpt>
      <trkpt lat="41.74447" lon="8.66198">
        <ele>49.2</ele>
        <time>2014-04-29T13:10:40Z</time>
      </trkpt>
      <trkpt lat="41.74452" lon="8.66206">
        <ele>51.9</ele>
        <time>2014-04-29T13:10:50Z</time>
      </trkpt>
      <trkpt lat="41.74455" lon="8.66216">
        <ele>54</ele>
        <time>2014-04-29T13:11:00Z</time>
      </trkpt>
      <trkpt lat="41.74452" lon="8.66222">
        <ele>54.6</ele>
        <time>2014-04-29T13:11:10Z</time>
      </trkpt>
      <trkpt lat="41.74452" lon="8.66222">
        <ele>54.6</ele>
        <time>2014-04-29T13:11:14Z</time>
      </trkpt>
      <trkpt lat="41.74452" lon="8.66223">
        <ele>54.7</ele>
        <time>2014-04-29T13:11:23Z</time>
      </trkpt>
      <trkpt lat="41.74452" lon="8.66225">
        <ele>55.5</ele>
        <time>2014-04-29T13:11:34Z</time>
      </trkpt>
      <trkpt lat="41.74452" lon="8.66225">
        <ele>55.4</ele>
        <time>2014-04-29T13:11:49Z</time>
      </trkpt>
      <trkpt lat="41.74452" lon="8.66225">
        <ele>55.4</ele>
        <time>2014-04-29T13:11:59Z</time>
      </trkpt>
      <trkpt lat="41.74453" lon="8.66228">
        <ele>56.4</ele>
        <time>2014-04-29T13:12:09Z</time>
      </trkpt>
      <trkpt lat="41.74456" lon="8.66236">
        <ele>59.3</ele>
        <time>2014-04-29T13:12:19Z</time>
      </trkpt>
      <trkpt lat="41.74458" lon="8.66244">
        <ele>62</ele>
        <time>2014-04-29T13:12:29Z</time>
      </trkpt>
      <trkpt lat="41.7446" lon="8.66252">
        <ele>64.7</ele>
        <time>2014-04-29T13:12:39Z</time>
      </trkpt>
      <trkpt lat="41.74459" lon="8.66259">
        <ele>65.4</ele>
        <time>2014-04-29T13:12:50Z</time>
      </trkpt>
      <trkpt lat="41.74455" lon="8.66265">
        <ele>65.2</ele>
        <time>2014-04-29T13:13:00Z</time>
      </trkpt>
      <trkpt lat="41.74454" lon="8.66266">
        <ele>65.1</ele>
        <time>2014-04-29T13:13:10Z</time>
      </trkpt>
      <trkpt lat="41.74454" lon="8.66265">
        <ele>65.1</ele>
        <time>2014-04-29T13:13:14Z</time>
      </trkpt>
      <trkpt lat="41.74454" lon="8.66265">
        <ele>65</ele>
        <time>2014-04-29T13:13:24Z</time>
      </trkpt>
      <trkpt lat="41.74453" lon="8.66265">
        <ele>64.9</ele>
        <time>2014-04-29T13:13:37Z</time>
      </trkpt>
      <trkpt lat="41.74454" lon="8.66266">
        <ele>65.1</ele>
        <time>2014-04-29T13:13:35Z</time>
      </trkpt>
      <trkpt lat="41.74449" lon="8.66271">
        <ele>64.9</ele>
        <time>2014-04-29T13:13:55Z</time>
      </trkpt>
      <trkpt lat="41.74449" lon="8.66271">
        <ele>64.8</ele>
        <time>2014-04-29T13:14:05Z</time>
      </trkpt>
      <trkpt lat="41.74449" lon="8.66271">
        <ele>64.9</ele>
        <time>2014-04-29T13:14:10Z</time>
      </trkpt>
      <trkpt lat="41.74449" lon="8.66272">
        <ele>65</ele>
        <time>2014-04-29T13:14:20Z</time>
      </trkpt>
      <trkpt lat="41.74456" lon="8.66276">
        <ele>67.2</ele>
        <time>2014-04-29T13:14:30Z</time>
      </trkpt>
      <trkpt lat="41.74467" lon="8.6628">
        <ele>70.1</ele>
        <time>2014-04-29T13:14:40Z</time>
      </trkpt>
      <trkpt lat="41.74474" lon="8.6628">
        <ele>71.2</ele>
        <time>2014-04-29T13:14:50Z</time>
      </trkpt>
      <trkpt lat="41.74476" lon="8.6629">
        <ele>71.9</ele>
        <time>2014-04-29T13:15:00Z</time>
      </trkpt>
      <trkpt lat="41.74477" lon="8.66293">
        <ele>72.1</ele>
        <time>2014-04-29T13:15:10Z</time>
      </trkpt>
      <trkpt lat="41.74477" lon="8.66297">
        <ele>72.3</ele>
        <time>2014-04-29T13:15:20Z</time>
      </trkpt>
      <trkpt lat="41.74482" lon="8.66309">
        <ele>72.7</ele>
        <time>2014-04-29T13:15:30Z</time>
      </trkpt>
      <trkpt lat="41.74484" lon="8.6631">
        <ele>72.7</ele>
        <time>2014-04-29T13:15:40Z</time>
      </trkpt>
      <trkpt lat="41.74484" lon="8.6631">
        <ele>72.7</ele>
        <time>2014-04-29T13:15:50Z</time>
      </trkpt>
      <trkpt lat="41.74483" lon="8.66309">
        <ele>72.7</ele>
        <time>2014-04-29T13:16:01Z</time>
      </trkpt>
      <trkpt lat="41.74483" lon="8.6631">
        <ele>72.7</ele>
        <time>2014-04-29T13:16:04Z</time>
      </trkpt>
      <trkpt lat="41.74506" lon="8.66322">
        <ele>71.6</ele>
        <time>2014-04-29T13:16:36Z</time>
      </trkpt>
      <trkpt lat="41.74485" lon="8.66345">
        <ele>73.7</ele>
        <time>2014-04-29T13:16:46Z</time>
      </trkpt>
      <trkpt lat="41.74485" lon="8.66363">
        <ele>74.7</ele>
        <time>2014-04-29T13:16:56Z</time>
      </trkpt>
      <trkpt lat="41.74488" lon="8.66376">
        <ele>75.4</ele>
        <time>2014-04-29T13:17:06Z</time>
      </trkpt>
      <trkpt lat="41.74483" lon="8.66386">
        <ele>76.4</ele>
        <time>2014-04-29T13:17:16Z</time>
      </trkpt>
      <trkpt lat="41.74479" lon="8.66398">
        <ele>77.8</ele>
        <time>2014-04-29T13:17:26Z</time>
      </trkpt>
      <trkpt lat="41.74474" lon="8.66409">
        <ele>79.2</ele>
        <time>2014-04-29T13:17:36Z</time>
      </trkpt>
      <trkpt lat="41.74476" lon="8.66418">
        <ele>80.3</ele>
        <time>2014-04-29T13:17:47Z</time>
      </trkpt>
      <trkpt lat="41.74475" lon="8.66425">
        <ele>82.1</ele>
        <time>2014-04-29T13:17:57Z</time>
      </trkpt>
      <trkpt lat="41.74483" lon="8.66426">
        <ele>82.1</ele>
        <time>2014-04-29T13:18:07Z</time>
      </trkpt>
      <trkpt lat="41.7449" lon="8.6643">
        <ele>82.7</ele>
        <time>2014-04-29T13:18:17Z</time>
      </trkpt>
      <trkpt lat="41.74492" lon="8.66434">
        <ele>83.5</ele>
        <time>2014-04-29T13:18:27Z</time>
      </trkpt>
      <trkpt lat="41.74494" lon="8.66443">
        <ele>85.2</ele>
        <time>2014-04-29T13:18:37Z</time>
      </trkpt>
      <trkpt lat="41.74487" lon="8.66452">
        <ele>86.6</ele>
        <time>2014-04-29T13:18:47Z</time>
      </trkpt>
      <trkpt lat="41.7449" lon="8.66464">
        <ele>87.6</ele>
        <time>2014-04-29T13:18:57Z</time>
      </trkpt>
      <trkpt lat="41.74495" lon="8.66472">
        <ele>88.2</ele>
        <time>2014-04-29T13:19:07Z</time>
      </trkpt>
      <trkpt lat="41.74501" lon="8.6648">
        <ele>89.2</ele>
        <time>2014-04-29T13:19:17Z</time>
      </trkpt>
      <trkpt lat="41.74503" lon="8.66489">
        <ele>90.7</ele>
        <time>2014-04-29T13:19:27Z</time>
      </trkpt>
      <trkpt lat="41.74501" lon="8.66499">
        <ele>92.7</ele>
        <time>2014-04-29T13:19:37Z</time>
      </trkpt>
      <trkpt lat="41.74498" lon="8.66507">
        <ele>94.2</ele>
        <time>2014-04-29T13:19:47Z</time>
      </trkpt>
      <trkpt lat="41.74496" lon="8.66518">
        <ele>95.4</ele>
        <time>2014-04-29T13:19:58Z</time>
      </trkpt>
      <trkpt lat="41.74495" lon="8.66523">
        <ele>96.3</ele>
        <time>2014-04-29T13:20:08Z</time>
      </trkpt>
      <trkpt lat="41.74501" lon="8.66526">
        <ele>98.5</ele>
        <time>2014-04-29T13:20:18Z</time>
      </trkpt>
      <trkpt lat="41.74507" lon="8.66531">
        <ele>97.9</ele>
        <time>2014-04-29T13:20:28Z</time>
      </trkpt>
      <trkpt lat="41.74512" lon="8.66542">
        <ele>98.3</ele>
        <time>2014-04-29T13:20:39Z</time>
      </trkpt>
      <trkpt lat="41.74514" lon="8.66552">
        <ele>99.4</ele>
        <time>2014-04-29T13:20:49Z</time>
      </trkpt>
      <trkpt lat="41.74518" lon="8.66558">
        <ele>99.8</ele>
        <time>2014-04-29T13:20:59Z</time>
      </trkpt>
      <trkpt lat="41.74522" lon="8.66563">
        <ele>100</ele>
        <time>2014-04-29T13:21:09Z</time>
      </trkpt>
      <trkpt lat="41.74522" lon="8.66574">
        <ele>100.9</ele>
        <time>2014-04-29T13:21:19Z</time>
      </trkpt>
      <trkpt lat="41.74526" lon="8.66579">
        <ele>102.1</ele>
        <time>2014-04-29T13:21:29Z</time>
      </trkpt>
      <trkpt lat="41.7453" lon="8.66581">
        <ele>102.7</ele>
        <time>2014-04-29T13:21:39Z</time>
      </trkpt>
      <trkpt lat="41.74532" lon="8.66583">
        <ele>103.1</ele>
        <time>2014-04-29T13:21:49Z</time>
      </trkpt>
      <trkpt lat="41.74532" lon="8.66583">
        <ele>103.1</ele>
        <time>2014-04-29T13:21:59Z</time>
      </trkpt>
      <trkpt lat="41.74537" lon="8.66587">
        <ele>103.8</ele>
        <time>2014-04-29T13:22:09Z</time>
      </trkpt>
      <trkpt lat="41.74543" lon="8.66588">
        <ele>104.1</ele>
        <time>2014-04-29T13:22:19Z</time>
      </trkpt>
      <trkpt lat="41.74546" lon="8.66597">
        <ele>105.4</ele>
        <time>2014-04-29T13:22:29Z</time>
      </trkpt>
      <trkpt lat="41.74549" lon="8.66603">
        <ele>106.4</ele>
        <time>2014-04-29T13:22:40Z</time>
      </trkpt>
      <trkpt lat="41.74553" lon="8.66609">
        <ele>107.5</ele>
        <time>2014-04-29T13:22:50Z</time>
      </trkpt>
      <trkpt lat="41.74558" lon="8.66617">
        <ele>109</ele>
        <time>2014-04-29T13:23:00Z</time>
      </trkpt>
      <trkpt lat="41.7456" lon="8.66626">
        <ele>110.3</ele>
        <time>2014-04-29T13:23:10Z</time>
      </trkpt>
      <trkpt lat="41.7456" lon="8.6663">
        <ele>111.2</ele>
        <time>2014-04-29T13:23:20Z</time>
      </trkpt>
      <trkpt lat="41.74562" lon="8.66639">
        <ele>112.7</ele>
        <time>2014-04-29T13:23:30Z</time>
      </trkpt>
      <trkpt lat="41.74565" lon="8.66649">
        <ele>113.3</ele>
        <time>2014-04-29T13:23:40Z</time>
      </trkpt>
      <trkpt lat="41.74569" lon="8.6666">
        <ele>114.1</ele>
        <time>2014-04-29T13:23:50Z</time>
      </trkpt>
      <trkpt lat="41.7457" lon="8.66671">
        <ele>114.9</ele>
        <time>2014-04-29T13:24:00Z</time>
      </trkpt>
      <trkpt lat="41.74574" lon="8.66683">
        <ele>114.9</ele>
        <time>2014-04-29T13:24:10Z</time>
      </trkpt>
      <trkpt lat="41.74575" lon="8.66695">
        <ele>115.4</ele>
        <time>2014-04-29T13:24:20Z</time>
      </trkpt>
      <trkpt lat="41.74579" lon="8.66706">
        <ele>115.9</ele>
        <time>2014-04-29T13:24:30Z</time>
      </trkpt>
      <trkpt lat="41.74582" lon="8.66717">
        <ele>117.2</ele>
        <time>2014-04-29T13:24:40Z</time>
      </trkpt>
      <trkpt lat="41.74587" lon="8.66725">
        <ele>118.1</ele>
        <time>2014-04-29T13:24:50Z</time>
      </trkpt>
      <trkpt lat="41.74587" lon="8.66734">
        <ele>119</ele>
        <time>2014-04-29T13:25:00Z</time>
      </trkpt>
      <trkpt lat="41.74592" lon="8.66741">
        <ele>120.1</ele>
        <time>2014-04-29T13:25:10Z</time>
      </trkpt>
      <trkpt lat="41.74594" lon="8.6675">
        <ele>121.6</ele>
        <time>2014-04-29T13:25:20Z</time>
      </trkpt>
      <trkpt lat="41.74596" lon="8.6676">
        <ele>123.4</ele>
        <time>2014-04-29T13:25:30Z</time>
      </trkpt>
      <trkpt lat="41.746" lon="8.66766">
        <ele>125</ele>
        <time>2014-04-29T13:25:40Z</time>
      </trkpt>
      <trkpt lat="41.74599" lon="8.66769">
        <ele>125.3</ele>
        <time>2014-04-29T13:25:50Z</time>
      </trkpt>
      <trkpt lat="41.74598" lon="8.66773">
        <ele>125.9</ele>
        <time>2014-04-29T13:26:00Z</time>
      </trkpt>
      <trkpt lat="41.74598" lon="8.66773">
        <ele>125.8</ele>
        <time>2014-04-29T13:26:10Z</time>
      </trkpt>
      <trkpt lat="41.74598" lon="8.66773">
        <ele>125.9</ele>
        <time>2014-04-29T13:26:20Z</time>
      </trkpt>
      <trkpt lat="41.74598" lon="8.66774">
        <ele>125.9</ele>
        <time>2014-04-29T13:26:30Z</time>
      </trkpt>
      <trkpt lat="41.74598" lon="8.66774">
        <ele>125.9</ele>
        <time>2014-04-29T13:26:40Z</time>
      </trkpt>
      <trkpt lat="41.74598" lon="8.66774">
        <ele>126</ele>
        <time>2014-04-29T13:26:50Z</time>
      </trkpt>
      <trkpt lat="41.74598" lon="8.66775">
        <ele>126.1</ele>
        <time>2014-04-29T13:27:01Z</time>
      </trkpt>
      <trkpt lat="41.74598" lon="8.66775">
        <ele>126.2</ele>
        <time>2014-04-29T13:27:11Z</time>
      </trkpt>
      <trkpt lat="41.74598" lon="8.66775">
        <ele>126.1</ele>
        <time>2014-04-29T13:27:21Z</time>
      </trkpt>
      <trkpt lat="41.74598" lon="8.66775">
        <ele>126.1</ele>
        <time>2014-04-29T13:27:31Z</time>
      </trkpt>
      <trkpt lat="41.74598" lon="8.66775">
        <ele>126.1</ele>
        <time>2014-04-29T13:27:41Z</time>
      </trkpt>
      <trkpt lat="41.74598" lon="8.66775">
        <ele>126.1</ele>
        <time>2014-04-29T13:27:51Z</time>
      </trkpt>
      <trkpt lat="41.74598" lon="8.66775">
        <ele>126.1</ele>
        <time>2014-04-29T13:28:01Z</time>
      </trkpt>
      <trkpt lat="41.74598" lon="8.66775">
        <ele>126.2</ele>
        <time>2014-04-29T13:28:11Z</time>
      </trkpt>
      <trkpt lat="41.74598" lon="8.66775">
        <ele>126.2</ele>
        <time>2014-04-29T13:28:21Z</time>
      </trkpt>
      <trkpt lat="41.74598" lon="8.66775">
        <ele>126.2</ele>
        <time>2014-04-29T13:28:31Z</time>
      </trkpt>
      <trkpt lat="41.74598" lon="8.66775">
        <ele>126.2</ele>
        <time>2014-04-29T13:28:41Z</time>
      </trkpt>
      <trkpt lat="41.74598" lon="8.66775">
        <ele>126.2</ele>
        <time>2014-04-29T13:28:51Z</time>
      </trkpt>
      <trkpt lat="41.74598" lon="8.66775">
        <ele>126.2</ele>
        <time>2014-04-29T13:29:01Z</time>
      </trkpt>
      <trkpt lat="41.74598" lon="8.66775">
        <ele>126.2</ele>
        <time>2014-04-29T13:29:11Z</time>
      </trkpt>
      <trkpt lat="41.74598" lon="8.66775">
        <ele>126.2</ele>
        <time>2014-04-29T13:29:21Z</time>
      </trkpt>
      <trkpt lat="41.74598" lon="8.66775">
        <ele>126.2</ele>
        <time>2014-04-29T13:29:31Z</time>
      </trkpt>
      <trkpt lat="41.74598" lon="8.66775">
        <ele>126.2</ele>
        <time>2014-04-29T13:29:41Z</time>
      </trkpt>
      <trkpt lat="41.74598" lon="8.66775">
        <ele>126.2</ele>
        <time>2014-04-29T13:29:51Z</time>
      </trkpt>
      <trkpt lat="41.74598" lon="8.66775">
        <ele>126.2</ele>
        <time>2014-04-29T13:30:01Z</time>
      </trkpt>
      <trkpt lat="41.74598" lon="8.66775">
        <ele>126.2</ele>
        <time>2014-04-29T13:30:11Z</time>
      </trkpt>
      <trkpt lat="41.74598" lon="8.66775">
        <ele>126.2</ele>
        <time>2014-04-29T13:30:21Z</time>
      </trkpt>
      <trkpt lat="41.74598" lon="8.66775">
        <ele>126.2</ele>
        <time>2014-04-29T13:30:31Z</time>
      </trkpt>
      <trkpt lat="41.74598" lon="8.66775">
        <ele>126.2</ele>
        <time>2014-04-29T13:30:41Z</time>
      </trkpt>
      <trkpt lat="41.74601" lon="8.6678">
        <ele>127.5</ele>
        <time>2014-04-29T13:30:52Z</time>
      </trkpt>
      <trkpt lat="41.74601" lon="8.66781">
        <ele>127.7</ele>
        <time>2014-04-29T13:31:02Z</time>
      </trkpt>
      <trkpt lat="41.74604" lon="8.66787">
        <ele>129.5</ele>
        <time>2014-04-29T13:31:12Z</time>
      </trkpt>
      <trkpt lat="41.74606" lon="8.66794">
        <ele>131.3</ele>
        <time>2014-04-29T13:31:22Z</time>
      </trkpt>
      <trkpt lat="41.74606" lon="8.66803">
        <ele>133</ele>
        <time>2014-04-29T13:31:32Z</time>
      </trkpt>
      <trkpt lat="41.74609" lon="8.66812">
        <ele>135.2</ele>
        <time>2014-04-29T13:31:42Z</time>
      </trkpt>
      <trkpt lat="41.74613" lon="8.66821">
        <ele>136.9</ele>
        <time>2014-04-29T13:31:52Z</time>
      </trkpt>
      <trkpt lat="41.74617" lon="8.66832">
        <ele>137.5</ele>
        <time>2014-04-29T13:32:02Z</time>
      </trkpt>
      <trkpt lat="41.7462" lon="8.66845">
        <ele>137.6</ele>
        <time>2014-04-29T13:32:12Z</time>
      </trkpt>
      <trkpt lat="41.74618" lon="8.66859">
        <ele>138.6</ele>
        <time>2014-04-29T13:32:22Z</time>
      </trkpt>
      <trkpt lat="41.74618" lon="8.66874">
        <ele>139.6</ele>
        <time>2014-04-29T13:32:32Z</time>
      </trkpt>
      <trkpt lat="41.74621" lon="8.66888">
        <ele>140.2</ele>
        <time>2014-04-29T13:32:42Z</time>
      </trkpt>
      <trkpt lat="41.74619" lon="8.66902">
        <ele>141.6</ele>
        <time>2014-04-29T13:32:52Z</time>
      </trkpt>
      <trkpt lat="41.74625" lon="8.66912">
        <ele>142.5</ele>
        <time>2014-04-29T13:33:02Z</time>
      </trkpt>
      <trkpt lat="41.74631" lon="8.66921">
        <ele>143.5</ele>
        <time>2014-04-29T13:33:12Z</time>
      </trkpt>
      <trkpt lat="41.7463" lon="8.66934">
        <ele>144.7</ele>
        <time>2014-04-29T13:33:22Z</time>
      </trkpt>
      <trkpt lat="41.74631" lon="8.66947">
        <ele>145.9</ele>
        <time>2014-04-29T13:33:32Z</time>
      </trkpt>
      <trkpt lat="41.7464" lon="8.66954">
        <ele>147.4</ele>
        <time>2014-04-29T13:33:42Z</time>
      </trkpt>
      <trkpt lat="41.74642" lon="8.66966">
        <ele>148.1</ele>
        <time>2014-04-29T13:33:52Z</time>
      </trkpt>
      <trkpt lat="41.74646" lon="8.66978">
        <ele>148.3</ele>
        <time>2014-04-29T13:34:02Z</time>
      </trkpt>
      <trkpt lat="41.74647" lon="8.6699">
        <ele>148.6</ele>
        <time>2014-04-29T13:34:13Z</time>
      </trkpt>
      <trkpt lat="41.7465" lon="8.67004">
        <ele>148.9</ele>
        <time>2014-04-29T13:34:23Z</time>
      </trkpt>
      <trkpt lat="41.74658" lon="8.67013">
        <ele>149.5</ele>
        <time>2014-04-29T13:34:33Z</time>
      </trkpt>
      <trkpt lat="41.74664" lon="8.67023">
        <ele>151</ele>
        <time>2014-04-29T13:34:43Z</time>
      </trkpt>
      <trkpt lat="41.74662" lon="8.67034">
        <ele>151.2</ele>
        <time>2014-04-29T13:34:53Z</time>
      </trkpt>
      <trkpt lat="41.74665" lon="8.67046">
        <ele>152.8</ele>
        <time>2014-04-29T13:35:03Z</time>
      </trkpt>
      <trkpt lat="41.74668" lon="8.67058">
        <ele>153.8</ele>
        <time>2014-04-29T13:35:13Z</time>
      </trkpt>
      <trkpt lat="41.7467" lon="8.67065">
        <ele>153.7</ele>
        <time>2014-04-29T13:35:23Z</time>
      </trkpt>
      <trkpt lat="41.7467" lon="8.67065">
        <ele>153.7</ele>
        <time>2014-04-29T13:35:33Z</time>
      </trkpt>
      <trkpt lat="41.7467" lon="8.67065">
        <ele>153.7</ele>
        <time>2014-04-29T13:35:43Z</time>
      </trkpt>
      <trkpt lat="41.7467" lon="8.67065">
        <ele>153.7</ele>
        <time>2014-04-29T13:35:53Z</time>
      </trkpt>
      <trkpt lat="41.7467" lon="8.67065">
        <ele>153.7</ele>
        <time>2014-04-29T13:36:03Z</time>
      </trkpt>
      <trkpt lat="41.7467" lon="8.67065">
        <ele>153.7</ele>
        <time>2014-04-29T13:36:13Z</time>
      </trkpt>
      <trkpt lat="41.7467" lon="8.67065">
        <ele>153.7</ele>
        <time>2014-04-29T13:36:23Z</time>
      </trkpt>
      <trkpt lat="41.7467" lon="8.67065">
        <ele>153.7</ele>
        <time>2014-04-29T13:36:34Z</time>
      </trkpt>
      <trkpt lat="41.7467" lon="8.67066">
        <ele>153.7</ele>
        <time>2014-04-29T13:36:44Z</time>
      </trkpt>
      <trkpt lat="41.7467" lon="8.67066">
        <ele>153.7</ele>
        <time>2014-04-29T13:36:54Z</time>
      </trkpt>
      <trkpt lat="41.7467" lon="8.67066">
        <ele>153.6</ele>
        <time>2014-04-29T13:37:04Z</time>
      </trkpt>
      <trkpt lat="41.7467" lon="8.67066">
        <ele>153.6</ele>
        <time>2014-04-29T13:37:14Z</time>
      </trkpt>
      <trkpt lat="41.7467" lon="8.67066">
        <ele>153.7</ele>
        <time>2014-04-29T13:37:24Z</time>
      </trkpt>
      <trkpt lat="41.7467" lon="8.67066">
        <ele>153.7</ele>
        <time>2014-04-29T13:37:34Z</time>
      </trkpt>
      <trkpt lat="41.7467" lon="8.67066">
        <ele>153.7</ele>
        <time>2014-04-29T13:37:44Z</time>
      </trkpt>
      <trkpt lat="41.7467" lon="8.67066">
        <ele>153.7</ele>
        <time>2014-04-29T13:37:54Z</time>
      </trkpt>
      <trkpt lat="41.7467" lon="8.67066">
        <ele>153.7</ele>
        <time>2014-04-29T13:38:04Z</time>
      </trkpt>
      <trkpt lat="41.7467" lon="8.67066">
        <ele>153.7</ele>
        <time>2014-04-29T13:38:14Z</time>
      </trkpt>
      <trkpt lat="41.7467" lon="8.67066">
        <ele>153.7</ele>
        <time>2014-04-29T13:38:24Z</time>
      </trkpt>
      <trkpt lat="41.7467" lon="8.67066">
        <ele>153.7</ele>
        <time>2014-04-29T13:38:34Z</time>
      </trkpt>
      <trkpt lat="41.7467" lon="8.67066">
        <ele>153.7</ele>
        <time>2014-04-29T13:38:44Z</time>
      </trkpt>
      <trkpt lat="41.7467" lon="8.67066">
        <ele>153.7</ele>
        <time>2014-04-29T13:38:54Z</time>
      </trkpt>
      <trkpt lat="41.7467" lon="8.67066">
        <ele>153.7</ele>
        <time>2014-04-29T13:39:05Z</time>
      </trkpt>
      <trkpt lat="41.74669" lon="8.6708">
        <ele>153.4</ele>
        <time>2014-04-29T13:39:15Z</time>
      </trkpt>
      <trkpt lat="41.74668" lon="8.6709">
        <ele>152.6</ele>
        <time>2014-04-29T13:39:25Z</time>
      </trkpt>
      <trkpt lat="41.74672" lon="8.67102">
        <ele>152.4</ele>
        <time>2014-04-29T13:39:35Z</time>
      </trkpt>
      <trkpt lat="41.74673" lon="8.67119">
        <ele>151.3</ele>
        <time>2014-04-29T13:39:45Z</time>
      </trkpt>
      <trkpt lat="41.74674" lon="8.67127">
        <ele>150.8</ele>
        <time>2014-04-29T13:39:55Z</time>
      </trkpt>
      <trkpt lat="41.74674" lon="8.67127">
        <ele>150.8</ele>
        <time>2014-04-29T13:40:04Z</time>
      </trkpt>
      <trkpt lat="41.74675" lon="8.67131">
        <ele>150.6</ele>
        <time>2014-04-29T13:40:18Z</time>
      </trkpt>
      <trkpt lat="41.74676" lon="8.67131">
        <ele>150.9</ele>
        <time>2014-04-29T13:40:29Z</time>
      </trkpt>
      <trkpt lat="41.74676" lon="8.67133">
        <ele>150.8</ele>
        <time>2014-04-29T13:40:36Z</time>
      </trkpt>
      <trkpt lat="41.74681" lon="8.67145">
        <ele>150.4</ele>
        <time>2014-04-29T13:40:46Z</time>
      </trkpt>
      <trkpt lat="41.74683" lon="8.67156">
        <ele>149.2</ele>
        <time>2014-04-29T13:40:57Z</time>
      </trkpt>
      <trkpt lat="41.74688" lon="8.67173">
        <ele>148</ele>
        <time>2014-04-29T13:41:07Z</time>
      </trkpt>
      <trkpt lat="41.74692" lon="8.67181">
        <ele>148.2</ele>
        <time>2014-04-29T13:41:17Z</time>
      </trkpt>
      <trkpt lat="41.74696" lon="8.67195">
        <ele>147.2</ele>
        <time>2014-04-29T13:41:27Z</time>
      </trkpt>
      <trkpt lat="41.74702" lon="8.67207">
        <ele>146.1</ele>
        <time>2014-04-29T13:41:37Z</time>
      </trkpt>
      <trkpt lat="41.74708" lon="8.67218">
        <ele>145.1</ele>
        <time>2014-04-29T13:41:47Z</time>
      </trkpt>
      <trkpt lat="41.74712" lon="8.67233">
        <ele>143.8</ele>
        <time>2014-04-29T13:41:58Z</time>
      </trkpt>
      <trkpt lat="41.7472" lon="8.67248">
        <ele>143</ele>
        <time>2014-04-29T13:42:08Z</time>
      </trkpt>
      <trkpt lat="41.74724" lon="8.67257">
        <ele>142.5</ele>
        <time>2014-04-29T13:42:18Z</time>
      </trkpt>
      <trkpt lat="41.74728" lon="8.67269">
        <ele>141.7</ele>
        <time>2014-04-29T13:42:28Z</time>
      </trkpt>
      <trkpt lat="41.74734" lon="8.67278">
        <ele>141.2</ele>
        <time>2014-04-29T13:42:38Z</time>
      </trkpt>
      <trkpt lat="41.74736" lon="8.6729">
        <ele>140.6</ele>
        <time>2014-04-29T13:42:48Z</time>
      </trkpt>
      <trkpt lat="41.74736" lon="8.67303">
        <ele>139.7</ele>
        <time>2014-04-29T13:42:58Z</time>
      </trkpt>
      <trkpt lat="41.74735" lon="8.67315">
        <ele>139.3</ele>
        <time>2014-04-29T13:43:09Z</time>
      </trkpt>
      <trkpt lat="41.74735" lon="8.67315">
        <ele>139.3</ele>
        <time>2014-04-29T13:43:19Z</time>
      </trkpt>
      <trkpt lat="41.74735" lon="8.67315">
        <ele>139.3</ele>
        <time>2014-04-29T13:43:29Z</time>
      </trkpt>
      <trkpt lat="41.74735" lon="8.67322">
        <ele>139.2</ele>
        <time>2014-04-29T13:43:39Z</time>
      </trkpt>
      <trkpt lat="41.74734" lon="8.67337">
        <ele>138.7</ele>
        <time>2014-04-29T13:43:49Z</time>
      </trkpt>
      <trkpt lat="41.74738" lon="8.67351">
        <ele>138.5</ele>
        <time>2014-04-29T13:43:59Z</time>
      </trkpt>
      <trkpt lat="41.74741" lon="8.67363">
        <ele>138.4</ele>
        <time>2014-04-29T13:44:09Z</time>
      </trkpt>
      <trkpt lat="41.74742" lon="8.67377">
        <ele>138.8</ele>
        <time>2014-04-29T13:44:20Z</time>
      </trkpt>
      <trkpt lat="41.74743" lon="8.67388">
        <ele>139.2</ele>
        <time>2014-04-29T13:44:30Z</time>
      </trkpt>
      <trkpt lat="41.74743" lon="8.67389">
        <ele>139.3</ele>
        <time>2014-04-29T13:44:40Z</time>
      </trkpt>
      <trkpt lat="41.74742" lon="8.674">
        <ele>139.6</ele>
        <time>2014-04-29T13:44:50Z</time>
      </trkpt>
      <trkpt lat="41.74742" lon="8.67411">
        <ele>140.2</ele>
        <time>2014-04-29T13:45:00Z</time>
      </trkpt>
      <trkpt lat="41.74742" lon="8.67424">
        <ele>140.7</ele>
        <time>2014-04-29T13:45:10Z</time>
      </trkpt>
      <trkpt lat="41.74743" lon="8.67437">
        <ele>141.2</ele>
        <time>2014-04-29T13:45:20Z</time>
      </trkpt>
      <trkpt lat="41.74738" lon="8.67448">
        <ele>141.1</ele>
        <time>2014-04-29T13:45:31Z</time>
      </trkpt>
      <trkpt lat="41.74737" lon="8.67447">
        <ele>141</ele>
        <time>2014-04-29T13:45:41Z</time>
      </trkpt>
      <trkpt lat="41.74736" lon="8.67447">
        <ele>141</ele>
        <time>2014-04-29T13:45:45Z</time>
      </trkpt>
      <trkpt lat="41.74733" lon="8.67446">
        <ele>140.8</ele>
        <time>2014-04-29T13:45:56Z</time>
      </trkpt>
      <trkpt lat="41.74733" lon="8.67446">
        <ele>140.8</ele>
        <time>2014-04-29T13:46:06Z</time>
      </trkpt>
      <trkpt lat="41.74733" lon="8.67446">
        <ele>140.8</ele>
        <time>2014-04-29T13:46:17Z</time>
      </trkpt>
      <trkpt lat="41.74731" lon="8.67445">
        <ele>140.7</ele>
        <time>2014-04-29T13:46:20Z</time>
      </trkpt>
      <trkpt lat="41.74732" lon="8.67446">
        <ele>140.7</ele>
        <time>2014-04-29T13:46:33Z</time>
      </trkpt>
      <trkpt lat="41.74733" lon="8.67447">
        <ele>140.7</ele>
        <time>2014-04-29T13:46:49Z</time>
      </trkpt>
      <trkpt lat="41.74733" lon="8.67448">
        <ele>140.8</ele>
        <time>2014-04-29T13:46:53Z</time>
      </trkpt>
      <trkpt lat="41.74733" lon="8.67447">
        <ele>140.8</ele>
        <time>2014-04-29T13:47:04Z</time>
      </trkpt>
      <trkpt lat="41.74734" lon="8.67448">
        <ele>140.8</ele>
        <time>2014-04-29T13:47:17Z</time>
      </trkpt>
      <trkpt lat="41.74734" lon="8.67448">
        <ele>140.8</ele>
        <time>2014-04-29T13:47:28Z</time>
      </trkpt>
      <trkpt lat="41.74734" lon="8.67448">
        <ele>140.8</ele>
        <time>2014-04-29T13:47:38Z</time>
      </trkpt>
      <trkpt lat="41.74734" lon="8.67449">
        <ele>140.8</ele>
        <time>2014-04-29T13:47:48Z</time>
      </trkpt>
      <trkpt lat="41.74734" lon="8.67451">
        <ele>140.9</ele>
        <time>2014-04-29T13:47:58Z</time>
      </trkpt>
      <trkpt lat="41.74734" lon="8.67452">
        <ele>140.9</ele>
        <time>2014-04-29T13:48:08Z</time>
      </trkpt>
      <trkpt lat="41.74734" lon="8.67453">
        <ele>140.9</ele>
        <time>2014-04-29T13:48:18Z</time>
      </trkpt>
      <trkpt lat="41.74736" lon="8.67451">
        <ele>141</ele>
        <time>2014-04-29T13:48:28Z</time>
      </trkpt>
      <trkpt lat="41.74736" lon="8.67451">
        <ele>141</ele>
        <time>2014-04-29T13:48:38Z</time>
      </trkpt>
      <trkpt lat="41.74736" lon="8.67451">
        <ele>141</ele>
        <time>2014-04-29T13:48:48Z</time>
      </trkpt>
      <trkpt lat="41.74736" lon="8.67451">
        <ele>141</ele>
        <time>2014-04-29T13:48:58Z</time>
      </trkpt>
      <trkpt lat="41.74737" lon="8.67457">
        <ele>141</ele>
        <time>2014-04-29T13:49:09Z</time>
      </trkpt>
      <trkpt lat="41.7474" lon="8.67474">
        <ele>141.2</ele>
        <time>2014-04-29T13:49:19Z</time>
      </trkpt>
      <trkpt lat="41.74736" lon="8.6749">
        <ele>140.7</ele>
        <time>2014-04-29T13:49:29Z</time>
      </trkpt>
      <trkpt lat="41.74734" lon="8.67495">
        <ele>140.6</ele>
        <time>2014-04-29T13:49:39Z</time>
      </trkpt>
      <trkpt lat="41.74737" lon="8.67505">
        <ele>140.6</ele>
        <time>2014-04-29T13:49:49Z</time>
      </trkpt>
      <trkpt lat="41.74737" lon="8.6751">
        <ele>140.7</ele>
        <time>2014-04-29T13:49:59Z</time>
      </trkpt>
      <trkpt lat="41.74736" lon="8.67503">
        <ele>140.6</ele>
        <time>2014-04-29T13:50:05Z</time>
      </trkpt>
      <trkpt lat="41.74736" lon="8.67506">
        <ele>140.6</ele>
        <time>2014-04-29T13:50:18Z</time>
      </trkpt>
      <trkpt lat="41.7474" lon="8.67516">
        <ele>140.7</ele>
        <time>2014-04-29T13:50:29Z</time>
      </trkpt>
      <trkpt lat="41.74761" lon="8.67542">
        <ele>136.1</ele>
        <time>2014-04-29T13:51:29Z</time>
      </trkpt>
      <trkpt lat="41.74754" lon="8.67526">
        <ele>140.1</ele>
        <time>2014-04-29T13:51:39Z</time>
      </trkpt>
      <trkpt lat="41.7475" lon="8.67525">
        <ele>140.9</ele>
        <time>2014-04-29T13:51:49Z</time>
      </trkpt>
      <trkpt lat="41.74741" lon="8.67513">
        <ele>140.6</ele>
        <time>2014-04-29T13:52:00Z</time>
      </trkpt>
      <trkpt lat="41.7474" lon="8.67513">
        <ele>140.7</ele>
        <time>2014-04-29T13:52:10Z</time>
      </trkpt>
      <trkpt lat="41.74739" lon="8.67512">
        <ele>140.7</ele>
        <time>2014-04-29T13:52:20Z</time>
      </trkpt>
      <trkpt lat="41.74743" lon="8.67513">
        <ele>140.6</ele>
        <time>2014-04-29T13:52:30Z</time>
      </trkpt>
      <trkpt lat="41.74753" lon="8.6752">
        <ele>140.2</ele>
        <time>2014-04-29T13:52:40Z</time>
      </trkpt>
      <trkpt lat="41.74755" lon="8.67518">
        <ele>139.9</ele>
        <time>2014-04-29T13:52:50Z</time>
      </trkpt>
      <trkpt lat="41.74753" lon="8.67528">
        <ele>140.4</ele>
        <time>2014-04-29T13:53:00Z</time>
      </trkpt>
      <trkpt lat="41.74753" lon="8.67537">
        <ele>139</ele>
        <time>2014-04-29T13:53:10Z</time>
      </trkpt>
      <trkpt lat="41.74753" lon="8.67538">
        <ele>138.8</ele>
        <time>2014-04-29T13:53:20Z</time>
      </trkpt>
      <trkpt lat="41.74753" lon="8.67538">
        <ele>138.9</ele>
        <time>2014-04-29T13:53:30Z</time>
      </trkpt>
      <trkpt lat="41.74753" lon="8.67538">
        <ele>138.9</ele>
        <time>2014-04-29T13:53:40Z</time>
      </trkpt>
      <trkpt lat="41.74753" lon="8.67538">
        <ele>138.9</ele>
        <time>2014-04-29T13:53:50Z</time>
      </trkpt>
      <trkpt lat="41.74751" lon="8.67536">
        <ele>139.6</ele>
        <time>2014-04-29T13:54:00Z</time>
      </trkpt>
      <trkpt lat="41.74749" lon="8.67534">
        <ele>140.1</ele>
        <time>2014-04-29T13:54:10Z</time>
      </trkpt>
      <trkpt lat="41.74746" lon="8.67518">
        <ele>140.7</ele>
        <time>2014-04-29T13:54:20Z</time>
      </trkpt>
      <trkpt lat="41.74745" lon="8.67515">
        <ele>140.6</ele>
        <time>2014-04-29T13:54:30Z</time>
      </trkpt>
      <trkpt lat="41.74746" lon="8.67518">
        <ele>140.7</ele>
        <time>2014-04-29T13:54:40Z</time>
      </trkpt>
      <trkpt lat="41.74749" lon="8.67517">
        <ele>140.6</ele>
        <time>2014-04-29T13:54:50Z</time>
      </trkpt>
      <trkpt lat="41.74747" lon="8.67515">
        <ele>140.6</ele>
        <time>2014-04-29T13:55:00Z</time>
      </trkpt>
      <trkpt lat="41.74744" lon="8.6751">
        <ele>140.5</ele>
        <time>2014-04-29T13:55:10Z</time>
      </trkpt>
      <trkpt lat="41.74743" lon="8.67508">
        <ele>140.5</ele>
        <time>2014-04-29T13:55:20Z</time>
      </trkpt>
      <trkpt lat="41.74745" lon="8.67511">
        <ele>140.5</ele>
        <time>2014-04-29T13:55:30Z</time>
      </trkpt>
      <trkpt lat="41.74753" lon="8.67516">
        <ele>140.1</ele>
        <time>2014-04-29T13:55:40Z</time>
      </trkpt>
      <trkpt lat="41.74747" lon="8.67531">
        <ele>140.6</ele>
        <time>2014-04-29T13:55:50Z</time>
      </trkpt>
      <trkpt lat="41.74749" lon="8.67529">
        <ele>140.8</ele>
        <time>2014-04-29T13:56:00Z</time>
      </trkpt>
      <trkpt lat="41.74749" lon="8.67529">
        <ele>140.8</ele>
        <time>2014-04-29T13:56:10Z</time>
      </trkpt>
      <trkpt lat="41.74751" lon="8.67527">
        <ele>140.7</ele>
        <time>2014-04-29T13:56:21Z</time>
      </trkpt>
      <trkpt lat="41.74752" lon="8.67526">
        <ele>140.6</ele>
        <time>2014-04-29T13:56:31Z</time>
      </trkpt>
      <trkpt lat="41.74753" lon="8.67526">
        <ele>140.4</ele>
        <time>2014-04-29T13:56:41Z</time>
      </trkpt>
      <trkpt lat="41.74753" lon="8.67526">
        <ele>140.4</ele>
        <time>2014-04-29T13:56:51Z</time>
      </trkpt>
      <trkpt lat="41.74753" lon="8.67526">
        <ele>140.4</ele>
        <time>2014-04-29T13:57:01Z</time>
      </trkpt>
      <trkpt lat="41.74753" lon="8.67526">
        <ele>140.4</ele>
        <time>2014-04-29T13:57:11Z</time>
      </trkpt>
      <trkpt lat="41.74753" lon="8.67526">
        <ele>140.4</ele>
        <time>2014-04-29T13:57:21Z</time>
      </trkpt>
      <trkpt lat="41.74753" lon="8.67528">
        <ele>140.5</ele>
        <time>2014-04-29T13:57:31Z</time>
      </trkpt>
      <trkpt lat="41.74753" lon="8.67529">
        <ele>140.1</ele>
        <time>2014-04-29T13:57:41Z</time>
      </trkpt>
      <trkpt lat="41.74752" lon="8.67526">
        <ele>140.5</ele>
        <time>2014-04-29T13:57:51Z</time>
      </trkpt>
      <trkpt lat="41.74754" lon="8.67526">
        <ele>140.2</ele>
        <time>2014-04-29T13:58:01Z</time>
      </trkpt>
      <trkpt lat="41.74752" lon="8.67525">
        <ele>140.5</ele>
        <time>2014-04-29T13:58:11Z</time>
      </trkpt>
      <trkpt lat="41.7475" lon="8.67527">
        <ele>141</ele>
        <time>2014-04-29T13:58:21Z</time>
      </trkpt>
      <trkpt lat="41.7475" lon="8.67529">
        <ele>140.9</ele>
        <time>2014-04-29T13:58:32Z</time>
      </trkpt>
      <trkpt lat="41.7475" lon="8.67529">
        <ele>140.9</ele>
        <time>2014-04-29T13:58:42Z</time>
      </trkpt>
      <trkpt lat="41.74749" lon="8.67529">
        <ele>140.9</ele>
        <time>2014-04-29T13:58:52Z</time>
      </trkpt>
      <trkpt lat="41.74749" lon="8.67528">
        <ele>140.9</ele>
        <time>2014-04-29T13:59:02Z</time>
      </trkpt>
      <trkpt lat="41.74747" lon="8.67529">
        <ele>140.8</ele>
        <time>2014-04-29T13:59:12Z</time>
      </trkpt>
      <trkpt lat="41.74748" lon="8.67527">
        <ele>141</ele>
        <time>2014-04-29T13:59:23Z</time>
      </trkpt>
      <trkpt lat="41.74741" lon="8.67517">
        <ele>140.7</ele>
        <time>2014-04-29T13:59:36Z</time>
      </trkpt>
      <trkpt lat="41.74737" lon="8.67504">
        <ele>140.5</ele>
        <time>2014-04-29T13:59:46Z</time>
      </trkpt>
      <trkpt lat="41.74737" lon="8.67504">
        <ele>140.5</ele>
        <time>2014-04-29T13:59:56Z</time>
      </trkpt>
      <trkpt lat="41.74737" lon="8.67504">
        <ele>140.5</ele>
        <time>2014-04-29T14:00:06Z</time>
      </trkpt>
      <trkpt lat="41.74737" lon="8.67504">
        <ele>140.5</ele>
        <time>2014-04-29T14:00:16Z</time>
      </trkpt>
      <trkpt lat="41.74737" lon="8.67504">
        <ele>140.5</ele>
        <time>2014-04-29T14:00:27Z</time>
      </trkpt>
      <trkpt lat="41.74737" lon="8.67504">
        <ele>140.5</ele>
        <time>2014-04-29T14:00:37Z</time>
      </trkpt>
      <trkpt lat="41.74737" lon="8.67504">
        <ele>140.5</ele>
        <time>2014-04-29T14:00:47Z</time>
      </trkpt>
      <trkpt lat="41.74737" lon="8.67504">
        <ele>140.5</ele>
        <time>2014-04-29T14:00:57Z</time>
      </trkpt>
      <trkpt lat="41.74737" lon="8.67504">
        <ele>140.5</ele>
        <time>2014-04-29T14:01:07Z</time>
      </trkpt>
      <trkpt lat="41.74737" lon="8.67504">
        <ele>140.6</ele>
        <time>2014-04-29T14:01:17Z</time>
      </trkpt>
      <trkpt lat="41.74736" lon="8.67504">
        <ele>140.6</ele>
        <time>2014-04-29T14:01:28Z</time>
      </trkpt>
      <trkpt lat="41.74736" lon="8.67504">
        <ele>140.6</ele>
        <time>2014-04-29T14:01:38Z</time>
      </trkpt>
      <trkpt lat="41.74736" lon="8.67504">
        <ele>140.6</ele>
        <time>2014-04-29T14:01:48Z</time>
      </trkpt>
      <trkpt lat="41.74736" lon="8.67504">
        <ele>140.6</ele>
        <time>2014-04-29T14:01:58Z</time>
      </trkpt>
      <trkpt lat="41.74736" lon="8.67504">
        <ele>140.6</ele>
        <time>2014-04-29T14:02:08Z</time>
      </trkpt>
      <trkpt lat="41.74736" lon="8.67504">
        <ele>140.6</ele>
        <time>2014-04-29T14:02:18Z</time>
      </trkpt>
      <trkpt lat="41.74736" lon="8.67504">
        <ele>140.6</ele>
        <time>2014-04-29T14:02:28Z</time>
      </trkpt>
      <trkpt lat="41.74736" lon="8.67504">
        <ele>140.6</ele>
        <time>2014-04-29T14:02:39Z</time>
      </trkpt>
      <trkpt lat="41.74736" lon="8.67504">
        <ele>140.6</ele>
        <time>2014-04-29T14:02:49Z</time>
      </trkpt>
      <trkpt lat="41.74736" lon="8.67504">
        <ele>140.6</ele>
        <time>2014-04-29T14:02:59Z</time>
      </trkpt>
      <trkpt lat="41.74742" lon="8.67499">
        <ele>140.3</ele>
        <time>2014-04-29T14:03:09Z</time>
      </trkpt>
      <trkpt lat="41.7475" lon="8.67493">
        <ele>140.5</ele>
        <time>2014-04-29T14:03:19Z</time>
      </trkpt>
      <trkpt lat="41.7476" lon="8.67487">
        <ele>140.6</ele>
        <time>2014-04-29T14:03:29Z</time>
      </trkpt>
      <trkpt lat="41.74765" lon="8.67482">
        <ele>140.8</ele>
        <time>2014-04-29T14:03:40Z</time>
      </trkpt>
      <trkpt lat="41.74769" lon="8.67478">
        <ele>140.9</ele>
        <time>2014-04-29T14:03:50Z</time>
      </trkpt>
      <trkpt lat="41.74776" lon="8.67472">
        <ele>141.1</ele>
        <time>2014-04-29T14:04:00Z</time>
      </trkpt>
      <trkpt lat="41.74783" lon="8.6746">
        <ele>141.9</ele>
        <time>2014-04-29T14:04:10Z</time>
      </trkpt>
      <trkpt lat="41.74793" lon="8.6746">
        <ele>142.1</ele>
        <time>2014-04-29T14:04:20Z</time>
      </trkpt>
      <trkpt lat="41.74799" lon="8.67468">
        <ele>141.4</ele>
        <time>2014-04-29T14:04:30Z</time>
      </trkpt>
      <trkpt lat="41.74807" lon="8.67475">
        <ele>140.6</ele>
        <time>2014-04-29T14:04:41Z</time>
      </trkpt>
      <trkpt lat="41.74816" lon="8.67482">
        <ele>138.7</ele>
        <time>2014-04-29T14:04:51Z</time>
      </trkpt>
      <trkpt lat="41.74827" lon="8.67486">
        <ele>137.2</ele>
        <time>2014-04-29T14:05:01Z</time>
      </trkpt>
      <trkpt lat="41.74837" lon="8.67487">
        <ele>136.3</ele>
        <time>2014-04-29T14:05:11Z</time>
      </trkpt>
      <trkpt lat="41.74848" lon="8.67489">
        <ele>135.4</ele>
        <time>2014-04-29T14:05:21Z</time>
      </trkpt>
      <trkpt lat="41.74859" lon="8.67494">
        <ele>134.1</ele>
        <time>2014-04-29T14:05:31Z</time>
      </trkpt>
      <trkpt lat="41.74865" lon="8.67504">
        <ele>131.9</ele>
        <time>2014-04-29T14:05:41Z</time>
      </trkpt>
      <trkpt lat="41.74867" lon="8.67511">
        <ele>130.4</ele>
        <time>2014-04-29T14:05:51Z</time>
      </trkpt>
      <trkpt lat="41.74875" lon="8.67516">
        <ele>129.3</ele>
        <time>2014-04-29T14:06:01Z</time>
      </trkpt>
      <trkpt lat="41.74883" lon="8.67518">
        <ele>128.8</ele>
        <time>2014-04-29T14:06:12Z</time>
      </trkpt>
      <trkpt lat="41.74886" lon="8.67508">
        <ele>130.6</ele>
        <time>2014-04-29T14:06:22Z</time>
      </trkpt>
      <trkpt lat="41.74896" lon="8.67506">
        <ele>131.9</ele>
        <time>2014-04-29T14:06:32Z</time>
      </trkpt>
      <trkpt lat="41.74902" lon="8.67517">
        <ele>131.1</ele>
        <time>2014-04-29T14:06:42Z</time>
      </trkpt>
      <trkpt lat="41.74907" lon="8.67526">
        <ele>130.5</ele>
        <time>2014-04-29T14:06:52Z</time>
      </trkpt>
      <trkpt lat="41.74911" lon="8.67539">
        <ele>130.2</ele>
        <time>2014-04-29T14:07:02Z</time>
      </trkpt>
      <trkpt lat="41.74916" lon="8.67553">
        <ele>130.9</ele>
        <time>2014-04-29T14:07:12Z</time>
      </trkpt>
      <trkpt lat="41.7492" lon="8.67565">
        <ele>129</ele>
        <time>2014-04-29T14:07:23Z</time>
      </trkpt>
      <trkpt lat="41.74924" lon="8.67572">
        <ele>127.4</ele>
        <time>2014-04-29T14:07:33Z</time>
      </trkpt>
      <trkpt lat="41.74927" lon="8.67585">
        <ele>125.6</ele>
        <time>2014-04-29T14:07:43Z</time>
      </trkpt>
      <trkpt lat="41.74932" lon="8.67589">
        <ele>124.6</ele>
        <time>2014-04-29T14:07:55Z</time>
      </trkpt>
      <trkpt lat="41.74932" lon="8.6759">
        <ele>124.5</ele>
        <time>2014-04-29T14:08:05Z</time>
      </trkpt>
      <trkpt lat="41.74932" lon="8.6759">
        <ele>124.5</ele>
        <time>2014-04-29T14:08:18Z</time>
      </trkpt>
      <trkpt lat="41.74933" lon="8.6759">
        <ele>124.5</ele>
        <time>2014-04-29T14:08:28Z</time>
      </trkpt>
      <trkpt lat="41.74932" lon="8.676">
        <ele>123.1</ele>
        <time>2014-04-29T14:08:38Z</time>
      </trkpt>
      <trkpt lat="41.74933" lon="8.67606">
        <ele>122.4</ele>
        <time>2014-04-29T14:08:48Z</time>
      </trkpt>
      <trkpt lat="41.74941" lon="8.67615">
        <ele>121.7</ele>
        <time>2014-04-29T14:08:59Z</time>
      </trkpt>
      <trkpt lat="41.74946" lon="8.67622">
        <ele>119.8</ele>
        <time>2014-04-29T14:09:09Z</time>
      </trkpt>
      <trkpt lat="41.74953" lon="8.67631">
        <ele>116.6</ele>
        <time>2014-04-29T14:09:19Z</time>
      </trkpt>
      <trkpt lat="41.74963" lon="8.67635">
        <ele>115.1</ele>
        <time>2014-04-29T14:09:29Z</time>
      </trkpt>
      <trkpt lat="41.74963" lon="8.67633">
        <ele>114.9</ele>
        <time>2014-04-29T14:09:35Z</time>
      </trkpt>
      <trkpt lat="41.7496" lon="8.67637">
        <ele>115.4</ele>
        <time>2014-04-29T14:09:47Z</time>
      </trkpt>
      <trkpt lat="41.7496" lon="8.6764">
        <ele>115</ele>
        <time>2014-04-29T14:09:55Z</time>
      </trkpt>
      <trkpt lat="41.74966" lon="8.67642">
        <ele>113.9</ele>
        <time>2014-04-29T14:10:05Z</time>
      </trkpt>
      <trkpt lat="41.74966" lon="8.67642">
        <ele>113.9</ele>
        <time>2014-04-29T14:10:11Z</time>
      </trkpt>
      <trkpt lat="41.74977" lon="8.67628">
        <ele>108.8</ele>
        <time>2014-04-29T14:10:21Z</time>
      </trkpt>
      <trkpt lat="41.74979" lon="8.67625">
        <ele>106</ele>
        <time>2014-04-29T14:10:29Z</time>
      </trkpt>
      <trkpt lat="41.74985" lon="8.67634">
        <ele>103.6</ele>
        <time>2014-04-29T14:10:41Z</time>
      </trkpt>
      <trkpt lat="41.74988" lon="8.67644">
        <ele>102.9</ele>
        <time>2014-04-29T14:10:52Z</time>
      </trkpt>
      <trkpt lat="41.7499" lon="8.67642">
        <ele>101.8</ele>
        <time>2014-04-29T14:16:58Z</time>
      </trkpt>
      <trkpt lat="41.74984" lon="8.67646">
        <ele>105.7</ele>
        <time>2014-04-29T14:17:09Z</time>
      </trkpt>
      <trkpt lat="41.74985" lon="8.67654">
        <ele>104.2</ele>
        <time>2014-04-29T14:17:15Z</time>
      </trkpt>
      <trkpt lat="41.74988" lon="8.6765">
        <ele>102.8</ele>
        <time>2014-04-29T14:17:25Z</time>
      </trkpt>
      <trkpt lat="41.74991" lon="8.67644">
        <ele>101.4</ele>
        <time>2014-04-29T14:17:35Z</time>
      </trkpt>
      <trkpt lat="41.7499" lon="8.67642">
        <ele>101.7</ele>
        <time>2014-04-29T14:17:45Z</time>
      </trkpt>
      <trkpt lat="41.7499" lon="8.6764">
        <ele>102</ele>
        <time>2014-04-29T14:17:55Z</time>
      </trkpt>
      <trkpt lat="41.74989" lon="8.67639">
        <ele>102.1</ele>
        <time>2014-04-29T14:18:05Z</time>
      </trkpt>
      <trkpt lat="41.74991" lon="8.67637">
        <ele>99.9</ele>
        <time>2014-04-29T14:18:15Z</time>
      </trkpt>
      <trkpt lat="41.74992" lon="8.67633">
        <ele>98</ele>
        <time>2014-04-29T14:18:34Z</time>
      </trkpt>
      <trkpt lat="41.74991" lon="8.67632">
        <ele>98.6</ele>
        <time>2014-04-29T14:18:44Z</time>
      </trkpt>
      <trkpt lat="41.7499" lon="8.67633">
        <ele>99.9</ele>
        <time>2014-04-29T14:18:50Z</time>
      </trkpt>
      <trkpt lat="41.74986" lon="8.67651">
        <ele>103.8</ele>
        <time>2014-04-29T14:19:00Z</time>
      </trkpt>
      <trkpt lat="41.74989" lon="8.67636">
        <ele>101.3</ele>
        <time>2014-04-29T14:19:10Z</time>
      </trkpt>
      <trkpt lat="41.74989" lon="8.67634">
        <ele>100.4</ele>
        <time>2014-04-29T14:19:20Z</time>
      </trkpt>
      <trkpt lat="41.7499" lon="8.67631">
        <ele>98.7</ele>
        <time>2014-04-29T14:19:30Z</time>
      </trkpt>
      <trkpt lat="41.74991" lon="8.67631">
        <ele>97.9</ele>
        <time>2014-04-29T14:19:40Z</time>
      </trkpt>
      <trkpt lat="41.74992" lon="8.6763">
        <ele>96.9</ele>
        <time>2014-04-29T14:19:50Z</time>
      </trkpt>
      <trkpt lat="41.74992" lon="8.67629">
        <ele>96.6</ele>
        <time>2014-04-29T14:20:00Z</time>
      </trkpt>
      <trkpt lat="41.74992" lon="8.67629">
        <ele>96.5</ele>
        <time>2014-04-29T14:20:10Z</time>
      </trkpt>
      <trkpt lat="41.74993" lon="8.67629">
        <ele>96.2</ele>
        <time>2014-04-29T14:20:20Z</time>
      </trkpt>
      <trkpt lat="41.74993" lon="8.67631">
        <ele>96.6</ele>
        <time>2014-04-29T14:20:30Z</time>
      </trkpt>
      <trkpt lat="41.74993" lon="8.67636">
        <ele>98.1</ele>
        <time>2014-04-29T14:20:40Z</time>
      </trkpt>
      <trkpt lat="41.74993" lon="8.67639">
        <ele>99.6</ele>
        <time>2014-04-29T14:20:50Z</time>
      </trkpt>
      <trkpt lat="41.74996" lon="8.6764">
        <ele>97.4</ele>
        <time>2014-04-29T14:21:00Z</time>
      </trkpt>
      <trkpt lat="41.74993" lon="8.6764">
        <ele>99.4</ele>
        <time>2014-04-29T14:21:10Z</time>
      </trkpt>
      <trkpt lat="41.74993" lon="8.67638">
        <ele>99.2</ele>
        <time>2014-04-29T14:21:20Z</time>
      </trkpt>
      <trkpt lat="41.74992" lon="8.67638">
        <ele>99.5</ele>
        <time>2014-04-29T14:21:30Z</time>
      </trkpt>
      <trkpt lat="41.74992" lon="8.67638">
        <ele>99.5</ele>
        <time>2014-04-29T14:21:41Z</time>
      </trkpt>
      <trkpt lat="41.74992" lon="8.67638">
        <ele>99.5</ele>
        <time>2014-04-29T14:21:51Z</time>
      </trkpt>
      <trkpt lat="41.74993" lon="8.67638">
        <ele>99.4</ele>
        <time>2014-04-29T14:22:01Z</time>
      </trkpt>
      <trkpt lat="41.74993" lon="8.67638">
        <ele>99.4</ele>
        <time>2014-04-29T14:22:11Z</time>
      </trkpt>
      <trkpt lat="41.74992" lon="8.67638">
        <ele>99.6</ele>
        <time>2014-04-29T14:22:21Z</time>
      </trkpt>
      <trkpt lat="41.74992" lon="8.67638">
        <ele>99.6</ele>
        <time>2014-04-29T14:22:31Z</time>
      </trkpt>
      <trkpt lat="41.74992" lon="8.67638">
        <ele>99.6</ele>
        <time>2014-04-29T14:22:41Z</time>
      </trkpt>
      <trkpt lat="41.74977" lon="8.67604">
        <ele>102.7</ele>
        <time>2014-04-29T14:22:51Z</time>
      </trkpt>
      <trkpt lat="41.74981" lon="8.67607">
        <ele>100</ele>
        <time>2014-04-29T14:23:01Z</time>
      </trkpt>
      <trkpt lat="41.74981" lon="8.67607">
        <ele>99.9</ele>
        <time>2014-04-29T14:23:11Z</time>
      </trkpt>
      <trkpt lat="41.74981" lon="8.67608">
        <ele>99.9</ele>
        <time>2014-04-29T14:23:21Z</time>
      </trkpt>
      <trkpt lat="41.74981" lon="8.67608">
        <ele>100</ele>
        <time>2014-04-29T14:23:31Z</time>
      </trkpt>
      <trkpt lat="41.74981" lon="8.67608">
        <ele>99.8</ele>
        <time>2014-04-29T14:23:41Z</time>
      </trkpt>
      <trkpt lat="41.74982" lon="8.67608">
        <ele>99.7</ele>
        <time>2014-04-29T14:23:51Z</time>
      </trkpt>
      <trkpt lat="41.74982" lon="8.67609">
        <ele>99.9</ele>
        <time>2014-04-29T14:24:02Z</time>
      </trkpt>
      <trkpt lat="41.74982" lon="8.67609">
        <ele>99.8</ele>
        <time>2014-04-29T14:24:12Z</time>
      </trkpt>
      <trkpt lat="41.74982" lon="8.6761">
        <ele>99.7</ele>
        <time>2014-04-29T14:24:22Z</time>
      </trkpt>
      <trkpt lat="41.74982" lon="8.6761">
        <ele>99.6</ele>
        <time>2014-04-29T14:24:32Z</time>
      </trkpt>
      <trkpt lat="41.74982" lon="8.6761">
        <ele>99.4</ele>
        <time>2014-04-29T14:24:42Z</time>
      </trkpt>
      <trkpt lat="41.74982" lon="8.6761">
        <ele>99.5</ele>
        <time>2014-04-29T14:24:52Z</time>
      </trkpt>
      <trkpt lat="41.74982" lon="8.67611">
        <ele>99.4</ele>
        <time>2014-04-29T14:25:02Z</time>
      </trkpt>
      <trkpt lat="41.74983" lon="8.67611">
        <ele>99.3</ele>
        <time>2014-04-29T14:25:12Z</time>
      </trkpt>
      <trkpt lat="41.74983" lon="8.67611">
        <ele>99.2</ele>
        <time>2014-04-29T14:25:22Z</time>
      </trkpt>
      <trkpt lat="41.74983" lon="8.67611">
        <ele>99.3</ele>
        <time>2014-04-29T14:25:32Z</time>
      </trkpt>
      <trkpt lat="41.74983" lon="8.67612">
        <ele>99.2</ele>
        <time>2014-04-29T14:25:42Z</time>
      </trkpt>
      <trkpt lat="41.74983" lon="8.67612">
        <ele>99.1</ele>
        <time>2014-04-29T14:25:52Z</time>
      </trkpt>
      <trkpt lat="41.74983" lon="8.67612">
        <ele>99</ele>
        <time>2014-04-29T14:26:02Z</time>
      </trkpt>
      <trkpt lat="41.74983" lon="8.67612">
        <ele>99</ele>
        <time>2014-04-29T14:26:12Z</time>
      </trkpt>
      <trkpt lat="41.74984" lon="8.67612">
        <ele>98.8</ele>
        <time>2014-04-29T14:26:21Z</time>
      </trkpt>
      <trkpt lat="41.74984" lon="8.67613">
        <ele>98.9</ele>
        <time>2014-04-29T14:26:31Z</time>
      </trkpt>
      <trkpt lat="41.74984" lon="8.67613">
        <ele>98.8</ele>
        <time>2014-04-29T14:26:42Z</time>
      </trkpt>
      <trkpt lat="41.74984" lon="8.67613">
        <ele>98.8</ele>
        <time>2014-04-29T14:26:52Z</time>
      </trkpt>
      <trkpt lat="41.74993" lon="8.67633">
        <ele>96.9</ele>
        <time>2014-04-29T14:27:02Z</time>
      </trkpt>
      <trkpt lat="41.74993" lon="8.67633">
        <ele>96.9</ele>
        <time>2014-04-29T14:27:12Z</time>
      </trkpt>
      <trkpt lat="41.74993" lon="8.67633">
        <ele>97</ele>
        <time>2014-04-29T14:27:22Z</time>
      </trkpt>
      <trkpt lat="41.74993" lon="8.67633">
        <ele>97</ele>
        <time>2014-04-29T14:27:32Z</time>
      </trkpt>
      <trkpt lat="41.74993" lon="8.67633">
        <ele>96.9</ele>
        <time>2014-04-29T14:27:42Z</time>
      </trkpt>
      <trkpt lat="41.74993" lon="8.67633">
        <ele>97.1</ele>
        <time>2014-04-29T14:27:52Z</time>
      </trkpt>
      <trkpt lat="41.74993" lon="8.67632">
        <ele>97</ele>
        <time>2014-04-29T14:28:02Z</time>
      </trkpt>
      <trkpt lat="41.74993" lon="8.67632">
        <ele>97</ele>
        <time>2014-04-29T14:28:12Z</time>
      </trkpt>
      <trkpt lat="41.74993" lon="8.67632">
        <ele>97.1</ele>
        <time>2014-04-29T14:28:22Z</time>
      </trkpt>
      <trkpt lat="41.74993" lon="8.67632">
        <ele>97.1</ele>
        <time>2014-04-29T14:28:32Z</time>
      </trkpt>
      <trkpt lat="41.74993" lon="8.67632">
        <ele>97.1</ele>
        <time>2014-04-29T14:28:42Z</time>
      </trkpt>
      <trkpt lat="41.74993" lon="8.67633">
        <ele>97.2</ele>
        <time>2014-04-29T14:28:52Z</time>
      </trkpt>
      <trkpt lat="41.74993" lon="8.67633">
        <ele>97.3</ele>
        <time>2014-04-29T14:29:03Z</time>
      </trkpt>
      <trkpt lat="41.74993" lon="8.67633">
        <ele>97.3</ele>
        <time>2014-04-29T14:29:13Z</time>
      </trkpt>
      <trkpt lat="41.74993" lon="8.67633">
        <ele>97.5</ele>
        <time>2014-04-29T14:29:23Z</time>
      </trkpt>
      <trkpt lat="41.74993" lon="8.67633">
        <ele>97.3</ele>
        <time>2014-04-29T14:29:33Z</time>
      </trkpt>
      <trkpt lat="41.74993" lon="8.67633">
        <ele>97.4</ele>
        <time>2014-04-29T14:29:43Z</time>
      </trkpt>
      <trkpt lat="41.74993" lon="8.67633">
        <ele>97.4</ele>
        <time>2014-04-29T14:29:53Z</time>
      </trkpt>
      <trkpt lat="41.74993" lon="8.67633">
        <ele>97.4</ele>
        <time>2014-04-29T14:30:03Z</time>
      </trkpt>
      <trkpt lat="41.74993" lon="8.67633">
        <ele>97.5</ele>
        <time>2014-04-29T14:30:13Z</time>
      </trkpt>
      <trkpt lat="41.74993" lon="8.67633">
        <ele>97.5</ele>
        <time>2014-04-29T14:30:24Z</time>
      </trkpt>
      <trkpt lat="41.74993" lon="8.67633">
        <ele>97.5</ele>
        <time>2014-04-29T14:30:34Z</time>
      </trkpt>
      <trkpt lat="41.74993" lon="8.67633">
        <ele>97.7</ele>
        <time>2014-04-29T14:30:44Z</time>
      </trkpt>
      <trkpt lat="41.74982" lon="8.67643">
        <ele>106.7</ele>
        <time>2014-04-29T14:30:54Z</time>
      </trkpt>
      <trkpt lat="41.74982" lon="8.67643">
        <ele>106.7</ele>
        <time>2014-04-29T14:31:04Z</time>
      </trkpt>
      <trkpt lat="41.74982" lon="8.67643">
        <ele>106.7</ele>
        <time>2014-04-29T14:31:14Z</time>
      </trkpt>
      <trkpt lat="41.74982" lon="8.67643">
        <ele>106.7</ele>
        <time>2014-04-29T14:31:24Z</time>
      </trkpt>
      <trkpt lat="41.74982" lon="8.67644">
        <ele>106.7</ele>
        <time>2014-04-29T14:31:34Z</time>
      </trkpt>
      <trkpt lat="41.74982" lon="8.67644">
        <ele>106.7</ele>
        <time>2014-04-29T14:31:45Z</time>
      </trkpt>
      <trkpt lat="41.74982" lon="8.67644">
        <ele>106.7</ele>
        <time>2014-04-29T14:31:55Z</time>
      </trkpt>
      <trkpt lat="41.74982" lon="8.67644">
        <ele>106.7</ele>
        <time>2014-04-29T14:32:05Z</time>
      </trkpt>
      <trkpt lat="41.74982" lon="8.67644">
        <ele>106.7</ele>
        <time>2014-04-29T14:32:15Z</time>
      </trkpt>
      <trkpt lat="41.74982" lon="8.67644">
        <ele>106.7</ele>
        <time>2014-04-29T14:32:25Z</time>
      </trkpt>
      <trkpt lat="41.74982" lon="8.67644">
        <ele>106.7</ele>
        <time>2014-04-29T14:32:35Z</time>
      </trkpt>
      <trkpt lat="41.74982" lon="8.67644">
        <ele>106.7</ele>
        <time>2014-04-29T14:32:45Z</time>
      </trkpt>
      <trkpt lat="41.74982" lon="8.67644">
        <ele>106.7</ele>
        <time>2014-04-29T14:32:56Z</time>
      </trkpt>
      <trkpt lat="41.74982" lon="8.67644">
        <ele>106.7</ele>
        <time>2014-04-29T14:33:06Z</time>
      </trkpt>
      <trkpt lat="41.74982" lon="8.67644">
        <ele>106.7</ele>
        <time>2014-04-29T14:33:16Z</time>
      </trkpt>
      <trkpt lat="41.74982" lon="8.67644">
        <ele>106.7</ele>
        <time>2014-04-29T14:33:26Z</time>
      </trkpt>
      <trkpt lat="41.74982" lon="8.67644">
        <ele>106.7</ele>
        <time>2014-04-29T14:33:36Z</time>
      </trkpt>
      <trkpt lat="41.74982" lon="8.67644">
        <ele>106.7</ele>
        <time>2014-04-29T14:33:46Z</time>
      </trkpt>
      <trkpt lat="41.74982" lon="8.67644">
        <ele>106.7</ele>
        <time>2014-04-29T14:33:56Z</time>
      </trkpt>
      <trkpt lat="41.74982" lon="8.67644">
        <ele>106.7</ele>
        <time>2014-04-29T14:34:06Z</time>
      </trkpt>
      <trkpt lat="41.74983" lon="8.67644">
        <ele>106.5</ele>
        <time>2014-04-29T14:34:17Z</time>
      </trkpt>
      <trkpt lat="41.74983" lon="8.67644">
        <ele>106.5</ele>
        <time>2014-04-29T14:35:27Z</time>
      </trkpt>
      <trkpt lat="41.74982" lon="8.67644">
        <ele>106.8</ele>
        <time>2014-04-29T14:35:37Z</time>
      </trkpt>
      <trkpt lat="41.74982" lon="8.67644">
        <ele>106.9</ele>
        <time>2014-04-29T14:35:47Z</time>
      </trkpt>
      <trkpt lat="41.74982" lon="8.67644">
        <ele>106.9</ele>
        <time>2014-04-29T14:35:57Z</time>
      </trkpt>
      <trkpt lat="41.74982" lon="8.67644">
        <ele>106.9</ele>
        <time>2014-04-29T14:36:07Z</time>
      </trkpt>
      <trkpt lat="41.74977" lon="8.67645">
        <ele>109.8</ele>
        <time>2014-04-29T14:36:18Z</time>
      </trkpt>
      <trkpt lat="41.74967" lon="8.67651">
        <ele>110.5</ele>
        <time>2014-04-29T14:36:28Z</time>
      </trkpt>
      <trkpt lat="41.74959" lon="8.67649">
        <ele>111.5</ele>
        <time>2014-04-29T14:36:38Z</time>
      </trkpt>
      <trkpt lat="41.74956" lon="8.67642">
        <ele>114.5</ele>
        <time>2014-04-29T14:36:48Z</time>
      </trkpt>
      <trkpt lat="41.74957" lon="8.67639">
        <ele>115.4</ele>
        <time>2014-04-29T14:36:58Z</time>
      </trkpt>
      <trkpt lat="41.74953" lon="8.67634">
        <ele>116.3</ele>
        <time>2014-04-29T14:37:08Z</time>
      </trkpt>
      <trkpt lat="41.74945" lon="8.6763">
        <ele>118.1</ele>
        <time>2014-04-29T14:37:18Z</time>
      </trkpt>
      <trkpt lat="41.74936" lon="8.67626">
        <ele>118</ele>
        <time>2014-04-29T14:37:28Z</time>
      </trkpt>
      <trkpt lat="41.74929" lon="8.67621">
        <ele>118.4</ele>
        <time>2014-04-29T14:37:38Z</time>
      </trkpt>
      <trkpt lat="41.74916" lon="8.67617">
        <ele>117.9</ele>
        <time>2014-04-29T14:37:48Z</time>
      </trkpt>
      <trkpt lat="41.74907" lon="8.67613">
        <ele>117.2</ele>
        <time>2014-04-29T14:37:58Z</time>
      </trkpt>
      <trkpt lat="41.74899" lon="8.67616">
        <ele>114</ele>
        <time>2014-04-29T14:38:09Z</time>
      </trkpt>
      <trkpt lat="41.74892" lon="8.67619">
        <ele>111.7</ele>
        <time>2014-04-29T14:38:19Z</time>
      </trkpt>
      <trkpt lat="41.74887" lon="8.67618">
        <ele>110.3</ele>
        <time>2014-04-29T14:38:29Z</time>
      </trkpt>
      <trkpt lat="41.74881" lon="8.67623">
        <ele>107.2</ele>
        <time>2014-04-29T14:38:39Z</time>
      </trkpt>
      <trkpt lat="41.74868" lon="8.6761">
        <ele>106.6</ele>
        <time>2014-04-29T14:38:49Z</time>
      </trkpt>
      <trkpt lat="41.74858" lon="8.67606">
        <ele>105.6</ele>
        <time>2014-04-29T14:38:59Z</time>
      </trkpt>
      <trkpt lat="41.74848" lon="8.67612">
        <ele>104.3</ele>
        <time>2014-04-29T14:39:09Z</time>
      </trkpt>
      <trkpt lat="41.74838" lon="8.67614">
        <ele>104.1</ele>
        <time>2014-04-29T14:39:19Z</time>
      </trkpt>
      <trkpt lat="41.74835" lon="8.67605">
        <ele>107</ele>
        <time>2014-04-29T14:39:29Z</time>
      </trkpt>
      <trkpt lat="41.74832" lon="8.67612">
        <ele>104.9</ele>
        <time>2014-04-29T14:39:39Z</time>
      </trkpt>
      <trkpt lat="41.74827" lon="8.6761">
        <ele>106.3</ele>
        <time>2014-04-29T14:39:49Z</time>
      </trkpt>
      <trkpt lat="41.74821" lon="8.6761">
        <ele>107.4</ele>
        <time>2014-04-29T14:39:59Z</time>
      </trkpt>
      <trkpt lat="41.74809" lon="8.67613">
        <ele>108.1</ele>
        <time>2014-04-29T14:40:09Z</time>
      </trkpt>
      <trkpt lat="41.74798" lon="8.67618">
        <ele>109.9</ele>
        <time>2014-04-29T14:40:20Z</time>
      </trkpt>
      <trkpt lat="41.74788" lon="8.67625">
        <ele>111.4</ele>
        <time>2014-04-29T14:40:30Z</time>
      </trkpt>
      <trkpt lat="41.74779" lon="8.67635">
        <ele>112.4</ele>
        <time>2014-04-29T14:40:40Z</time>
      </trkpt>
      <trkpt lat="41.74772" lon="8.67645">
        <ele>113.5</ele>
        <time>2014-04-29T14:40:50Z</time>
      </trkpt>
      <trkpt lat="41.7477" lon="8.67661">
        <ele>114.1</ele>
        <time>2014-04-29T14:41:00Z</time>
      </trkpt>
      <trkpt lat="41.74771" lon="8.67676">
        <ele>115.2</ele>
        <time>2014-04-29T14:41:11Z</time>
      </trkpt>
      <trkpt lat="41.74772" lon="8.67678">
        <ele>115.2</ele>
        <time>2014-04-29T14:41:21Z</time>
      </trkpt>
      <trkpt lat="41.74779" lon="8.67691">
        <ele>113.1</ele>
        <time>2014-04-29T14:41:31Z</time>
      </trkpt>
      <trkpt lat="41.74779" lon="8.67701">
        <ele>113.3</ele>
        <time>2014-04-29T14:41:41Z</time>
      </trkpt>
      <trkpt lat="41.74779" lon="8.67715">
        <ele>112.5</ele>
        <time>2014-04-29T14:41:51Z</time>
      </trkpt>
      <trkpt lat="41.74779" lon="8.6773">
        <ele>110.7</ele>
        <time>2014-04-29T14:42:01Z</time>
      </trkpt>
      <trkpt lat="41.74779" lon="8.67748">
        <ele>107.7</ele>
        <time>2014-04-29T14:42:12Z</time>
      </trkpt>
      <trkpt lat="41.74777" lon="8.6776">
        <ele>106.7</ele>
        <time>2014-04-29T14:42:22Z</time>
      </trkpt>
      <trkpt lat="41.74769" lon="8.67771">
        <ele>108.4</ele>
        <time>2014-04-29T14:42:32Z</time>
      </trkpt>
      <trkpt lat="41.74763" lon="8.67784">
        <ele>108.2</ele>
        <time>2014-04-29T14:42:42Z</time>
      </trkpt>
      <trkpt lat="41.74756" lon="8.67794">
        <ele>109.2</ele>
        <time>2014-04-29T14:42:52Z</time>
      </trkpt>
      <trkpt lat="41.74747" lon="8.67802">
        <ele>109.9</ele>
        <time>2014-04-29T14:43:02Z</time>
      </trkpt>
      <trkpt lat="41.74741" lon="8.67814">
        <ele>108.2</ele>
        <time>2014-04-29T14:43:12Z</time>
      </trkpt>
      <trkpt lat="41.74734" lon="8.67826">
        <ele>107.3</ele>
        <time>2014-04-29T14:43:23Z</time>
      </trkpt>
      <trkpt lat="41.74731" lon="8.67838">
        <ele>104.9</ele>
        <time>2014-04-29T14:43:33Z</time>
      </trkpt>
      <trkpt lat="41.74729" lon="8.67853">
        <ele>101.7</ele>
        <time>2014-04-29T14:43:43Z</time>
      </trkpt>
      <trkpt lat="41.74726" lon="8.67858">
        <ele>101</ele>
        <time>2014-04-29T14:43:53Z</time>
      </trkpt>
      <trkpt lat="41.7472" lon="8.67867">
        <ele>100.6</ele>
        <time>2014-04-29T14:44:03Z</time>
      </trkpt>
      <trkpt lat="41.74712" lon="8.67878">
        <ele>100.9</ele>
        <time>2014-04-29T14:44:14Z</time>
      </trkpt>
      <trkpt lat="41.74706" lon="8.67893">
        <ele>99.9</ele>
        <time>2014-04-29T14:44:24Z</time>
      </trkpt>
      <trkpt lat="41.74706" lon="8.67899">
        <ele>100.4</ele>
        <time>2014-04-29T14:44:34Z</time>
      </trkpt>
      <trkpt lat="41.74717" lon="8.67904">
        <ele>96.3</ele>
        <time>2014-04-29T14:44:44Z</time>
      </trkpt>
      <trkpt lat="41.74718" lon="8.67912">
        <ele>95.7</ele>
        <time>2014-04-29T14:44:55Z</time>
      </trkpt>
      <trkpt lat="41.74717" lon="8.67929">
        <ele>96.7</ele>
        <time>2014-04-29T14:45:05Z</time>
      </trkpt>
      <trkpt lat="41.74715" lon="8.67938">
        <ele>99.3</ele>
        <time>2014-04-29T14:45:15Z</time>
      </trkpt>
      <trkpt lat="41.74726" lon="8.67938">
        <ele>93.2</ele>
        <time>2014-04-29T14:45:25Z</time>
      </trkpt>
      <trkpt lat="41.74726" lon="8.67946">
        <ele>93.1</ele>
        <time>2014-04-29T14:45:35Z</time>
      </trkpt>
      <trkpt lat="41.7472" lon="8.67958">
        <ele>94.5</ele>
        <time>2014-04-29T14:45:46Z</time>
      </trkpt>
      <trkpt lat="41.74721" lon="8.67974">
        <ele>92.2</ele>
        <time>2014-04-29T14:45:56Z</time>
      </trkpt>
      <trkpt lat="41.74721" lon="8.67981">
        <ele>91.6</ele>
        <time>2014-04-29T14:46:06Z</time>
      </trkpt>
      <trkpt lat="41.74717" lon="8.67991">
        <ele>92.7</ele>
        <time>2014-04-29T14:46:16Z</time>
      </trkpt>
      <trkpt lat="41.74711" lon="8.67997">
        <ele>95.1</ele>
        <time>2014-04-29T14:46:26Z</time>
      </trkpt>
      <trkpt lat="41.74708" lon="8.68006">
        <ele>95.6</ele>
        <time>2014-04-29T14:46:36Z</time>
      </trkpt>
      <trkpt lat="41.74705" lon="8.68016">
        <ele>95</ele>
        <time>2014-04-29T14:46:46Z</time>
      </trkpt>
      <trkpt lat="41.74698" lon="8.68032">
        <ele>94.7</ele>
        <time>2014-04-29T14:46:56Z</time>
      </trkpt>
      <trkpt lat="41.74694" lon="8.68034">
        <ele>95.3</ele>
        <time>2014-04-29T14:47:06Z</time>
      </trkpt>
      <trkpt lat="41.74691" lon="8.68039">
        <ele>93.6</ele>
        <time>2014-04-29T14:47:16Z</time>
      </trkpt>
      <trkpt lat="41.74691" lon="8.68049">
        <ele>91</ele>
        <time>2014-04-29T14:47:27Z</time>
      </trkpt>
      <trkpt lat="41.74685" lon="8.68051">
        <ele>89.6</ele>
        <time>2014-04-29T14:47:37Z</time>
      </trkpt>
      <trkpt lat="41.74677" lon="8.68055">
        <ele>87</ele>
        <time>2014-04-29T14:47:47Z</time>
      </trkpt>
      <trkpt lat="41.74669" lon="8.68058">
        <ele>85</ele>
        <time>2014-04-29T14:47:57Z</time>
      </trkpt>
      <trkpt lat="41.74579" lon="8.68551">
        <ele>117</ele>
        <time>2014-04-29T14:58:29Z</time>
      </trkpt>
      <trkpt lat="41.74586" lon="8.68521">
        <ele>109.7</ele>
        <time>2014-04-29T14:59:09Z</time>
      </trkpt>
      <trkpt lat="41.74576" lon="8.68577">
        <ele>117.1</ele>
        <time>2014-04-29T14:59:19Z</time>
      </trkpt>
      <trkpt lat="41.74572" lon="8.6861">
        <ele>118.1</ele>
        <time>2014-04-29T14:59:29Z</time>
      </trkpt>
      <trkpt lat="41.74568" lon="8.68632">
        <ele>118.5</ele>
        <time>2014-04-29T14:59:39Z</time>
      </trkpt>
      <trkpt lat="41.74565" lon="8.68645">
        <ele>118.4</ele>
        <time>2014-04-29T14:59:49Z</time>
      </trkpt>
      <trkpt lat="41.74566" lon="8.68661">
        <ele>119.7</ele>
        <time>2014-04-29T14:59:59Z</time>
      </trkpt>
      <trkpt lat="41.74566" lon="8.68678">
        <ele>120.1</ele>
        <time>2014-04-29T15:00:09Z</time>
      </trkpt>
      <trkpt lat="41.74568" lon="8.68694">
        <ele>121.1</ele>
        <time>2014-04-29T15:00:19Z</time>
      </trkpt>
      <trkpt lat="41.74573" lon="8.68704">
        <ele>121.9</ele>
        <time>2014-04-29T15:00:29Z</time>
      </trkpt>
      <trkpt lat="41.74577" lon="8.68721">
        <ele>121.9</ele>
        <time>2014-04-29T15:00:39Z</time>
      </trkpt>
      <trkpt lat="41.74583" lon="8.68724">
        <ele>122.8</ele>
        <time>2014-04-29T15:00:49Z</time>
      </trkpt>
      <trkpt lat="41.74589" lon="8.68736">
        <ele>121.8</ele>
        <time>2014-04-29T15:00:59Z</time>
      </trkpt>
      <trkpt lat="41.74592" lon="8.68752">
        <ele>119.7</ele>
        <time>2014-04-29T15:01:09Z</time>
      </trkpt>
      <trkpt lat="41.74588" lon="8.68764">
        <ele>118.4</ele>
        <time>2014-04-29T15:01:19Z</time>
      </trkpt>
      <trkpt lat="41.74584" lon="8.68779">
        <ele>117</ele>
        <time>2014-04-29T15:01:29Z</time>
      </trkpt>
      <trkpt lat="41.74577" lon="8.68793">
        <ele>116.3</ele>
        <time>2014-04-29T15:01:39Z</time>
      </trkpt>
      <trkpt lat="41.74569" lon="8.68803">
        <ele>115</ele>
        <time>2014-04-29T15:01:49Z</time>
      </trkpt>
      <trkpt lat="41.74564" lon="8.68818">
        <ele>114.7</ele>
        <time>2014-04-29T15:01:59Z</time>
      </trkpt>
      <trkpt lat="41.7456" lon="8.68837">
        <ele>115</ele>
        <time>2014-04-29T15:02:09Z</time>
      </trkpt>
      <trkpt lat="41.74555" lon="8.6885">
        <ele>115.7</ele>
        <time>2014-04-29T15:02:19Z</time>
      </trkpt>
      <trkpt lat="41.74551" lon="8.68861">
        <ele>116.4</ele>
        <time>2014-04-29T15:02:29Z</time>
      </trkpt>
      <trkpt lat="41.74552" lon="8.68873">
        <ele>117.6</ele>
        <time>2014-04-29T15:02:39Z</time>
      </trkpt>
      <trkpt lat="41.7455" lon="8.68887">
        <ele>118.1</ele>
        <time>2014-04-29T15:02:49Z</time>
      </trkpt>
      <trkpt lat="41.7455" lon="8.68903">
        <ele>120.1</ele>
        <time>2014-04-29T15:02:59Z</time>
      </trkpt>
      <trkpt lat="41.74549" lon="8.6892">
        <ele>121.8</ele>
        <time>2014-04-29T15:03:09Z</time>
      </trkpt>
      <trkpt lat="41.74545" lon="8.68936">
        <ele>122.1</ele>
        <time>2014-04-29T15:03:19Z</time>
      </trkpt>
      <trkpt lat="41.74542" lon="8.68952">
        <ele>122.5</ele>
        <time>2014-04-29T15:03:29Z</time>
      </trkpt>
      <trkpt lat="41.7454" lon="8.68967">
        <ele>122.7</ele>
        <time>2014-04-29T15:03:39Z</time>
      </trkpt>
      <trkpt lat="41.74541" lon="8.68981">
        <ele>124.1</ele>
        <time>2014-04-29T15:03:49Z</time>
      </trkpt>
      <trkpt lat="41.7454" lon="8.68997">
        <ele>125.3</ele>
        <time>2014-04-29T15:03:59Z</time>
      </trkpt>
      <trkpt lat="41.74541" lon="8.6901">
        <ele>126.6</ele>
        <time>2014-04-29T15:04:09Z</time>
      </trkpt>
      <trkpt lat="41.7454" lon="8.69027">
        <ele>128</ele>
        <time>2014-04-29T15:04:19Z</time>
      </trkpt>
      <trkpt lat="41.74541" lon="8.69033">
        <ele>128.3</ele>
        <time>2014-04-29T15:04:29Z</time>
      </trkpt>
      <trkpt lat="41.74539" lon="8.69034">
        <ele>127.6</ele>
        <time>2014-04-29T15:04:39Z</time>
      </trkpt>
      <trkpt lat="41.74535" lon="8.69043">
        <ele>126.3</ele>
        <time>2014-04-29T15:04:49Z</time>
      </trkpt>
      <trkpt lat="41.74532" lon="8.69064">
        <ele>125.3</ele>
        <time>2014-04-29T15:04:59Z</time>
      </trkpt>
      <trkpt lat="41.74528" lon="8.69085">
        <ele>124</ele>
        <time>2014-04-29T15:05:09Z</time>
      </trkpt>
      <trkpt lat="41.74527" lon="8.69102">
        <ele>123.8</ele>
        <time>2014-04-29T15:05:19Z</time>
      </trkpt>
      <trkpt lat="41.74531" lon="8.69118">
        <ele>124.2</ele>
        <time>2014-04-29T15:05:29Z</time>
      </trkpt>
      <trkpt lat="41.74535" lon="8.69132">
        <ele>124</ele>
        <time>2014-04-29T15:05:40Z</time>
      </trkpt>
      <trkpt lat="41.7454" lon="8.69146">
        <ele>123.7</ele>
        <time>2014-04-29T15:05:50Z</time>
      </trkpt>
      <trkpt lat="41.74544" lon="8.69159">
        <ele>123</ele>
        <time>2014-04-29T15:06:00Z</time>
      </trkpt>
      <trkpt lat="41.74547" lon="8.69174">
        <ele>122.2</ele>
        <time>2014-04-29T15:06:10Z</time>
      </trkpt>
      <trkpt lat="41.74549" lon="8.69191">
        <ele>120.9</ele>
        <time>2014-04-29T15:06:20Z</time>
      </trkpt>
      <trkpt lat="41.74554" lon="8.69203">
        <ele>120.4</ele>
        <time>2014-04-29T15:06:30Z</time>
      </trkpt>
      <trkpt lat="41.7456" lon="8.69214">
        <ele>118.8</ele>
        <time>2014-04-29T15:06:40Z</time>
      </trkpt>
      <trkpt lat="41.74568" lon="8.69223">
        <ele>116.6</ele>
        <time>2014-04-29T15:06:50Z</time>
      </trkpt>
      <trkpt lat="41.74576" lon="8.69232">
        <ele>114.2</ele>
        <time>2014-04-29T15:07:00Z</time>
      </trkpt>
      <trkpt lat="41.74581" lon="8.69242">
        <ele>112.2</ele>
        <time>2014-04-29T15:07:10Z</time>
      </trkpt>
      <trkpt lat="41.74588" lon="8.69259">
        <ele>111.5</ele>
        <time>2014-04-29T15:07:20Z</time>
      </trkpt>
      <trkpt lat="41.74593" lon="8.69267">
        <ele>112.4</ele>
        <time>2014-04-29T15:07:30Z</time>
      </trkpt>
      <trkpt lat="41.74594" lon="8.69263">
        <ele>112.6</ele>
        <time>2014-04-29T15:07:40Z</time>
      </trkpt>
      <trkpt lat="41.746" lon="8.69261">
        <ele>113.3</ele>
        <time>2014-04-29T15:07:50Z</time>
      </trkpt>
      <trkpt lat="41.74606" lon="8.69269">
        <ele>114.6</ele>
        <time>2014-04-29T15:08:00Z</time>
      </trkpt>
      <trkpt lat="41.74604" lon="8.6928">
        <ele>115.1</ele>
        <time>2014-04-29T15:08:10Z</time>
      </trkpt>
      <trkpt lat="41.74596" lon="8.6929">
        <ele>115.6</ele>
        <time>2014-04-29T15:08:20Z</time>
      </trkpt>
      <trkpt lat="41.74587" lon="8.69299">
        <ele>116.2</ele>
        <time>2014-04-29T15:08:30Z</time>
      </trkpt>
      <trkpt lat="41.74578" lon="8.69307">
        <ele>116.5</ele>
        <time>2014-04-29T15:08:40Z</time>
      </trkpt>
      <trkpt lat="41.7457" lon="8.69314">
        <ele>117</ele>
        <time>2014-04-29T15:08:50Z</time>
      </trkpt>
      <trkpt lat="41.74561" lon="8.69324">
        <ele>118.3</ele>
        <time>2014-04-29T15:09:00Z</time>
      </trkpt>
      <trkpt lat="41.74553" lon="8.69332">
        <ele>119.2</ele>
        <time>2014-04-29T15:09:10Z</time>
      </trkpt>
      <trkpt lat="41.74548" lon="8.69342">
        <ele>121.1</ele>
        <time>2014-04-29T15:09:20Z</time>
      </trkpt>
      <trkpt lat="41.74543" lon="8.69349">
        <ele>121.5</ele>
        <time>2014-04-29T15:09:30Z</time>
      </trkpt>
      <trkpt lat="41.74535" lon="8.6936">
        <ele>121.8</ele>
        <time>2014-04-29T15:09:40Z</time>
      </trkpt>
      <trkpt lat="41.74529" lon="8.69377">
        <ele>120.8</ele>
        <time>2014-04-29T15:09:50Z</time>
      </trkpt>
      <trkpt lat="41.74528" lon="8.6939">
        <ele>121</ele>
        <time>2014-04-29T15:10:00Z</time>
      </trkpt>
      <trkpt lat="41.74532" lon="8.69401">
        <ele>120.6</ele>
        <time>2014-04-29T15:10:10Z</time>
      </trkpt>
      <trkpt lat="41.7454" lon="8.69416">
        <ele>121.1</ele>
        <time>2014-04-29T15:10:20Z</time>
      </trkpt>
      <trkpt lat="41.74547" lon="8.69428">
        <ele>122.3</ele>
        <time>2014-04-29T15:10:30Z</time>
      </trkpt>
      <trkpt lat="41.74547" lon="8.69429">
        <ele>122.2</ele>
        <time>2014-04-29T15:10:36Z</time>
      </trkpt>
      <trkpt lat="41.74548" lon="8.69429">
        <ele>122.7</ele>
        <time>2014-04-29T15:10:48Z</time>
      </trkpt>
      <trkpt lat="41.74548" lon="8.69429">
        <ele>122.6</ele>
        <time>2014-04-29T15:11:08Z</time>
      </trkpt>
      <trkpt lat="41.74548" lon="8.69429">
        <ele>122.5</ele>
        <time>2014-04-29T15:11:18Z</time>
      </trkpt>
    </trkseg>
  </trk>
</gpx>